| time (UTC) | temp F | wind direction | speed MPH | gust MPH | rain 1hr in | rain 24hr in | rain mn in | humidity % | barometer mb |
| 20260903111404 | 81 | 35 | 6.0 | 14.0 | 0.00 | 0.00 | 0.00 | 1 | 1013.4 |
| 20260903111306 | 81 | 35 | 6.0 | 14.0 | 0.00 | 0.00 | 0.00 | 1 | 1013.4 |
| 20260903111204 | 81 | 35 | 6.0 | 14.0 | 0.00 | 0.00 | 0.00 | 1 | 1013.4 |
| 20260903111104 | 81 | 35 | 6.0 | 14.0 | 0.00 | 0.00 | 0.00 | 1 | 1013.4 |
| 20260903111004 | 81 | 36 | 6.0 | 14.0 | 0.00 | 0.00 | 0.00 | 1 | 1013.5 |
| 20260903110904 | 81 | 38 | 6.0 | 14.0 | 0.00 | 0.00 | 0.00 | 1 | 1013.4 |
| 20260903110827 | 81 | 38 | 6.0 | 14.0 | 0.00 | 0.00 | 0.00 | 1 | 1013.4 |
| 20260903110704 | 81 | 38 | 6.0 | 14.0 | 0.00 | 0.00 | 0.00 | 1 | 1013.4 |
| 20260903110604 | 81 | 39 | 6.0 | 14.0 | 0.00 | 0.00 | 0.00 | 1 | 1013.4 |
| 20260903110504 | 81 | 40 | 6.0 | 14.0 | 0.00 | 0.00 | 0.00 | 1 | 1013.4 |
| 20260903110404 | 81 | 42 | 6.0 | 14.0 | 0.00 | 0.00 | 0.00 | 1 | 1013.4 |
| 20260903110325 | 81 | 41 | 6.0 | 14.0 | 0.00 | 0.00 | 0.00 | 1 | 1013.3 |
| 20260903110204 | 81 | 40 | 6.0 | 14.0 | 0.00 | 0.00 | 0.00 | 1 | 1013.4 |
| 20260903110104 | 81 | 41 | 6.0 | 14.0 | 0.00 | 0.00 | 0.00 | 1 | 1013.4 |
| 20260903110004 | 81 | 40 | 6.0 | 14.0 | 0.00 | 0.00 | 0.00 | 1 | 1013.4 |
| 20260903105904 | 81 | 38 | 6.0 | 14.0 | 0.00 | 0.00 | 0.00 | 1 | 1013.4 |
| 20260903105804 | 81 | 38 | 6.0 | 14.0 | 0.00 | 0.00 | 0.00 | 1 | 1013.4 |
| 20260903105705 | 81 | 38 | 6.0 | 14.0 | 0.00 | 0.00 | 0.00 | 1 | 1013.4 |
| 20260903105604 | 81 | 37 | 6.0 | 13.0 | 0.00 | 0.00 | 0.00 | 1 | 1013.4 |
| 20260903105504 | 81 | 35 | 6.0 | 13.0 | 0.00 | 0.00 | 0.00 | 1 | 1013.4 |
| 20260903105404 | 81 | 33 | 6.0 | 13.0 | 0.00 | 0.00 | 0.00 | 1 | 1013.3 |
| 20260903105325 | 81 | 35 | 6.0 | 13.0 | 0.00 | 0.00 | 0.00 | 1 | 1013.4 |
| 20260903105204 | 81 | 38 | 5.0 | 11.0 | 0.00 | 0.00 | 0.00 | 1 | 1013.3 |
| 20260903105104 | 81 | 38 | 5.0 | 11.0 | 0.00 | 0.00 | 0.00 | 1 | 1013.3 |
| 20260903105025 | 81 | 40 | 5.0 | 11.0 | 0.00 | 0.00 | 0.00 | 1 | 1013.3 |
| 20260903104904 | 81 | 41 | 5.0 | 11.0 | 0.00 | 0.00 | 0.00 | 1 | 1013.3 |
| 20260903104825 | 81 | 42 | 5.0 | 11.0 | 0.00 | 0.00 | 0.00 | 1 | 1013.3 |
| 20260903104704 | 81 | 40 | 5.0 | 12.0 | 0.00 | 0.00 | 0.00 | 1 | 1013.3 |
| 20260903104604 | 81 | 41 | 5.0 | 12.0 | 0.00 | 0.00 | 0.00 | 1 | 1013.3 |
| 20260903104504 | 81 | 42 | 5.0 | 12.0 | 0.00 | 0.00 | 0.00 | 1 | 1013.3 |
| 20260903104404 | 81 | 42 | 5.0 | 12.0 | 0.00 | 0.00 | 0.00 | 1 | 1013.2 |
| 20260903104304 | 81 | 41 | 5.0 | 12.0 | 0.00 | 0.00 | 0.00 | 1 | 1013.3 |
| 20260903104204 | 81 | 38 | 5.0 | 12.0 | 0.00 | 0.00 | 0.00 | 1 | 1013.3 |
| 20260903104104 | 81 | 36 | 5.0 | 12.0 | 0.00 | 0.00 | 0.00 | 1 | 1013.2 |
| 20260903104025 | 81 | 35 | 5.0 | 12.0 | 0.00 | 0.00 | 0.00 | 1 | 1013.2 |
| 20260903103904 | 80 | 35 | 5.0 | 12.0 | 0.00 | 0.00 | 0.00 | 1 | 1013.2 |
| 20260903103804 | 80 | 37 | 4.0 | 12.0 | 0.00 | 0.00 | 0.00 | 1 | 1013.2 |
| 20260903103704 | 80 | 37 | 4.0 | 11.0 | 0.00 | 0.00 | 0.00 | 1 | 1013.2 |
| 20260903103604 | 80 | 37 | 4.0 | 11.0 | 0.00 | 0.00 | 0.00 | 1 | 1013.2 |
| 20260903103504 | 80 | 38 | 4.0 | 9.0 | 0.00 | 0.00 | 0.00 | 1 | 1013.1 |
| 20260903103425 | 80 | 38 | 4.0 | 9.0 | 0.00 | 0.00 | 0.00 | 1 | 1013.2 |
| 20260903103325 | 80 | 38 | 5.0 | 14.0 | 0.00 | 0.00 | 0.00 | 1 | 1013.2 |
| 20260903103204 | 80 | 42 | 5.0 | 14.0 | 0.00 | 0.00 | 0.00 | 1 | 1013.1 |
| 20260903103104 | 80 | 42 | 5.0 | 14.0 | 0.00 | 0.00 | 0.00 | 1 | 1013.2 |
| 20260903103004 | 80 | 43 | 5.0 | 14.0 | 0.00 | 0.00 | 0.00 | 1 | 1013.1 |
| 20260903102904 | 80 | 44 | 5.0 | 14.0 | 0.00 | 0.00 | 0.00 | 1 | 1013.1 |
| 20260903102804 | 80 | 44 | 5.0 | 14.0 | 0.00 | 0.00 | 0.00 | 1 | 1013.1 |
| 20260903102704 | 80 | 46 | 5.0 | 14.0 | 0.00 | 0.00 | 0.00 | 1 | 1013.1 |
| 20260903102625 | 80 | 46 | 5.0 | 14.0 | 0.00 | 0.00 | 0.00 | 1 | 1013.1 |
| 20260903102504 | 80 | 46 | 5.0 | 14.0 | 0.00 | 0.00 | 0.00 | 1 | 1013.1 |
| 20260903102404 | 80 | 46 | 5.0 | 14.0 | 0.00 | 0.00 | 0.00 | 1 | 1013.1 |
| 20260903102306 | 80 | 45 | 5.0 | 12.0 | 0.00 | 0.00 | 0.00 | 1 | 1013.1 |
| 20260903102204 | 80 | 42 | 6.0 | 12.0 | 0.00 | 0.00 | 0.00 | 1 | 1013.1 |
| 20260903102104 | 80 | 41 | 6.0 | 14.0 | 0.00 | 0.00 | 0.00 | 1 | 1013.1 |
| 20260903102004 | 80 | 40 | 6.0 | 14.0 | 0.00 | 0.00 | 0.00 | 1 | 1013.1 |
| 20260903101906 | 80 | 36 | 6.0 | 14.0 | 0.00 | 0.00 | 0.00 | 1 | 1013.2 |
| 20260903101804 | 80 | 34 | 6.0 | 14.0 | 0.00 | 0.00 | 0.00 | 1 | 1013.1 |
| 20260903101704 | 80 | 33 | 6.0 | 14.0 | 0.00 | 0.00 | 0.00 | 1 | 1013.1 |
| 20260903101604 | 80 | 34 | 6.0 | 14.0 | 0.00 | 0.00 | 0.00 | 1 | 1013.1 |
| 20260903101504 | 80 | 34 | 6.0 | 14.0 | 0.00 | 0.00 | 0.00 | 1 | 1013.1 |
| 20260903101404 | 80 | 33 | 6.0 | 14.0 | 0.00 | 0.00 | 0.00 | 1 | 1013.1 |
| 20260903101304 | 80 | 33 | 5.0 | 14.0 | 0.00 | 0.00 | 0.00 | 1 | 1013.2 |
| 20260903101204 | 80 | 35 | 5.0 | 14.0 | 0.00 | 0.00 | 0.00 | 1 | 1013.2 |
| 20260903101105 | 80 | 37 | 5.0 | 11.0 | 0.00 | 0.00 | 0.00 | 1 | 1013.1 |
| 20260903101004 | 80 | 39 | 5.0 | 11.0 | 0.00 | 0.00 | 0.00 | 1 | 1013.1 |
| 20260903100904 | 80 | 44 | 5.0 | 11.0 | 0.00 | 0.00 | 0.00 | 1 | 1013.1 |
| 20260903100804 | 80 | 44 | 5.0 | 11.0 | 0.00 | 0.00 | 0.00 | 1 | 1013.1 |
| 20260903100704 | 80 | 44 | 5.0 | 11.0 | 0.00 | 0.00 | 0.00 | 1 | 1013.1 |
| 20260903100625 | 80 | 43 | 5.0 | 11.0 | 0.00 | 0.00 | 0.00 | 1 | 1013.1 |
| 20260903100504 | 80 | 43 | 5.0 | 11.0 | 0.00 | 0.00 | 0.00 | 1 | 1013.1 |
| 20260903100404 | 80 | 45 | 4.0 | 9.0 | 0.00 | 0.00 | 0.00 | 1 | 1013.1 |
| 20260903100304 | 80 | 47 | 4.0 | 9.0 | 0.00 | 0.00 | 0.00 | 1 | 1013.1 |
| 20260903100204 | 80 | 47 | 5.0 | 9.0 | 0.00 | 0.00 | 0.00 | 1 | 1013.1 |
| 20260903100104 | 80 | 47 | 5.0 | 9.0 | 0.00 | 0.00 | 0.00 | 1 | 1013.1 |
| 20260903100004 | 80 | 47 | 5.0 | 9.0 | 0.00 | 0.00 | 0.00 | 1 | 1013.1 |
| 20260903095925 | 80 | 45 | 5.0 | 9.0 | 0.00 | 0.00 | 0.00 | 1 | 1013.1 |
| 20260903095804 | 80 | 46 | 4.0 | 9.0 | 0.00 | 0.00 | 0.00 | 1 | 1013.1 |
| 20260903095727 | 80 | 47 | 4.0 | 9.0 | 0.00 | 0.00 | 0.00 | 1 | 1013.1 |
| 20260903095604 | 80 | 48 | 4.0 | 9.0 | 0.00 | 0.00 | 0.00 | 1 | 1013.2 |
| 20260903095525 | 80 | 49 | 4.0 | 9.0 | 0.00 | 0.00 | 0.00 | 1 | 1013.2 |
| 20260903095404 | 80 | 49 | 5.0 | 9.0 | 0.00 | 0.00 | 0.00 | 1 | 1013.2 |
| 20260903095306 | 80 | 49 | 5.0 | 9.0 | 0.00 | 0.00 | 0.00 | 1 | 1013.2 |
| 20260903095225 | 80 | 49 | 5.0 | 9.0 | 0.00 | 0.00 | 0.00 | 1 | 1013.2 |
| 20260903095104 | 80 | 48 | 5.0 | 9.0 | 0.00 | 0.00 | 0.00 | 1 | 1013.2 |
| 20260903095004 | 80 | 46 | 5.0 | 9.0 | 0.00 | 0.00 | 0.00 | 1 | 1013.3 |
| 20260903094904 | 80 | 45 | 6.0 | 13.0 | 0.00 | 0.00 | 0.00 | 1 | 1013.2 |
| 20260903094804 | 80 | 44 | 6.0 | 13.0 | 0.00 | 0.00 | 0.00 | 1 | 1013.3 |
| 20260903094704 | 80 | 44 | 6.0 | 13.0 | 0.00 | 0.00 | 0.00 | 1 | 1013.3 |
| 20260903094625 | 80 | 44 | 6.0 | 13.0 | 0.00 | 0.00 | 0.00 | 1 | 1013.3 |
| 20260903094525 | 80 | 44 | 6.0 | 13.0 | 0.00 | 0.00 | 0.00 | 1 | 1013.3 |
| 20260903094404 | 80 | 43 | 6.0 | 13.0 | 0.00 | 0.00 | 0.00 | 1 | 1013.3 |
| 20260903094306 | 80 | 42 | 6.0 | 13.0 | 0.00 | 0.00 | 0.00 | 1 | 1013.3 |
| 20260903094204 | 80 | 43 | 6.0 | 13.0 | 0.00 | 0.00 | 0.00 | 1 | 1013.3 |
| 20260903094104 | 80 | 42 | 6.0 | 13.0 | 0.00 | 0.00 | 0.00 | 1 | 1013.3 |
| 20260903094004 | 80 | 41 | 6.0 | 13.0 | 0.00 | 0.00 | 0.00 | 1 | 1013.3 |
| 20260903093904 | 80 | 42 | 6.0 | 10.0 | 0.00 | 0.00 | 0.00 | 1 | 1013.3 |
| 20260903093804 | 80 | 42 | 6.0 | 11.0 | 0.00 | 0.00 | 0.00 | 1 | 1013.3 |
| 20260903093704 | 80 | 42 | 6.0 | 11.0 | 0.00 | 0.00 | 0.00 | 1 | 1013.3 |
| 20260903093604 | 80 | 42 | 6.0 | 11.0 | 0.00 | 0.00 | 0.00 | 1 | 1013.3 |
| 20260903093504 | 80 | 41 | 6.0 | 12.0 | 0.00 | 0.00 | 0.00 | 1 | 1013.3 |
| 20260903093404 | 80 | 41 | 6.0 | 12.0 | 0.00 | 0.00 | 0.00 | 1 | 1013.4 |
| 20260903093304 | 80 | 41 | 6.0 | 12.0 | 0.00 | 0.00 | 0.00 | 1 | 1013.3 |
| 20260903093204 | 80 | 42 | 6.0 | 12.0 | 0.00 | 0.00 | 0.00 | 1 | 1013.4 |
| 20260903093104 | 80 | 44 | 6.0 | 12.0 | 0.00 | 0.00 | 0.00 | 1 | 1013.4 |
| 20260903093004 | 80 | 45 | 6.0 | 12.0 | 0.00 | 0.00 | 0.00 | 1 | 1013.4 |
| 20260903092904 | 80 | 45 | 5.0 | 12.0 | 0.00 | 0.00 | 0.00 | 1 | 1013.4 |
| 20260903092804 | 80 | 46 | 5.0 | 12.0 | 0.00 | 0.00 | 0.00 | 1 | 1013.4 |
| 20260903092725 | 80 | 46 | 5.0 | 12.0 | 0.00 | 0.00 | 0.00 | 1 | 1013.4 |
| 20260903092604 | 80 | 46 | 5.0 | 12.0 | 0.00 | 0.00 | 0.00 | 1 | 1013.4 |
| 20260903092504 | 80 | 47 | 5.0 | 11.0 | 0.00 | 0.00 | 0.00 | 1 | 1013.4 |
| 20260903092404 | 80 | 46 | 5.0 | 10.0 | 0.00 | 0.00 | 0.00 | 1 | 1013.4 |
| 20260903092325 | 80 | 47 | 5.0 | 10.0 | 0.00 | 0.00 | 0.00 | 1 | 1013.4 |
| 20260903092204 | 81 | 47 | 5.0 | 10.0 | 0.00 | 0.00 | 0.00 | 1 | 1013.4 |
| 20260903092104 | 81 | 47 | 5.0 | 10.0 | 0.00 | 0.00 | 0.00 | 1 | 1013.4 |
| 20260903092004 | 81 | 47 | 5.0 | 10.0 | 0.00 | 0.00 | 0.00 | 1 | 1013.3 |
| 20260903091904 | 81 | 47 | 4.0 | 10.0 | 0.00 | 0.00 | 0.00 | 1 | 1013.4 |
| 20260903091825 | 81 | 46 | 5.0 | 10.0 | 0.00 | 0.00 | 0.00 | 1 | 1013.4 |
| 20260903091704 | 81 | 43 | 5.0 | 12.0 | 0.00 | 0.00 | 0.00 | 1 | 1013.4 |
| 20260903091604 | 81 | 42 | 5.0 | 12.0 | 0.00 | 0.00 | 0.00 | 1 | 1013.4 |
| 20260903091504 | 81 | 42 | 5.0 | 12.0 | 0.00 | 0.00 | 0.00 | 1 | 1013.4 |
| 20260903091404 | 81 | 43 | 5.0 | 12.0 | 0.00 | 0.00 | 0.00 | 1 | 1013.5 |
| 20260903091304 | 81 | 42 | 6.0 | 12.0 | 0.00 | 0.00 | 0.00 | 1 | 1013.4 |
| 20260903091204 | 81 | 41 | 6.0 | 12.0 | 0.00 | 0.00 | 0.00 | 1 | 1013.5 |
| 20260903091104 | 81 | 40 | 6.0 | 15.0 | 0.00 | 0.00 | 0.00 | 1 | 1013.5 |
| 20260903091004 | 81 | 40 | 7.0 | 15.0 | 0.00 | 0.00 | 0.00 | 1 | 1013.5 |
| 20260903090904 | 81 | 41 | 7.0 | 15.0 | 0.00 | 0.00 | 0.00 | 1 | 1013.5 |
| 20260903090804 | 81 | 44 | 7.0 | 15.0 | 0.00 | 0.00 | 0.00 | 1 | 1013.5 |
| 20260903090706 | 81 | 45 | 7.0 | 15.0 | 0.00 | 0.00 | 0.00 | 1 | 1013.5 |
| 20260903090604 | 81 | 45 | 7.0 | 15.0 | 0.00 | 0.00 | 0.00 | 1 | 1013.5 |
| 20260903090504 | 81 | 44 | 7.0 | 15.0 | 0.00 | 0.00 | 0.00 | 1 | 1013.5 |
| 20260903090404 | 81 | 43 | 7.0 | 15.0 | 0.00 | 0.00 | 0.00 | 1 | 1013.5 |
| 20260903090304 | 81 | 43 | 7.0 | 15.0 | 0.00 | 0.00 | 0.00 | 1 | 1013.4 |
| 20260903090204 | 81 | 43 | 7.0 | 15.0 | 0.00 | 0.00 | 0.00 | 1 | 1013.4 |
| 20260903090104 | 81 | 45 | 6.0 | 14.0 | 0.00 | 0.00 | 0.00 | 1 | 1013.4 |
| 20260903090004 | 81 | 46 | 6.0 | 14.0 | 0.00 | 0.00 | 0.00 | 1 | 1013.4 |
| 20260903085904 | 81 | 44 | 7.0 | 14.0 | 0.00 | 0.00 | 0.00 | 1 | 1013.5 |
| 20260903085804 | 81 | 43 | 7.0 | 14.0 | 0.00 | 0.00 | 0.00 | 1 | 1013.4 |
| 20260903085704 | 81 | 43 | 6.0 | 14.0 | 0.00 | 0.00 | 0.00 | 1 | 1013.5 |
| 20260903085604 | 81 | 43 | 6.0 | 14.0 | 0.00 | 0.00 | 0.00 | 1 | 1013.5 |
| 20260903085504 | 81 | 45 | 6.0 | 14.0 | 0.00 | 0.00 | 0.00 | 1 | 1013.4 |
| 20260903085404 | 81 | 46 | 6.0 | 14.0 | 0.00 | 0.00 | 0.00 | 1 | 1013.4 |
| 20260903085306 | 81 | 46 | 5.0 | 10.0 | 0.00 | 0.00 | 0.00 | 1 | 1013.4 |
| 20260903085204 | 81 | 46 | 5.0 | 10.0 | 0.00 | 0.00 | 0.00 | 1 | 1013.4 |
| 20260903085104 | 81 | 45 | 6.0 | 14.0 | 0.00 | 0.00 | 0.00 | 1 | 1013.5 |
| 20260903085004 | 81 | 44 | 5.0 | 14.0 | 0.00 | 0.00 | 0.00 | 1 | 1013.4 |
| 20260903084904 | 81 | 46 | 5.0 | 14.0 | 0.00 | 0.00 | 0.00 | 1 | 1013.5 |
| 20260903084825 | 81 | 45 | 5.0 | 14.0 | 0.00 | 0.00 | 0.00 | 1 | 1013.4 |
| 20260903084725 | 81 | 44 | 6.0 | 14.0 | 0.00 | 0.00 | 0.00 | 1 | 1013.5 |
| 20260903084604 | 81 | 40 | 6.0 | 14.0 | 0.00 | 0.00 | 0.00 | 1 | 1013.5 |
| 20260903084504 | 81 | 40 | 6.0 | 14.0 | 0.00 | 0.00 | 0.00 | 1 | 1013.5 |
| 20260903084404 | 81 | 38 | 6.0 | 14.0 | 0.00 | 0.00 | 0.00 | 1 | 1013.5 |
| 20260903084304 | 81 | 36 | 6.0 | 14.0 | 0.00 | 0.00 | 0.00 | 1 | 1013.5 |
| 20260903084227 | 81 | 36 | 6.0 | 14.0 | 0.00 | 0.00 | 0.00 | 1 | 1013.5 |
| 20260903084106 | 81 | 36 | 6.0 | 12.0 | 0.00 | 0.00 | 0.00 | 1 | 1013.5 |
| 20260903084004 | 81 | 38 | 6.0 | 12.0 | 0.00 | 0.00 | 0.00 | 1 | 1013.5 |
| 20260903083925 | 81 | 36 | 6.0 | 13.0 | 0.00 | 0.00 | 0.00 | 1 | 1013.5 |
| 20260903083804 | 81 | 35 | 6.0 | 13.0 | 0.00 | 0.00 | 0.00 | 1 | 1013.5 |
| 20260903083704 | 81 | 35 | 6.0 | 13.0 | 0.00 | 0.00 | 0.00 | 1 | 1013.4 |
| 20260903083604 | 81 | 37 | 6.0 | 13.0 | 0.00 | 0.00 | 0.00 | 1 | 1013.4 |
| 20260903083504 | 81 | 38 | 6.0 | 13.0 | 0.00 | 0.00 | 0.00 | 1 | 1013.4 |
| 20260903083404 | 81 | 39 | 6.0 | 13.0 | 0.00 | 0.00 | 0.00 | 1 | 1013.4 |
| 20260903083304 | 81 | 38 | 6.0 | 13.0 | 0.00 | 0.00 | 0.00 | 1 | 1013.4 |
| 20260903083204 | 81 | 39 | 6.0 | 13.0 | 0.00 | 0.00 | 0.00 | 1 | 1013.4 |
| 20260903083104 | 81 | 38 | 6.0 | 13.0 | 0.00 | 0.00 | 0.00 | 1 | 1013.4 |
| 20260903083025 | 81 | 36 | 6.0 | 13.0 | 0.00 | 0.00 | 0.00 | 1 | 1013.4 |
| 20260903082925 | 81 | 36 | 6.0 | 12.0 | 0.00 | 0.00 | 0.00 | 1 | 1013.4 |
| 20260903082804 | 81 | 36 | 5.0 | 12.0 | 0.00 | 0.00 | 0.00 | 1 | 1013.4 |
| 20260903082704 | 81 | 35 | 5.0 | 11.0 | 0.00 | 0.00 | 0.00 | 1 | 1013.4 |
| 20260903082625 | 81 | 36 | 6.0 | 11.0 | 0.00 | 0.00 | 0.00 | 1 | 1013.4 |
| 20260903082504 | 81 | 36 | 6.0 | 11.0 | 0.00 | 0.00 | 0.00 | 1 | 1013.4 |
| 20260903082425 | 81 | 35 | 6.0 | 15.0 | 0.00 | 0.00 | 0.00 | 1 | 1013.4 |
| 20260903082306 | 81 | 35 | 6.0 | 16.0 | 0.00 | 0.00 | 0.00 | 1 | 1013.4 |
| 20260903082204 | 81 | 34 | 6.0 | 16.0 | 0.00 | 0.00 | 0.00 | 1 | 1013.4 |
| 20260903082125 | 81 | 33 | 6.0 | 16.0 | 0.00 | 0.00 | 0.00 | 1 | 1013.5 |
| 20260903082004 | 81 | 35 | 6.0 | 16.0 | 0.00 | 0.00 | 0.00 | 1 | 1013.4 |
| 20260903081904 | 81 | 34 | 7.0 | 16.0 | 0.00 | 0.00 | 0.00 | 1 | 1013.4 |
| 20260903081804 | 81 | 35 | 7.0 | 16.0 | 0.00 | 0.00 | 0.00 | 1 | 1013.5 |
| 20260903081725 | 81 | 35 | 7.0 | 16.0 | 0.00 | 0.00 | 0.00 | 1 | 1013.4 |
| 20260903081604 | 81 | 35 | 7.0 | 16.0 | 0.00 | 0.00 | 0.00 | 1 | 1013.5 |
| 20260903081504 | 81 | 36 | 7.0 | 16.0 | 0.00 | 0.00 | 0.00 | 1 | 1013.5 |
| 20260903081426 | 81 | 35 | 7.0 | 16.0 | 0.00 | 0.00 | 0.00 | 1 | 1013.4 |
| 20260903081304 | 81 | 37 | 7.0 | 15.0 | 0.00 | 0.00 | 0.00 | 1 | 1013.5 |
| 20260903081227 | 81 | 38 | 7.0 | 15.0 | 0.00 | 0.00 | 0.00 | 1 | 1013.4 |
| 20260903081125 | 81 | 39 | 7.0 | 15.0 | 0.00 | 0.00 | 0.00 | 1 | 1013.4 |
| 20260903081025 | 81 | 37 | 7.0 | 15.0 | 0.00 | 0.00 | 0.00 | 1 | 1013.4 |
| 20260903080904 | 81 | 35 | 7.0 | 15.0 | 0.00 | 0.00 | 0.00 | 1 | 1013.4 |
| 20260903080804 | 81 | 34 | 7.0 | 15.0 | 0.00 | 0.00 | 0.00 | 1 | 1013.4 |
| 20260903080704 | 82 | 34 | 7.0 | 15.0 | 0.00 | 0.00 | 0.00 | 1 | 1013.4 |
| 20260903080604 | 82 | 33 | 7.0 | 16.0 | 0.00 | 0.00 | 0.00 | 1 | 1013.4 |
| 20260903080525 | 82 | 33 | 8.0 | 16.0 | 0.00 | 0.00 | 0.00 | 1 | 1013.4 |
| 20260903080404 | 82 | 32 | 8.0 | 16.0 | 0.00 | 0.00 | 0.00 | 1 | 1013.4 |
| 20260903080304 | 82 | 31 | 8.0 | 16.0 | 0.00 | 0.00 | 0.00 | 1 | 1013.3 |
| 20260903080204 | 82 | 32 | 8.0 | 16.0 | 0.00 | 0.00 | 0.00 | 1 | 1013.4 |
| 20260903080104 | 82 | 32 | 8.0 | 16.0 | 0.00 | 0.00 | 0.00 | 1 | 1013.3 |
| 20260903080025 | 82 | 32 | 8.0 | 16.0 | 0.00 | 0.00 | 0.00 | 1 | 1013.4 |
| 20260903075904 | 82 | 31 | 8.0 | 16.0 | 0.00 | 0.00 | 0.00 | 1 | 1013.4 |
| 20260903075825 | 82 | 31 | 8.0 | 16.0 | 0.00 | 0.00 | 0.00 | 1 | 1013.3 |
| 20260903075704 | 82 | 31 | 8.0 | 16.0 | 0.00 | 0.00 | 0.00 | 1 | 1013.4 |
| 20260903075604 | 82 | 32 | 8.0 | 15.0 | 0.00 | 0.00 | 0.00 | 1 | 1013.3 |
| 20260903075504 | 82 | 32 | 8.0 | 15.0 | 0.00 | 0.00 | 0.00 | 1 | 1013.3 |
| 20260903075404 | 82 | 33 | 8.0 | 15.0 | 0.00 | 0.00 | 0.00 | 1 | 1013.3 |
| 20260903075306 | 82 | 32 | 7.0 | 15.0 | 0.00 | 0.00 | 0.00 | 1 | 1013.3 |
| 20260903075225 | 82 | 31 | 7.0 | 15.0 | 0.00 | 0.00 | 0.00 | 1 | 1013.3 |
| 20260903075104 | 82 | 29 | 7.0 | 15.0 | 0.00 | 0.00 | 0.00 | 1 | 1013.3 |
| 20260903075025 | 82 | 28 | 7.0 | 15.0 | 0.00 | 0.00 | 0.00 | 1 | 1013.3 |
| 20260903074904 | 82 | 33 | 6.0 | 15.0 | 0.00 | 0.00 | 0.00 | 1 | 1013.3 |
| 20260903074825 | 82 | 33 | 6.0 | 15.0 | 0.00 | 0.00 | 0.00 | 1 | 1013.4 |
| 20260903074704 | 82 | 33 | 6.0 | 13.0 | 0.00 | 0.00 | 0.00 | 1 | 1013.4 |
| 20260903074604 | 82 | 33 | 6.0 | 13.0 | 0.00 | 0.00 | 0.00 | 1 | 1013.3 |
| 20260903074504 | 82 | 31 | 6.0 | 13.0 | 0.00 | 0.00 | 0.00 | 1 | 1013.3 |
| 20260903074404 | 82 | 33 | 6.0 | 11.0 | 0.00 | 0.00 | 0.00 | 1 | 1013.4 |
| 20260903074325 | 82 | 33 | 6.0 | 12.0 | 0.00 | 0.00 | 0.00 | 1 | 1013.4 |
| 20260903074204 | 82 | 37 | 6.0 | 12.0 | 0.00 | 0.00 | 0.00 | 1 | 1013.4 |
| 20260903074104 | 82 | 37 | 6.0 | 12.0 | 0.00 | 0.00 | 0.00 | 1 | 1013.4 |
| 20260903074004 | 82 | 37 | 6.0 | 12.0 | 0.00 | 0.00 | 0.00 | 1 | 1013.4 |
| 20260903073904 | 82 | 37 | 6.0 | 12.0 | 0.00 | 0.00 | 0.00 | 1 | 1013.4 |
| 20260903073825 | 82 | 38 | 6.0 | 12.0 | 0.00 | 0.00 | 0.00 | 1 | 1013.4 |
| 20260903073725 | 82 | 36 | 6.0 | 12.0 | 0.00 | 0.00 | 0.00 | 1 | 1013.4 |
| 20260903073604 | 82 | 37 | 6.0 | 12.0 | 0.00 | 0.00 | 0.00 | 1 | 1013.4 |
| 20260903073504 | 82 | 38 | 6.0 | 12.0 | 0.00 | 0.00 | 0.00 | 1 | 1013.5 |
| 20260903073404 | 82 | 37 | 6.0 | 12.0 | 0.00 | 0.00 | 0.00 | 1 | 1013.4 |
| 20260903073304 | 82 | 37 | 6.0 | 12.0 | 0.00 | 0.00 | 0.00 | 1 | 1013.4 |
| 20260903073225 | 82 | 36 | 6.0 | 12.0 | 0.00 | 0.00 | 0.00 | 1 | 1013.4 |
| 20260903073104 | 82 | 35 | 6.0 | 12.0 | 0.00 | 0.00 | 0.00 | 1 | 1013.4 |
| 20260903073004 | 82 | 33 | 6.0 | 12.0 | 0.00 | 0.00 | 0.00 | 1 | 1013.4 |
| 20260903072925 | 82 | 31 | 6.0 | 11.0 | 0.00 | 0.00 | 0.00 | 1 | 1013.5 |
| 20260903072804 | 82 | 30 | 6.0 | 11.0 | 0.00 | 0.00 | 0.00 | 1 | 1013.4 |
| 20260903072704 | 82 | 31 | 6.0 | 11.0 | 0.00 | 0.00 | 0.00 | 1 | 1013.5 |
| 20260903072604 | 82 | 29 | 6.0 | 11.0 | 0.00 | 0.00 | 0.00 | 1 | 1013.5 |
| 20260903072504 | 82 | 31 | 6.0 | 11.0 | 0.00 | 0.00 | 0.00 | 1 | 1013.5 |
| 20260903072425 | 82 | 31 | 6.0 | 11.0 | 0.00 | 0.00 | 0.00 | 1 | 1013.5 |
| 20260903072306 | 82 | 31 | 6.0 | 13.0 | 0.00 | 0.00 | 0.00 | 1 | 1013.5 |
| 20260903072204 | 82 | 33 | 6.0 | 13.0 | 0.00 | 0.00 | 0.00 | 1 | 1013.5 |
| 20260903072104 | 82 | 34 | 5.0 | 13.0 | 0.00 | 0.00 | 0.00 | 1 | 1013.5 |
| 20260903072004 | 82 | 34 | 5.0 | 13.0 | 0.00 | 0.00 | 0.00 | 1 | 1013.5 |
| 20260903071905 | 82 | 33 | 6.0 | 13.0 | 0.00 | 0.00 | 0.00 | 1 | 1013.5 |
| 20260903071804 | 82 | 35 | 5.0 | 13.0 | 0.00 | 0.00 | 0.00 | 1 | 1013.5 |
| 20260903071704 | 82 | 36 | 5.0 | 13.0 | 0.00 | 0.00 | 0.00 | 1 | 1013.5 |
| 20260903071605 | 82 | 34 | 5.0 | 13.0 | 0.00 | 0.00 | 0.00 | 1 | 1013.5 |
| 20260903071504 | 82 | 32 | 5.0 | 13.0 | 0.00 | 0.00 | 0.00 | 1 | 1013.6 |
| 20260903071425 | 82 | 31 | 5.0 | 13.0 | 0.00 | 0.00 | 0.00 | 1 | 1013.5 |
| 20260903071304 | 82 | 27 | 5.0 | 13.0 | 0.00 | 0.00 | 0.00 | 1 | 1013.5 |
| 20260903071204 | 82 | 22 | 5.0 | 12.0 | 0.00 | 0.00 | 0.00 | 1 | 1013.5 |
| 20260903071125 | 82 | 18 | 5.0 | 12.0 | 0.00 | 0.00 | 0.00 | 1 | 1013.6 |
| 20260903071004 | 82 | 12 | 5.0 | 12.0 | 0.00 | 0.00 | 0.00 | 1 | 1013.6 |
| 20260903070904 | 82 | 11 | 4.0 | 12.0 | 0.00 | 0.00 | 0.00 | 1 | 1013.6 |
| 20260903070825 | 82 | 10 | 4.0 | 9.0 | 0.00 | 0.00 | 0.00 | 1 | 1013.6 |
| 20260903070704 | 82 | 9 | 4.0 | 9.0 | 0.00 | 0.00 | 0.00 | 1 | 1013.6 |
| 20260903070604 | 82 | 10 | 4.0 | 9.0 | 0.00 | 0.00 | 0.00 | 1 | 1013.6 |
| 20260903070504 | 82 | 11 | 4.0 | 9.0 | 0.00 | 0.00 | 0.00 | 1 | 1013.6 |
| 20260903070404 | 82 | 11 | 4.0 | 11.0 | 0.00 | 0.00 | 0.00 | 1 | 1013.7 |
| 20260903070304 | 82 | 12 | 4.0 | 11.0 | 0.00 | 0.00 | 0.00 | 1 | 1013.7 |
| 20260903070204 | 82 | 18 | 4.0 | 11.0 | 0.00 | 0.00 | 0.00 | 1 | 1013.7 |
| 20260903070104 | 82 | 23 | 4.0 | 11.0 | 0.00 | 0.00 | 0.00 | 1 | 1013.7 |
| 20260903070004 | 82 | 26 | 5.0 | 11.0 | 0.00 | 0.00 | 0.00 | 1 | 1013.6 |
| 20260903065904 | 82 | 27 | 4.0 | 11.0 | 0.00 | 0.00 | 0.00 | 1 | 1013.7 |
| 20260903065804 | 82 | 28 | 4.0 | 11.0 | 0.00 | 0.00 | 0.00 | 1 | 1013.7 |
| 20260903065704 | 82 | 25 | 4.0 | 11.0 | 0.00 | 0.00 | 0.00 | 1 | 1013.6 |
| 20260903065604 | 82 | 27 | 5.0 | 11.0 | 0.00 | 0.00 | 0.00 | 1 | 1013.7 |
| 20260903065504 | 82 | 29 | 5.0 | 11.0 | 0.00 | 0.00 | 0.00 | 1 | 1013.7 |
| 20260903065404 | 82 | 28 | 4.0 | 9.0 | 0.00 | 0.00 | 0.00 | 1 | 1013.7 |
| 20260903065306 | 82 | 31 | 4.0 | 9.0 | 0.00 | 0.00 | 0.00 | 1 | 1013.6 |
| 20260903065204 | 82 | 31 | 4.0 | 9.0 | 0.00 | 0.00 | 0.00 | 1 | 1013.6 |
| 20260903065104 | 82 | 31 | 4.0 | 9.0 | 0.00 | 0.00 | 0.00 | 1 | 1013.7 |
| 20260903065004 | 82 | 33 | 4.0 | 9.0 | 0.00 | 0.00 | 0.00 | 1 | 1013.6 |
| 20260903064925 | 82 | 32 | 4.0 | 9.0 | 0.00 | 0.00 | 0.00 | 1 | 1013.7 |
| 20260903064804 | 82 | 28 | 4.0 | 9.0 | 0.00 | 0.00 | 0.00 | 1 | 1013.8 |
| 20260903064704 | 82 | 30 | 4.0 | 8.0 | 0.00 | 0.00 | 0.00 | 1 | 1013.7 |
| 20260903064604 | 82 | 31 | 4.0 | 8.0 | 0.00 | 0.00 | 0.00 | 1 | 1013.6 |
| 20260903064504 | 82 | 31 | 4.0 | 8.0 | 0.00 | 0.00 | 0.00 | 1 | 1013.7 |
| 20260903064404 | 82 | 32 | 4.0 | 8.0 | 0.00 | 0.00 | 0.00 | 1 | 1013.7 |
| 20260903064304 | 82 | 27 | 4.0 | 8.0 | 0.00 | 0.00 | 0.00 | 1 | 1013.7 |
| 20260903064225 | 82 | 24 | 4.0 | 8.0 | 0.00 | 0.00 | 0.00 | 1 | 1013.7 |
| 20260903064104 | 82 | 18 | 3.0 | 8.0 | 0.00 | 0.00 | 0.00 | 1 | 1013.7 |
| 20260903064004 | 82 | 13 | 4.0 | 8.0 | 0.00 | 0.00 | 0.00 | 1 | 1013.8 |
| 20260903063905 | 82 | 14 | 4.0 | 8.0 | 0.00 | 0.00 | 0.00 | 1 | 1013.8 |
| 20260903063804 | 82 | 16 | 3.0 | 8.0 | 0.00 | 0.00 | 0.00 | 1 | 1013.8 |
| 20260903063704 | 82 | 14 | 4.0 | 10.0 | 0.00 | 0.00 | 0.00 | 1 | 1013.8 |
| 20260903063604 | 82 | 15 | 4.0 | 10.0 | 0.00 | 0.00 | 0.00 | 1 | 1013.8 |
| 20260903063504 | 82 | 13 | 4.0 | 10.0 | 0.00 | 0.00 | 0.00 | 1 | 1013.8 |
| 20260903063405 | 81 | 14 | 4.0 | 10.0 | 0.00 | 0.00 | 0.00 | 1 | 1013.8 |
| 20260903063304 | 81 | 12 | 4.0 | 10.0 | 0.00 | 0.00 | 0.00 | 1 | 1013.9 |
| 20260903063204 | 81 | 16 | 4.0 | 10.0 | 0.00 | 0.00 | 0.00 | 1 | 1013.8 |
| 20260903063104 | 81 | 23 | 4.0 | 10.0 | 0.00 | 0.00 | 0.00 | 1 | 1013.8 |
| 20260903063004 | 81 | 27 | 4.0 | 10.0 | 0.00 | 0.00 | 0.00 | 1 | 1013.8 |
| 20260903062904 | 81 | 24 | 4.0 | 10.0 | 0.00 | 0.00 | 0.00 | 1 | 1013.8 |
| 20260903062806 | 81 | 19 | 4.0 | 10.0 | 0.00 | 0.00 | 0.00 | 1 | 1013.9 |
| 20260903062704 | 81 | 12 | 4.0 | 8.0 | 0.00 | 0.00 | 0.00 | 1 | 1013.9 |
| 20260903062604 | 81 | 10 | 4.0 | 8.0 | 0.00 | 0.00 | 0.00 | 1 | 1013.8 |
| 20260903062504 | 81 | 6 | 4.0 | 8.0 | 0.00 | 0.00 | 0.00 | 1 | 1013.8 |
| 20260903062404 | 81 | 355 | 3.0 | 8.0 | 0.00 | 0.00 | 0.00 | 1 | 1013.9 |
| 20260903062306 | 81 | 355 | 3.0 | 8.0 | 0.00 | 0.00 | 0.00 | 1 | 1013.9 |
| 20260903062204 | 81 | 348 | 3.0 | 8.0 | 0.00 | 0.00 | 0.00 | 1 | 1013.8 |
| 20260903062105 | 82 | 337 | 3.0 | 8.0 | 0.00 | 0.00 | 0.00 | 1 | 1013.8 |
| 20260903062004 | 82 | 320 | 3.0 | 8.0 | 0.00 | 0.00 | 0.00 | 1 | 1013.8 |
| 20260903061904 | 82 | 318 | 3.0 | 8.0 | 0.00 | 0.00 | 0.00 | 1 | 1013.9 |
| 20260903061805 | 82 | 317 | 3.0 | 8.0 | 0.00 | 0.00 | 0.00 | 1 | 1013.8 |
| 20260903061704 | 82 | 315 | 3.0 | 8.0 | 0.00 | 0.00 | 0.00 | 1 | 1013.9 |
| 20260903061604 | 82 | 307 | 3.0 | 7.0 | 0.00 | 0.00 | 0.00 | 1 | 1013.8 |
| 20260903061505 | 82 | 305 | 3.0 | 7.0 | 0.00 | 0.00 | 0.00 | 1 | 1013.8 |
| 20260903061404 | 82 | 309 | 3.0 | 7.0 | 0.00 | 0.00 | 0.00 | 1 | 1013.8 |
| 20260903061304 | 82 | 313 | 3.0 | 7.0 | 0.00 | 0.00 | 0.00 | 1 | 1013.8 |
| 20260903061204 | 82 | 315 | 3.0 | 7.0 | 0.00 | 0.00 | 0.00 | 1 | 1013.9 |
| 20260903061104 | 82 | 319 | 3.0 | 7.0 | 0.00 | 0.00 | 0.00 | 1 | 1013.9 |
| 20260903061004 | 82 | 327 | 3.0 | 7.0 | 0.00 | 0.00 | 0.00 | 1 | 1013.9 |
| 20260903060904 | 82 | 328 | 3.0 | 7.0 | 0.00 | 0.00 | 0.00 | 1 | 1013.8 |
| 20260903060804 | 82 | 330 | 3.0 | 7.0 | 0.00 | 0.00 | 0.00 | 1 | 1013.8 |
| 20260903060704 | 82 | 330 | 3.0 | 7.0 | 0.00 | 0.00 | 0.00 | 1 | 1013.8 |
| 20260903060604 | 82 | 337 | 3.0 | 7.0 | 0.00 | 0.00 | 0.00 | 1 | 1013.8 |
| 20260903060504 | 82 | 342 | 3.0 | 7.0 | 0.00 | 0.00 | 0.00 | 1 | 1013.9 |
| 20260903060425 | 82 | 343 | 3.0 | 7.0 | 0.00 | 0.00 | 0.00 | 1 | 1013.9 |
| 20260903060325 | 82 | 341 | 3.0 | 7.0 | 0.00 | 0.00 | 0.00 | 1 | 1013.9 |
| 20260903060204 | 82 | 341 | 3.0 | 10.0 | 0.00 | 0.00 | 0.00 | 1 | 1013.9 |
| 20260903060104 | 82 | 341 | 3.0 | 10.0 | 0.00 | 0.00 | 0.00 | 1 | 1013.9 |
| 20260903060004 | 82 | 336 | 3.0 | 10.0 | 0.00 | 0.00 | 0.00 | 1 | 1013.9 |
| 20260903055925 | 82 | 333 | 3.0 | 10.0 | 0.00 | 0.00 | 0.00 | 1 | 1013.9 |
| 20260903055825 | 82 | 332 | 3.0 | 10.0 | 0.00 | 0.00 | 0.00 | 1 | 1013.9 |
| 20260903055704 | 82 | 333 | 3.0 | 10.0 | 0.00 | 0.00 | 0.00 | 1 | 1013.9 |
| 20260903055604 | 82 | 333 | 4.0 | 10.0 | 0.00 | 0.00 | 0.00 | 1 | 1013.9 |
| 20260903055504 | 82 | 333 | 4.0 | 10.0 | 0.00 | 0.00 | 0.00 | 1 | 1013.9 |
| 20260903055404 | 82 | 333 | 4.0 | 10.0 | 0.00 | 0.00 | 0.00 | 1 | 1013.9 |
| 20260903055306 | 82 | 337 | 4.0 | 10.0 | 0.00 | 0.00 | 0.00 | 1 | 1013.9 |
| 20260903055204 | 82 | 342 | 4.0 | 9.0 | 0.00 | 0.00 | 0.00 | 1 | 1013.9 |
| 20260903055104 | 82 | 346 | 4.0 | 9.0 | 0.00 | 0.00 | 0.00 | 1 | 1013.8 |
| 20260903055004 | 82 | 346 | 4.0 | 9.0 | 0.00 | 0.00 | 0.00 | 1 | 1013.8 |
| 20260903054904 | 82 | 344 | 4.0 | 9.0 | 0.00 | 0.00 | 0.00 | 1 | 1013.8 |
| 20260903054804 | 82 | 341 | 4.0 | 9.0 | 0.00 | 0.00 | 0.00 | 1 | 1013.8 |
| 20260903054704 | 82 | 345 | 4.0 | 9.0 | 0.00 | 0.00 | 0.00 | 1 | 1013.8 |
| 20260903054625 | 82 | 348 | 4.0 | 9.0 | 0.00 | 0.00 | 0.00 | 1 | 1013.9 |
| 20260903054525 | 82 | 345 | 4.0 | 9.0 | 0.00 | 0.00 | 0.00 | 1 | 1013.8 |
| 20260903054404 | 82 | 342 | 4.0 | 9.0 | 0.00 | 0.00 | 0.00 | 1 | 1013.8 |
| 20260903054304 | 82 | 339 | 5.0 | 14.0 | 0.00 | 0.00 | 0.00 | 1 | 1013.8 |
| 20260903054204 | 82 | 332 | 5.0 | 14.0 | 0.00 | 0.00 | 0.00 | 1 | 1013.8 |
| 20260903054104 | 82 | 326 | 5.0 | 14.0 | 0.00 | 0.00 | 0.00 | 1 | 1013.8 |
| 20260903054004 | 82 | 333 | 5.0 | 14.0 | 0.00 | 0.00 | 0.00 | 1 | 1013.8 |
| 20260903053904 | 82 | 341 | 5.0 | 14.0 | 0.00 | 0.00 | 0.00 | 1 | 1013.8 |
| 20260903053804 | 82 | 349 | 6.0 | 14.0 | 0.00 | 0.00 | 0.00 | 1 | 1013.7 |
| 20260903053704 | 82 | 347 | 6.0 | 14.0 | 0.00 | 0.00 | 0.00 | 1 | 1013.8 |
| 20260903053604 | 82 | 346 | 6.0 | 14.0 | 0.00 | 0.00 | 0.00 | 1 | 1013.8 |
| 20260903053504 | 82 | 347 | 6.0 | 14.0 | 0.00 | 0.00 | 0.00 | 1 | 1013.8 |
| 20260903053404 | 82 | 353 | 6.0 | 14.0 | 0.00 | 0.00 | 0.00 | 1 | 1013.8 |
| 20260903053304 | 82 | 356 | 5.0 | 13.0 | 0.00 | 0.00 | 0.00 | 1 | 1013.7 |
| 20260903053225 | 82 | 357 | 5.0 | 13.0 | 0.00 | 0.00 | 0.00 | 1 | 1013.7 |
| 20260903053104 | 82 | 359 | 5.0 | 13.0 | 0.00 | 0.00 | 0.00 | 1 | 1013.7 |
| 20260903053004 | 82 | 357 | 4.0 | 13.0 | 0.00 | 0.00 | 0.00 | 1 | 1013.7 |
| 20260903052904 | 82 | 349 | 4.0 | 13.0 | 0.00 | 0.00 | 0.00 | 1 | 1013.7 |
| 20260903052825 | 82 | 345 | 4.0 | 13.0 | 0.00 | 0.00 | 0.00 | 1 | 1013.7 |
| 20260903052725 | 82 | 347 | 4.0 | 13.0 | 0.00 | 0.00 | 0.00 | 1 | 1013.7 |
| 20260903052604 | 82 | 346 | 4.0 | 10.0 | 0.00 | 0.00 | 0.00 | 1 | 1013.7 |
| 20260903052504 | 82 | 342 | 4.0 | 10.0 | 0.00 | 0.00 | 0.00 | 1 | 1013.6 |
| 20260903052404 | 82 | 338 | 4.0 | 10.0 | 0.00 | 0.00 | 0.00 | 1 | 1013.7 |
| 20260903052307 | 82 | 334 | 4.0 | 10.0 | 0.00 | 0.00 | 0.00 | 1 | 1013.7 |
| 20260903052204 | 82 | 331 | 4.0 | 10.0 | 0.00 | 0.00 | 0.00 | 1 | 1013.7 |
| 20260903052104 | 82 | 332 | 4.0 | 10.0 | 0.00 | 0.00 | 0.00 | 1 | 1013.7 |
| 20260903052004 | 82 | 331 | 4.0 | 10.0 | 0.00 | 0.00 | 0.00 | 1 | 1013.7 |
| 20260903051925 | 82 | 332 | 4.0 | 10.0 | 0.00 | 0.00 | 0.00 | 1 | 1013.7 |
| 20260903051825 | 82 | 336 | 3.0 | 10.0 | 0.00 | 0.00 | 0.00 | 1 | 1013.7 |
| 20260903051704 | 82 | 328 | 3.0 | 7.0 | 0.00 | 0.00 | 0.00 | 1 | 1013.7 |
| 20260903051604 | 82 | 330 | 3.0 | 7.0 | 0.00 | 0.00 | 0.00 | 1 | 1013.6 |
| 20260903051525 | 82 | 329 | 3.0 | 7.0 | 0.00 | 0.00 | 0.00 | 1 | 1013.8 |
| 20260903051425 | 82 | 322 | 3.0 | 7.0 | 0.00 | 0.00 | 0.00 | 1 | 1013.7 |
| 20260903051304 | 82 | 318 | 4.0 | 7.0 | 0.00 | 0.00 | 0.00 | 1 | 1013.8 |
| 20260903051204 | 82 | 320 | 3.0 | 7.0 | 0.00 | 0.00 | 0.00 | 1 | 1013.8 |
| 20260903051104 | 82 | 318 | 3.0 | 7.0 | 0.00 | 0.00 | 0.00 | 1 | 1013.8 |
| 20260903051025 | 82 | 317 | 3.0 | 7.0 | 0.00 | 0.00 | 0.00 | 1 | 1013.8 |
| 20260903050904 | 82 | 315 | 3.0 | 7.0 | 0.00 | 0.00 | 0.00 | 1 | 1013.8 |
| 20260903050804 | 82 | 314 | 3.0 | 7.0 | 0.00 | 0.00 | 0.00 | 1 | 1013.7 |
| 20260903050704 | 82 | 313 | 3.0 | 7.0 | 0.00 | 0.00 | 0.00 | 1 | 1013.8 |
| 20260903050604 | 82 | 310 | 3.0 | 7.0 | 0.00 | 0.00 | 0.00 | 1 | 1013.8 |
| 20260903050504 | 82 | 313 | 3.0 | 7.0 | 0.00 | 0.00 | 0.00 | 1 | 1013.8 |
| 20260903050425 | 82 | 315 | 3.0 | 8.0 | 0.00 | 0.00 | 0.00 | 1 | 1013.8 |
| 20260903050304 | 82 | 319 | 3.0 | 8.0 | 0.00 | 0.00 | 0.00 | 1 | 1013.8 |
| 20260903050204 | 82 | 321 | 3.0 | 8.0 | 0.00 | 0.00 | 0.00 | 1 | 1013.7 |
| 20260903050104 | 82 | 319 | 4.0 | 8.0 | 0.00 | 0.00 | 0.00 | 1 | 1013.7 |
| 20260903050004 | 82 | 320 | 4.0 | 8.0 | 0.00 | 0.00 | 0.00 | 1 | 1013.7 |
| 20260903045904 | 82 | 325 | 4.0 | 8.0 | 0.00 | 0.00 | 0.00 | 1 | 1013.7 |
| 20260903045825 | 82 | 329 | 4.0 | 8.0 | 0.00 | 0.00 | 0.00 | 1 | 1013.7 |
| 20260903045704 | 82 | 334 | 4.0 | 8.0 | 0.00 | 0.00 | 0.00 | 1 | 1013.6 |
| 20260903045604 | 82 | 332 | 4.0 | 8.0 | 0.00 | 0.00 | 0.00 | 1 | 1013.7 |
| 20260903045504 | 82 | 329 | 4.0 | 8.0 | 0.00 | 0.00 | 0.00 | 1 | 1013.6 |
| 20260903045404 | 82 | 327 | 4.0 | 8.0 | 0.00 | 0.00 | 0.00 | 1 | 1013.7 |
| 20260903045306 | 82 | 332 | 4.0 | 9.0 | 0.00 | 0.00 | 0.00 | 1 | 1013.8 |
| 20260903045204 | 82 | 331 | 4.0 | 9.0 | 0.00 | 0.00 | 0.00 | 1 | 1013.7 |
| 20260903045125 | 81 | 334 | 4.0 | 9.0 | 0.00 | 0.00 | 0.00 | 1 | 1013.7 |
| 20260903045004 | 81 | 340 | 4.0 | 11.0 | 0.00 | 0.00 | 0.00 | 1 | 1013.7 |
| 20260903044904 | 81 | 336 | 4.0 | 11.0 | 0.00 | 0.00 | 0.00 | 1 | 1013.6 |
| 20260903044804 | 81 | 332 | 4.0 | 11.0 | 0.00 | 0.00 | 0.00 | 1 | 1013.7 |
| 20260903044704 | 81 | 329 | 4.0 | 11.0 | 0.00 | 0.00 | 0.00 | 1 | 1013.7 |
| 20260903044604 | 81 | 329 | 4.0 | 11.0 | 0.00 | 0.00 | 0.00 | 1 | 1013.6 |
| 20260903044504 | 81 | 330 | 4.0 | 11.0 | 0.00 | 0.00 | 0.00 | 1 | 1013.6 |
| 20260903044404 | 81 | 329 | 4.0 | 11.0 | 0.00 | 0.00 | 0.00 | 1 | 1013.6 |
| 20260903044304 | 81 | 322 | 3.0 | 11.0 | 0.00 | 0.00 | 0.00 | 1 | 1013.6 |
| 20260903044204 | 81 | 316 | 3.0 | 11.0 | 0.00 | 0.00 | 0.00 | 1 | 1013.6 |
| 20260903044104 | 81 | 300 | 3.0 | 10.0 | 0.00 | 0.00 | 0.00 | 1 | 1013.6 |
| 20260903044025 | 81 | 294 | 3.0 | 8.0 | 0.00 | 0.00 | 0.00 | 1 | 1013.6 |
| 20260903043925 | 81 | 284 | 3.0 | 8.0 | 0.00 | 0.00 | 0.00 | 1 | 1013.6 |
| 20260903043804 | 81 | 275 | 3.0 | 8.0 | 0.00 | 0.00 | 0.00 | 1 | 1013.6 |
| 20260903043704 | 81 | 269 | 3.0 | 8.0 | 0.00 | 0.00 | 0.00 | 1 | 1013.6 |
| 20260903043604 | 81 | 261 | 2.0 | 6.0 | 0.00 | 0.00 | 0.00 | 1 | 1013.6 |
| 20260903043504 | 81 | 260 | 2.0 | 6.0 | 0.00 | 0.00 | 0.00 | 1 | 1013.6 |
| 20260903043404 | 81 | 258 | 2.0 | 6.0 | 0.00 | 0.00 | 0.00 | 1 | 1013.6 |
| 20260903043304 | 81 | 255 | 2.0 | 6.0 | 0.00 | 0.00 | 0.00 | 1 | 1013.6 |
| 20260903043204 | 81 | 253 | 2.0 | 6.0 | 0.00 | 0.00 | 0.00 | 1 | 1013.5 |
| 20260903043104 | 81 | 249 | 2.0 | 6.0 | 0.00 | 0.00 | 0.00 | 1 | 1013.5 |
| 20260903043004 | 81 | 248 | 2.0 | 4.0 | 0.00 | 0.00 | 0.00 | 1 | 1013.5 |
| 20260903042904 | 81 | 248 | 2.0 | 4.0 | 0.00 | 0.00 | 0.00 | 1 | 1013.6 |
| 20260903042804 | 81 | 248 | 2.0 | 4.0 | 0.00 | 0.00 | 0.00 | 1 | 1013.5 |
| 20260903042704 | 81 | 248 | 2.0 | 4.0 | 0.00 | 0.00 | 0.00 | 1 | 1013.5 |
| 20260903042625 | 81 | 248 | 2.0 | 4.0 | 0.00 | 0.00 | 0.00 | 1 | 1013.5 |
| 20260903042504 | 81 | 248 | 2.0 | 4.0 | 0.00 | 0.00 | 0.00 | 1 | 1013.5 |
| 20260903042404 | 81 | 248 | 2.0 | 4.0 | 0.00 | 0.00 | 0.00 | 1 | 1013.5 |
| 20260903042306 | 81 | 248 | 2.0 | 4.0 | 0.00 | 0.00 | 0.00 | 1 | 1013.5 |
| 20260903042204 | 81 | 248 | 2.0 | 4.0 | 0.00 | 0.00 | 0.00 | 1 | 1013.6 |
| 20260903042104 | 81 | 248 | 2.0 | 4.0 | 0.00 | 0.00 | 0.00 | 1 | 1013.6 |
| 20260903042025 | 81 | 248 | 2.0 | 4.0 | 0.00 | 0.00 | 0.00 | 1 | 1013.6 |
| 20260903041904 | 81 | 248 | 1.0 | 3.0 | 0.00 | 0.00 | 0.00 | 1 | 1013.6 |
| 20260903041804 | 81 | 248 | 1.0 | 3.0 | 0.00 | 0.00 | 0.00 | 1 | 1013.7 |
| 20260903041725 | 81 | 248 | 1.0 | 3.0 | 0.00 | 0.00 | 0.00 | 1 | 1013.6 |
| 20260903041604 | 81 | 248 | 1.0 | 3.0 | 0.00 | 0.00 | 0.00 | 1 | 1013.7 |
| 20260903041504 | 81 | 248 | 1.0 | 3.0 | 0.00 | 0.00 | 0.00 | 1 | 1013.7 |
| 20260903041404 | 81 | 248 | 1.0 | 3.0 | 0.00 | 0.00 | 0.00 | 1 | 1013.7 |
| 20260903041304 | 81 | 248 | 1.0 | 3.0 | 0.00 | 0.00 | 0.00 | 1 | 1013.7 |
| 20260903041204 | 81 | 248 | 2.0 | 5.0 | 0.00 | 0.00 | 0.00 | 1 | 1013.7 |
| 20260903041104 | 81 | 248 | 2.0 | 5.0 | 0.00 | 0.00 | 0.00 | 1 | 1013.7 |
| 20260903041025 | 81 | 248 | 2.0 | 5.0 | 0.00 | 0.00 | 0.00 | 1 | 1013.6 |
| 20260903040925 | 81 | 248 | 2.0 | 5.0 | 0.00 | 0.00 | 0.00 | 1 | 1013.6 |
| 20260903040804 | 81 | 248 | 2.0 | 5.0 | 0.00 | 0.00 | 0.00 | 1 | 1013.7 |
| 20260903040704 | 81 | 248 | 2.0 | 5.0 | 0.00 | 0.00 | 0.00 | 1 | 1013.6 |
| 20260903040604 | 81 | 248 | 2.0 | 5.0 | 0.00 | 0.00 | 0.00 | 1 | 1013.6 |
| 20260903040504 | 81 | 248 | 2.0 | 5.0 | 0.00 | 0.00 | 0.00 | 1 | 1013.5 |
| 20260903040404 | 81 | 248 | 2.0 | 5.0 | 0.00 | 0.00 | 0.00 | 1 | 1013.6 |
| 20260903040304 | 81 | 248 | 2.0 | 5.0 | 0.00 | 0.00 | 0.00 | 1 | 1013.6 |
| 20260903040204 | 81 | 248 | 2.0 | 5.0 | 0.00 | 0.00 | 0.00 | 1 | 1013.6 |
| 20260903040104 | 81 | 248 | 2.0 | 4.0 | 0.00 | 0.00 | 0.00 | 1 | 1013.6 |
| 20260903040004 | 81 | 248 | 2.0 | 5.0 | 0.00 | 0.00 | 0.00 | 1 | 1013.5 |
| 20260903035904 | 81 | 247 | 2.0 | 5.0 | 0.00 | 0.00 | 0.00 | 1 | 1013.6 |
| 20260903035825 | 81 | 246 | 2.0 | 7.0 | 0.00 | 0.00 | 0.00 | 1 | 1013.6 |
| 20260903035725 | 81 | 247 | 2.0 | 7.0 | 0.00 | 0.00 | 0.00 | 1 | 1013.6 |
| 20260903035604 | 81 | 248 | 2.0 | 7.0 | 0.00 | 0.00 | 0.00 | 1 | 1013.6 |
| 20260903035504 | 81 | 249 | 3.0 | 7.0 | 0.00 | 0.00 | 0.00 | 1 | 1013.6 |
| 20260903035404 | 81 | 251 | 3.0 | 7.0 | 0.00 | 0.00 | 0.00 | 1 | 1013.5 |
| 20260903035306 | 81 | 252 | 3.0 | 7.0 | 0.00 | 0.00 | 0.00 | 1 | 1013.6 |
| 20260903035204 | 81 | 253 | 3.0 | 7.0 | 0.00 | 0.00 | 0.00 | 1 | 1013.6 |
| 20260903035125 | 81 | 254 | 3.0 | 7.0 | 0.00 | 0.00 | 0.00 | 1 | 1013.6 |
| 20260903035004 | 81 | 255 | 3.0 | 7.0 | 0.00 | 0.00 | 0.00 | 1 | 1013.6 |
| 20260903034904 | 81 | 255 | 3.0 | 7.0 | 0.00 | 0.00 | 0.00 | 1 | 1013.6 |
| 20260903034804 | 81 | 257 | 3.0 | 6.0 | 0.00 | 0.00 | 0.00 | 1 | 1013.6 |
| 20260903034725 | 81 | 256 | 3.0 | 6.0 | 0.00 | 0.00 | 0.00 | 1 | 1013.6 |
| 20260903034625 | 81 | 256 | 3.0 | 6.0 | 0.00 | 0.00 | 0.00 | 1 | 1013.6 |
| 20260903034504 | 81 | 255 | 3.0 | 6.0 | 0.00 | 0.00 | 0.00 | 1 | 1013.6 |
| 20260903034404 | 82 | 254 | 3.0 | 6.0 | 0.00 | 0.00 | 0.00 | 1 | 1013.7 |
| 20260903034304 | 82 | 256 | 2.0 | 6.0 | 0.00 | 0.00 | 0.00 | 1 | 1013.7 |
| 20260903034225 | 82 | 258 | 2.0 | 6.0 | 0.00 | 0.00 | 0.00 | 1 | 1013.7 |
| 20260903034104 | 82 | 262 | 2.0 | 6.0 | 0.00 | 0.00 | 0.00 | 1 | 1013.7 |
| 20260903034004 | 82 | 267 | 3.0 | 6.0 | 0.00 | 0.00 | 0.00 | 1 | 1013.7 |
| 20260903033925 | 82 | 266 | 3.0 | 10.0 | 0.00 | 0.00 | 0.00 | 1 | 1013.7 |
| 20260903033804 | 82 | 266 | 3.0 | 10.0 | 0.00 | 0.00 | 0.00 | 1 | 1013.6 |
| 20260903033704 | 82 | 267 | 3.0 | 10.0 | 0.00 | 0.00 | 0.00 | 1 | 1013.7 |
| 20260903033604 | 82 | 270 | 3.0 | 10.0 | 0.00 | 0.00 | 0.00 | 1 | 1013.6 |
| 20260903033504 | 82 | 270 | 4.0 | 10.0 | 0.00 | 0.00 | 0.00 | 1 | 1013.7 |
| 20260903033404 | 82 | 272 | 4.0 | 10.0 | 0.00 | 0.00 | 0.00 | 1 | 1013.7 |
| 20260903033304 | 82 | 273 | 4.0 | 10.0 | 0.00 | 0.00 | 0.00 | 1 | 1013.7 |
| 20260903033204 | 82 | 270 | 4.0 | 10.0 | 0.00 | 0.00 | 0.00 | 1 | 1013.7 |
| 20260903033104 | 82 | 267 | 5.0 | 10.0 | 0.00 | 0.00 | 0.00 | 1 | 1013.7 |
| 20260903033004 | 82 | 265 | 4.0 | 10.0 | 0.00 | 0.00 | 0.00 | 1 | 1013.8 |
| 20260903032904 | 82 | 266 | 4.0 | 11.0 | 0.00 | 0.00 | 0.00 | 1 | 1013.8 |
| 20260903032804 | 82 | 267 | 4.0 | 11.0 | 0.00 | 0.00 | 0.00 | 1 | 1013.8 |
| 20260903032725 | 82 | 267 | 4.0 | 11.0 | 0.00 | 0.00 | 0.00 | 1 | 1013.8 |
| 20260903032604 | 82 | 263 | 5.0 | 11.0 | 0.00 | 0.00 | 0.00 | 1 | 1013.8 |
| 20260903032504 | 83 | 263 | 5.0 | 11.0 | 0.00 | 0.00 | 0.00 | 1 | 1013.8 |
| 20260903032404 | 83 | 262 | 5.0 | 11.0 | 0.00 | 0.00 | 0.00 | 1 | 1013.9 |
| 20260903032325 | 83 | 260 | 5.0 | 11.0 | 0.00 | 0.00 | 0.00 | 1 | 1013.9 |
| 20260903032204 | 83 | 258 | 5.0 | 11.0 | 0.00 | 0.00 | 0.00 | 1 | 1013.8 |
| 20260903032104 | 83 | 261 | 5.0 | 11.0 | 0.00 | 0.00 | 0.00 | 1 | 1013.9 |
| 20260903032004 | 83 | 263 | 5.0 | 11.0 | 0.00 | 0.00 | 0.00 | 1 | 1013.8 |
| 20260903031904 | 83 | 264 | 6.0 | 14.0 | 0.00 | 0.00 | 0.00 | 1 | 1013.8 |
| 20260903031804 | 83 | 263 | 6.0 | 14.0 | 0.00 | 0.00 | 0.00 | 1 | 1013.9 |
| 20260903031704 | 83 | 265 | 6.0 | 14.0 | 0.00 | 0.00 | 0.00 | 1 | 1013.9 |
| 20260903031604 | 84 | 265 | 6.0 | 14.0 | 0.00 | 0.00 | 0.00 | 1 | 1013.9 |
| 20260903031504 | 84 | 266 | 5.0 | 14.0 | 0.00 | 0.00 | 0.00 | 1 | 1013.9 |
| 20260903031404 | 84 | 267 | 6.0 | 14.0 | 0.00 | 0.00 | 0.00 | 1 | 1013.9 |
| 20260903031304 | 84 | 267 | 6.0 | 14.0 | 0.00 | 0.00 | 0.00 | 1 | 1013.8 |
| 20260903031225 | 84 | 268 | 6.0 | 14.0 | 0.00 | 0.00 | 0.00 | 1 | 1013.8 |
| 20260903031125 | 84 | 266 | 5.0 | 14.0 | 0.00 | 0.00 | 0.00 | 22 | 1013.8 |
| 20260903031004 | 84 | 262 | 5.0 | 14.0 | 0.00 | 0.00 | 0.00 | 22 | 1013.7 |
| 20260903030904 | 85 | 258 | 5.0 | 14.0 | 0.00 | 0.00 | 0.00 | 22 | 1013.6 |
| 20260903030804 | 85 | 259 | 4.0 | 12.0 | 0.00 | 0.00 | 0.00 | 26 | 1013.6 |
| 20260903030704 | 85 | 260 | 4.0 | 12.0 | 0.00 | 0.00 | 0.00 | 30 | 1013.6 |
| 20260903030604 | 85 | 261 | 4.0 | 12.0 | 0.00 | 0.00 | 0.00 | 31 | 1013.5 |
| 20260903030504 | 85 | 262 | 4.0 | 12.0 | 0.00 | 0.00 | 0.00 | 34 | 1013.5 |
| 20260903030425 | 85 | 260 | 4.0 | 12.0 | 0.00 | 0.00 | 0.00 | 34 | 1013.6 |
| 20260903030325 | 85 | 259 | 4.0 | 12.0 | 0.00 | 0.00 | 0.00 | 35 | 1013.5 |
| 20260903030225 | 86 | 258 | 4.0 | 12.0 | 0.00 | 0.00 | 0.00 | 36 | 1013.4 |
| 20260903030104 | 86 | 259 | 4.0 | 12.0 | 0.00 | 0.00 | 0.00 | 37 | 1013.4 |
| 20260903030004 | 86 | 260 | 4.0 | 12.0 | 0.00 | 0.00 | 0.00 | 37 | 1013.3 |
| 20260903025904 | 86 | 261 | 3.0 | 7.0 | 0.00 | 0.00 | 0.00 | 38 | 1013.3 |
| 20260903025804 | 86 | 259 | 3.0 | 7.0 | 0.00 | 0.00 | 0.00 | 38 | 1013.3 |
| 20260903025704 | 86 | 255 | 3.0 | 6.0 | 0.00 | 0.00 | 0.00 | 38 | 1013.2 |
| 20260903025604 | 86 | 252 | 3.0 | 6.0 | 0.00 | 0.00 | 0.00 | 39 | 1013.2 |
| 20260903025525 | 86 | 250 | 3.0 | 6.0 | 0.00 | 0.00 | 0.00 | 39 | 1013.1 |
| 20260903025404 | 86 | 248 | 2.0 | 6.0 | 0.00 | 0.00 | 0.00 | 39 | 1013.0 |
| 20260903025325 | 86 | 248 | 2.0 | 6.0 | 0.00 | 0.00 | 0.00 | 39 | 1013.1 |
| 20260903025204 | 86 | 247 | 2.0 | 5.0 | 0.00 | 0.00 | 0.00 | 40 | 1013.0 |
| 20260903025104 | 86 | 247 | 2.0 | 5.0 | 0.00 | 0.00 | 0.00 | 40 | 1013.0 |
| 20260903025004 | 86 | 247 | 2.0 | 4.0 | 0.00 | 0.00 | 0.00 | 40 | 1013.0 |
| 20260903024925 | 86 | 248 | 2.0 | 6.0 | 0.00 | 0.00 | 0.00 | 40 | 1012.9 |
| 20260903024804 | 86 | 249 | 2.0 | 6.0 | 0.00 | 0.00 | 0.00 | 40 | 1012.8 |
| 20260903024704 | 86 | 250 | 2.0 | 6.0 | 0.00 | 0.00 | 0.00 | 41 | 1012.8 |
| 20260903024604 | 86 | 251 | 2.0 | 6.0 | 0.00 | 0.00 | 0.00 | 41 | 1012.7 |
| 20260903024525 | 86 | 251 | 2.0 | 6.0 | 0.00 | 0.00 | 0.00 | 41 | 1012.7 |
| 20260903024404 | 86 | 251 | 2.0 | 6.0 | 0.00 | 0.00 | 0.00 | 41 | 1012.8 |
| 20260903024304 | 86 | 252 | 3.0 | 6.0 | 0.00 | 0.00 | 0.00 | 41 | 1012.8 |
| 20260903024204 | 86 | 257 | 3.0 | 6.0 | 0.00 | 0.00 | 0.00 | 41 | 1012.8 |
| 20260903024104 | 87 | 257 | 3.0 | 6.0 | 0.00 | 0.00 | 0.00 | 41 | 1012.8 |
| 20260903024004 | 87 | 257 | 3.0 | 6.0 | 0.00 | 0.00 | 0.00 | 41 | 1012.7 |
| 20260903023925 | 87 | 257 | 3.0 | 11.0 | 0.00 | 0.00 | 0.00 | 42 | 1012.7 |
| 20260903023804 | 87 | 257 | 3.0 | 11.0 | 0.00 | 0.00 | 0.00 | 42 | 1012.7 |
| 20260903023704 | 87 | 257 | 3.0 | 11.0 | 0.00 | 0.00 | 0.00 | 42 | 1012.7 |
| 20260903023606 | 87 | 257 | 3.0 | 11.0 | 0.00 | 0.00 | 0.00 | 42 | 1012.6 |
| 20260903023504 | 87 | 256 | 4.0 | 11.0 | 0.00 | 0.00 | 0.00 | 42 | 1012.5 |
| 20260903023404 | 87 | 256 | 4.0 | 11.0 | 0.00 | 0.00 | 0.00 | 42 | 1012.5 |
| 20260903023304 | 87 | 257 | 4.0 | 11.0 | 0.00 | 0.00 | 0.00 | 42 | 1012.5 |
| 20260903023225 | 87 | 258 | 4.0 | 11.0 | 0.00 | 0.00 | 0.00 | 42 | 1012.6 |
| 20260903023104 | 87 | 260 | 4.0 | 11.0 | 0.00 | 0.00 | 0.00 | 42 | 1012.6 |
| 20260903023004 | 87 | 262 | 3.0 | 11.0 | 0.00 | 0.00 | 0.00 | 42 | 1012.7 |
| 20260903022904 | 87 | 271 | 3.0 | 10.0 | 0.00 | 0.00 | 0.00 | 42 | 1012.8 |
| 20260903022804 | 87 | 273 | 3.0 | 7.0 | 0.00 | 0.00 | 0.00 | 42 | 1012.8 |
| 20260903022704 | 87 | 270 | 3.0 | 7.0 | 0.00 | 0.00 | 0.00 | 42 | 1012.6 |
| 20260903022604 | 88 | 266 | 3.0 | 8.0 | 0.00 | 0.00 | 0.00 | 42 | 1012.5 |
| 20260903022504 | 88 | 259 | 3.0 | 8.0 | 0.00 | 0.00 | 0.00 | 42 | 1012.5 |
| 20260903022404 | 88 | 256 | 3.0 | 8.0 | 0.00 | 0.00 | 0.00 | 42 | 1012.4 |
| 20260903022325 | 88 | 254 | 3.0 | 8.0 | 0.00 | 0.00 | 0.00 | 42 | 1012.3 |
| 20260903022225 | 87 | 248 | 3.0 | 8.0 | 0.00 | 0.00 | 0.00 | 42 | 1012.3 |
| 20260903022104 | 87 | 241 | 3.0 | 8.0 | 0.00 | 0.00 | 0.00 | 42 | 1012.2 |
| 20260903022004 | 87 | 239 | 2.0 | 8.0 | 0.00 | 0.00 | 0.00 | 42 | 1012.2 |
| 20260903021925 | 87 | 233 | 2.0 | 8.0 | 0.00 | 0.00 | 0.00 | 43 | 1012.3 |
| 20260903021825 | 87 | 226 | 2.0 | 8.0 | 0.00 | 0.00 | 0.00 | 43 | 1012.3 |
| 20260903021725 | 87 | 225 | 1.0 | 8.0 | 0.00 | 0.00 | 0.00 | 43 | 1012.3 |
| 20260903021625 | 87 | 223 | 1.0 | 6.0 | 0.00 | 0.00 | 0.00 | 42 | 1012.3 |
| 20260903021504 | 87 | 239 | 0.0 | 5.0 | 0.00 | 0.00 | 0.00 | 43 | 1012.4 |
| 20260903021404 | 87 | 241 | 0.0 | 3.0 | 0.00 | 0.00 | 0.00 | 43 | 1012.2 |
| 20260903021304 | 87 | 242 | 0.0 | 1.0 | 0.00 | 0.00 | 0.00 | 43 | 1012.1 |
| 20260903021204 | 87 | 242 | 0.0 | 1.0 | 0.00 | 0.00 | 0.00 | 43 | 1012.0 |
| 20260903021104 | 88 | 242 | 0.0 | 1.0 | 0.00 | 0.00 | 0.00 | 43 | 1011.9 |
| 20260903021025 | 88 | 242 | 0.0 | 1.0 | 0.00 | 0.00 | 0.00 | 43 | 1011.9 |
| 20260903020904 | 88 | 242 | 0.0 | 1.0 | 0.00 | 0.00 | 0.00 | 43 | 1011.8 |
| 20260903020804 | 88 | 242 | 0.0 | 1.0 | 0.00 | 0.00 | 0.00 | 43 | 1011.7 |
| 20260903020704 | 88 | 242 | 0.0 | 1.0 | 0.00 | 0.00 | 0.00 | 43 | 1011.8 |
| 20260903020604 | 88 | 242 | 0.0 | 1.0 | 0.00 | 0.00 | 0.00 | 43 | 1011.8 |
| 20260903020504 | 88 | 242 | 0.0 | 1.0 | 0.00 | 0.00 | 0.00 | 43 | 1011.7 |
| 20260903020404 | 88 | 242 | 0.0 | 1.0 | 0.00 | 0.00 | 0.00 | 43 | 1011.7 |
| 20260903020325 | 88 | 242 | 0.0 | 1.0 | 0.00 | 0.00 | 0.00 | 43 | 1011.7 |
| 20260903020204 | 88 | 242 | 0.0 | 1.0 | 0.00 | 0.00 | 0.00 | 43 | 1011.7 |
| 20260903020104 | 88 | 242 | 0.0 | 1.0 | 0.00 | 0.00 | 0.00 | 43 | 1011.6 |
| 20260903020004 | 88 | 242 | 0.0 | 1.0 | 0.00 | 0.00 | 0.00 | 43 | 1011.7 |
| 20260903015904 | 88 | 242 | 0.0 | 1.0 | 0.00 | 0.00 | 0.00 | 43 | 1011.6 |
| 20260903015804 | 88 | 242 | 0.0 | 1.0 | 0.00 | 0.00 | 0.00 | 43 | 1011.6 |
| 20260903015704 | 88 | 242 | 0.0 | 1.0 | 0.00 | 0.00 | 0.00 | 43 | 1011.6 |
| 20260903015604 | 88 | 242 | 0.0 | 1.0 | 0.00 | 0.00 | 0.00 | 43 | 1011.6 |
| 20260903015504 | 88 | 242 | 0.0 | 1.0 | 0.00 | 0.00 | 0.00 | 43 | 1011.5 |
| 20260903015404 | 88 | 242 | 0.0 | 1.0 | 0.00 | 0.00 | 0.00 | 43 | 1011.5 |
| 20260903015325 | 88 | 242 | 0.0 | 1.0 | 0.00 | 0.00 | 0.00 | 43 | 1011.5 |
| 20260903015204 | 88 | 242 | 0.0 | 1.0 | 0.00 | 0.00 | 0.00 | 43 | 1011.5 |
| 20260903015104 | 88 | 242 | 0.0 | 1.0 | 0.00 | 0.00 | 0.00 | 43 | 1011.4 |
| 20260903015025 | 88 | 242 | 0.0 | 1.0 | 0.00 | 0.00 | 0.00 | 43 | 1011.5 |
| 20260903014904 | 88 | 242 | 0.0 | 1.0 | 0.00 | 0.00 | 0.00 | 43 | 1011.5 |
| 20260903014804 | 88 | 242 | 0.0 | 1.0 | 0.00 | 0.00 | 0.00 | 43 | 1011.5 |
| 20260903014704 | 88 | 242 | 0.0 | 1.0 | 0.00 | 0.00 | 0.00 | 43 | 1011.4 |
| 20260903014604 | 88 | 242 | 0.0 | 2.0 | 0.00 | 0.00 | 0.00 | 43 | 1011.4 |
| 20260903014504 | 88 | 242 | 0.0 | 3.0 | 0.00 | 0.00 | 0.00 | 43 | 1011.4 |
| 20260903014404 | 88 | 242 | 1.0 | 3.0 | 0.00 | 0.00 | 0.00 | 43 | 1011.4 |
| 20260903014304 | 88 | 242 | 1.0 | 3.0 | 0.00 | 0.00 | 0.00 | 43 | 1011.5 |
| 20260903014204 | 88 | 242 | 1.0 | 3.0 | 0.00 | 0.00 | 0.00 | 43 | 1011.4 |
| 20260903014104 | 88 | 242 | 1.0 | 3.0 | 0.00 | 0.00 | 0.00 | 43 | 1011.4 |
| 20260903014004 | 88 | 242 | 1.0 | 3.0 | 0.00 | 0.00 | 0.00 | 43 | 1011.4 |
| 20260903013904 | 88 | 242 | 1.0 | 3.0 | 0.00 | 0.00 | 0.00 | 43 | 1011.4 |
| 20260903013804 | 88 | 242 | 1.0 | 4.0 | 0.00 | 0.00 | 0.00 | 43 | 1011.4 |
| 20260903013704 | 88 | 242 | 1.0 | 4.0 | 0.00 | 0.00 | 0.00 | 43 | 1011.3 |
| 20260903013604 | 88 | 243 | 1.0 | 4.0 | 0.00 | 0.00 | 0.00 | 44 | 1011.3 |
| 20260903013504 | 88 | 243 | 1.0 | 4.0 | 0.00 | 0.00 | 0.00 | 44 | 1011.3 |
| 20260903013404 | 88 | 243 | 1.0 | 4.0 | 0.00 | 0.00 | 0.00 | 44 | 1011.3 |
| 20260903013304 | 88 | 243 | 1.0 | 4.0 | 0.00 | 0.00 | 0.00 | 44 | 1011.3 |
| 20260903013204 | 88 | 243 | 2.0 | 4.0 | 0.00 | 0.00 | 0.00 | 44 | 1011.3 |
| 20260903013104 | 88 | 243 | 2.0 | 4.0 | 0.00 | 0.00 | 0.00 | 44 | 1011.4 |
| 20260903013004 | 88 | 243 | 2.0 | 4.0 | 0.00 | 0.00 | 0.00 | 44 | 1011.3 |
| 20260903012904 | 88 | 244 | 2.0 | 4.0 | 0.00 | 0.00 | 0.00 | 44 | 1011.4 |
| 20260903012825 | 88 | 244 | 2.0 | 4.0 | 0.00 | 0.00 | 0.00 | 44 | 1011.4 |
| 20260903012704 | 88 | 244 | 2.0 | 4.0 | 0.00 | 0.00 | 0.00 | 44 | 1011.4 |
| 20260903012604 | 88 | 244 | 2.0 | 4.0 | 0.00 | 0.00 | 0.00 | 44 | 1011.4 |
| 20260903012525 | 88 | 244 | 2.0 | 4.0 | 0.00 | 0.00 | 0.00 | 44 | 1011.4 |
| 20260903012404 | 88 | 244 | 2.0 | 5.0 | 0.00 | 0.00 | 0.00 | 44 | 1011.4 |
| 20260903012306 | 88 | 245 | 2.0 | 5.0 | 0.00 | 0.00 | 0.00 | 44 | 1011.4 |
| 20260903012204 | 89 | 245 | 2.0 | 5.0 | 0.00 | 0.00 | 0.00 | 44 | 1011.4 |
| 20260903012104 | 89 | 245 | 2.0 | 6.0 | 0.00 | 0.00 | 0.00 | 44 | 1011.4 |
| 20260903012025 | 89 | 245 | 2.0 | 6.0 | 0.00 | 0.00 | 0.00 | 44 | 1011.4 |
| 20260903011904 | 89 | 245 | 2.0 | 6.0 | 0.00 | 0.00 | 0.00 | 44 | 1011.5 |
| 20260903011804 | 89 | 245 | 2.0 | 6.0 | 0.00 | 0.00 | 0.00 | 44 | 1011.5 |
| 20260903011704 | 89 | 245 | 2.0 | 6.0 | 0.00 | 0.00 | 0.00 | 44 | 1011.4 |
| 20260903011604 | 89 | 245 | 2.0 | 6.0 | 0.00 | 0.00 | 0.00 | 44 | 1011.5 |
| 20260903011525 | 89 | 245 | 2.0 | 6.0 | 0.00 | 0.00 | 0.00 | 44 | 1011.4 |
| 20260903011404 | 89 | 245 | 2.0 | 6.0 | 0.00 | 0.00 | 0.00 | 44 | 1011.4 |
| 20260903011325 | 89 | 245 | 3.0 | 6.0 | 0.00 | 0.00 | 0.00 | 44 | 1011.4 |
| 20260903011204 | 89 | 245 | 2.0 | 6.0 | 0.00 | 0.00 | 0.00 | 44 | 1011.5 |
| 20260903011104 | 89 | 245 | 2.0 | 5.0 | 0.00 | 0.00 | 0.00 | 44 | 1011.5 |
| 20260903011004 | 89 | 246 | 2.0 | 5.0 | 0.00 | 0.00 | 0.00 | 44 | 1011.5 |
| 20260903010904 | 89 | 246 | 2.0 | 5.0 | 0.00 | 0.00 | 0.00 | 44 | 1011.5 |
| 20260903010804 | 89 | 246 | 2.0 | 5.0 | 0.00 | 0.00 | 0.00 | 44 | 1011.5 |
| 20260903010704 | 89 | 247 | 2.0 | 5.0 | 0.00 | 0.00 | 0.00 | 44 | 1011.5 |
| 20260903010625 | 89 | 247 | 2.0 | 5.0 | 0.00 | 0.00 | 0.00 | 44 | 1011.5 |
| 20260903010504 | 89 | 248 | 2.0 | 5.0 | 0.00 | 0.00 | 0.00 | 44 | 1011.4 |
| 20260903010404 | 90 | 248 | 2.0 | 5.0 | 0.00 | 0.00 | 0.00 | 44 | 1011.5 |
| 20260903010304 | 90 | 249 | 2.0 | 5.0 | 0.00 | 0.00 | 0.00 | 44 | 1011.5 |
| 20260903010225 | 90 | 249 | 2.0 | 4.0 | 0.00 | 0.00 | 0.00 | 44 | 1011.5 |
| 20260903010104 | 90 | 250 | 2.0 | 6.0 | 0.00 | 0.00 | 0.00 | 43 | 1011.5 |
| 20260903010004 | 90 | 250 | 2.0 | 6.0 | 0.00 | 0.00 | 0.00 | 43 | 1011.5 |
| 20260903005904 | 90 | 251 | 3.0 | 6.0 | 0.00 | 0.00 | 0.00 | 43 | 1011.5 |
| 20260903005804 | 90 | 251 | 2.0 | 6.0 | 0.00 | 0.00 | 0.00 | 43 | 1011.6 |
| 20260903005704 | 90 | 252 | 2.0 | 6.0 | 0.00 | 0.00 | 0.00 | 43 | 1011.6 |
| 20260903005604 | 90 | 252 | 2.0 | 6.0 | 0.00 | 0.00 | 0.00 | 43 | 1011.6 |
| 20260903005504 | 90 | 252 | 2.0 | 6.0 | 0.00 | 0.00 | 0.00 | 43 | 1011.6 |
| 20260903005404 | 90 | 252 | 3.0 | 6.0 | 0.00 | 0.00 | 0.00 | 43 | 1011.6 |
| 20260903005306 | 90 | 252 | 3.0 | 7.0 | 0.00 | 0.00 | 0.00 | 43 | 1011.5 |
| 20260903005225 | 90 | 252 | 3.0 | 7.0 | 0.00 | 0.00 | 0.00 | 43 | 1011.6 |
| 20260903005104 | 90 | 252 | 3.0 | 7.0 | 0.00 | 0.00 | 0.00 | 43 | 1011.5 |
| 20260903005004 | 90 | 252 | 3.0 | 7.0 | 0.00 | 0.00 | 0.00 | 43 | 1011.5 |
| 20260903004925 | 90 | 251 | 3.0 | 7.0 | 0.00 | 0.00 | 0.00 | 43 | 1011.6 |
| 20260903004804 | 90 | 253 | 3.0 | 7.0 | 0.00 | 0.00 | 0.00 | 43 | 1011.5 |
| 20260903004704 | 90 | 252 | 3.0 | 7.0 | 0.00 | 0.00 | 0.00 | 43 | 1011.6 |
| 20260903004625 | 91 | 251 | 3.0 | 7.0 | 0.00 | 0.00 | 0.00 | 43 | 1011.6 |
| 20260903004525 | 91 | 250 | 3.0 | 7.0 | 0.00 | 0.00 | 0.00 | 43 | 1011.6 |
| 20260903004404 | 91 | 252 | 3.0 | 7.0 | 0.00 | 0.00 | 0.00 | 43 | 1011.6 |
| 20260903004304 | 91 | 254 | 3.0 | 6.0 | 0.00 | 0.00 | 0.00 | 42 | 1011.6 |
| 20260903004204 | 91 | 255 | 3.0 | 6.0 | 0.00 | 0.00 | 0.00 | 42 | 1011.6 |
| 20260903004104 | 91 | 259 | 3.0 | 7.0 | 0.00 | 0.00 | 0.00 | 42 | 1011.6 |
| 20260903004004 | 91 | 261 | 3.0 | 7.0 | 0.00 | 0.00 | 0.00 | 42 | 1011.6 |
| 20260903003904 | 91 | 262 | 3.0 | 7.0 | 0.00 | 0.00 | 0.00 | 42 | 1011.6 |
| 20260903003804 | 91 | 269 | 3.0 | 7.0 | 0.00 | 0.00 | 0.00 | 42 | 1011.6 |
| 20260903003704 | 91 | 276 | 3.0 | 7.0 | 0.00 | 0.00 | 0.00 | 42 | 1011.5 |
| 20260903003604 | 91 | 285 | 3.0 | 7.0 | 0.00 | 0.00 | 0.00 | 42 | 1011.5 |
| 20260903003504 | 91 | 292 | 3.0 | 7.0 | 0.00 | 0.00 | 0.00 | 42 | 1011.6 |
| 20260903003404 | 91 | 300 | 3.0 | 7.0 | 0.00 | 0.00 | 0.00 | 42 | 1011.5 |
| 20260903003304 | 91 | 305 | 3.0 | 7.0 | 0.00 | 0.00 | 0.00 | 42 | 1011.6 |
| 20260903003204 | 91 | 307 | 3.0 | 7.0 | 0.00 | 0.00 | 0.00 | 42 | 1011.5 |
| 20260903003104 | 91 | 309 | 3.0 | 7.0 | 0.00 | 0.00 | 0.00 | 42 | 1011.5 |
| 20260903003004 | 91 | 321 | 3.0 | 7.0 | 0.00 | 0.00 | 0.00 | 42 | 1011.5 |
| 20260903002904 | 91 | 332 | 3.0 | 7.0 | 0.00 | 0.00 | 0.00 | 42 | 1011.5 |
| 20260903002804 | 91 | 342 | 3.0 | 7.0 | 0.00 | 0.00 | 0.00 | 42 | 1011.5 |
| 20260903002704 | 91 | 348 | 3.0 | 7.0 | 0.00 | 0.00 | 0.00 | 42 | 1011.5 |
| 20260903002604 | 91 | 358 | 3.0 | 6.0 | 0.00 | 0.00 | 0.00 | 42 | 1011.5 |
| 20260903002504 | 91 | 9 | 3.0 | 8.0 | 0.00 | 0.00 | 0.00 | 42 | 1011.6 |
| 20260903002404 | 91 | 19 | 3.0 | 10.0 | 0.00 | 0.00 | 0.00 | 42 | 1011.5 |
| 20260903002306 | 91 | 25 | 4.0 | 10.0 | 0.00 | 0.00 | 0.00 | 42 | 1011.6 |
| 20260903002225 | 91 | 29 | 4.0 | 10.0 | 0.00 | 0.00 | 0.00 | 42 | 1011.5 |
| 20260903002125 | 91 | 34 | 3.0 | 10.0 | 0.00 | 0.00 | 0.00 | 42 | 1011.6 |
| 20260903002004 | 91 | 40 | 3.0 | 10.0 | 0.00 | 0.00 | 0.00 | 42 | 1011.6 |
| 20260903001904 | 91 | 43 | 3.0 | 10.0 | 0.00 | 0.00 | 0.00 | 42 | 1011.6 |
| 20260903001804 | 91 | 47 | 3.0 | 10.0 | 0.00 | 0.00 | 0.00 | 42 | 1011.6 |
| 20260903001725 | 91 | 48 | 3.0 | 10.0 | 0.00 | 0.00 | 0.00 | 42 | 1011.6 |
| 20260903001604 | 91 | 49 | 3.0 | 10.0 | 0.00 | 0.00 | 0.00 | 42 | 1011.6 |
| 20260903001504 | 91 | 53 | 3.0 | 10.0 | 0.00 | 0.00 | 0.00 | 42 | 1011.6 |
| 20260903001404 | 91 | 57 | 3.0 | 5.0 | 0.00 | 0.00 | 0.00 | 42 | 1011.6 |
| 20260903001304 | 91 | 58 | 3.0 | 5.0 | 0.00 | 0.00 | 0.00 | 42 | 1011.7 |
| 20260903001204 | 91 | 59 | 3.0 | 5.0 | 0.00 | 0.00 | 0.00 | 42 | 1011.6 |
| 20260903001104 | 91 | 58 | 3.0 | 5.0 | 0.00 | 0.00 | 0.00 | 43 | 1011.6 |
| 20260903001004 | 90 | 58 | 3.0 | 5.0 | 0.00 | 0.00 | 0.00 | 43 | 1011.6 |
| 20260903000904 | 90 | 57 | 3.0 | 5.0 | 0.00 | 0.00 | 0.00 | 43 | 1011.7 |
| 20260903000804 | 90 | 53 | 3.0 | 6.0 | 0.00 | 0.00 | 0.00 | 44 | 1011.6 |
| 20260903000704 | 90 | 51 | 3.0 | 7.0 | 0.00 | 0.00 | 0.00 | 44 | 1011.7 |
| 20260903000604 | 90 | 49 | 3.0 | 7.0 | 0.00 | 0.00 | 0.00 | 45 | 1011.7 |
| 20260903000525 | 91 | 48 | 4.0 | 7.0 | 0.00 | 0.00 | 0.00 | 45 | 1011.7 |
| 20260903000404 | 91 | 46 | 4.0 | 8.0 | 0.00 | 0.00 | 0.00 | 45 | 1011.7 |
| 20260903000304 | 90 | 46 | 4.0 | 8.0 | 0.00 | 0.00 | 0.00 | 45 | 1011.7 |
| 20260903000204 | 90 | 46 | 5.0 | 11.0 | 0.00 | 0.00 | 0.00 | 46 | 1011.7 |
| 20260903000104 | 90 | 48 | 5.0 | 11.0 | 0.00 | 0.00 | 0.00 | 46 | 1011.7 |
| 20260903000004 | 90 | 49 | 5.0 | 11.0 | 0.00 | 0.00 | 0.00 | 46 | 1011.7 |
| 20260902235904 | 90 | 50 | 5.0 | 11.0 | 0.00 | 0.00 | 0.00 | 46 | 1011.7 |
| 20260902235804 | 90 | 53 | 6.0 | 11.0 | 0.00 | 0.00 | 0.00 | 46 | 1011.7 |
| 20260902235704 | 90 | 55 | 6.0 | 11.0 | 0.00 | 0.00 | 0.00 | 47 | 1011.6 |
| 20260902235604 | 90 | 55 | 6.0 | 11.0 | 0.00 | 0.00 | 0.00 | 47 | 1011.7 |
| 20260902235504 | 90 | 56 | 6.0 | 11.0 | 0.00 | 0.00 | 0.00 | 47 | 1011.7 |
| 20260902235404 | 90 | 57 | 6.0 | 11.0 | 0.00 | 0.00 | 0.00 | 47 | 1011.7 |
| 20260902235305 | 90 | 59 | 6.0 | 11.0 | 0.00 | 0.00 | 0.00 | 47 | 1011.8 |
| 20260902235225 | 90 | 59 | 5.0 | 11.0 | 0.00 | 0.00 | 0.00 | 47 | 1011.8 |
| 20260902235125 | 90 | 59 | 5.0 | 10.0 | 0.00 | 0.00 | 0.00 | 47 | 1011.8 |
| 20260902235004 | 90 | 61 | 5.0 | 10.0 | 0.00 | 0.00 | 0.00 | 48 | 1011.8 |
| 20260902234904 | 90 | 63 | 5.0 | 13.0 | 0.00 | 0.00 | 0.00 | 48 | 1011.8 |
| 20260902234804 | 90 | 63 | 5.0 | 13.0 | 0.00 | 0.00 | 0.00 | 48 | 1011.7 |
| 20260902234704 | 90 | 66 | 5.0 | 13.0 | 0.00 | 0.00 | 0.00 | 48 | 1011.7 |
| 20260902234604 | 90 | 70 | 5.0 | 13.0 | 0.00 | 0.00 | 0.00 | 48 | 1011.8 |
| 20260902234504 | 90 | 73 | 5.0 | 13.0 | 0.00 | 0.00 | 0.00 | 48 | 1011.8 |
| 20260902234425 | 91 | 75 | 5.0 | 13.0 | 0.00 | 0.00 | 0.00 | 48 | 1011.8 |
| 20260902234304 | 91 | 76 | 5.0 | 13.0 | 0.00 | 0.00 | 0.00 | 48 | 1011.8 |
| 20260902234225 | 91 | 77 | 6.0 | 13.0 | 0.00 | 0.00 | 0.00 | 48 | 1011.8 |
| 20260902234104 | 91 | 76 | 6.0 | 13.0 | 0.00 | 0.00 | 0.00 | 47 | 1011.9 |
| 20260902234004 | 91 | 73 | 6.0 | 13.0 | 0.00 | 0.00 | 0.00 | 48 | 1012.0 |
| 20260902233904 | 91 | 71 | 6.0 | 12.0 | 0.00 | 0.00 | 0.00 | 48 | 1011.9 |
| 20260902233825 | 92 | 71 | 5.0 | 12.0 | 0.00 | 0.00 | 0.00 | 48 | 1011.9 |
| 20260902233704 | 92 | 70 | 5.0 | 11.0 | 0.00 | 0.00 | 0.00 | 46 | 1011.9 |
| 20260902233604 | 93 | 69 | 4.0 | 11.0 | 0.00 | 0.00 | 0.00 | 46 | 1011.9 |
| 20260902233525 | 93 | 68 | 4.0 | 10.0 | 0.00 | 0.00 | 0.00 | 46 | 1012.0 |
| 20260902233404 | 93 | 76 | 4.0 | 10.0 | 0.00 | 0.00 | 0.00 | 45 | 1012.0 |
| 20260902233304 | 94 | 77 | 4.0 | 10.0 | 0.00 | 0.00 | 0.00 | 45 | 1012.0 |
| 20260902233204 | 94 | 77 | 3.0 | 10.0 | 0.00 | 0.00 | 0.00 | 45 | 1012.0 |
| 20260902233104 | 94 | 80 | 2.0 | 10.0 | 0.00 | 0.00 | 0.00 | 45 | 1012.0 |
| 20260902233004 | 94 | 100 | 2.0 | 7.0 | 0.00 | 0.00 | 0.00 | 44 | 1012.0 |
| 20260902232904 | 94 | 130 | 1.0 | 6.0 | 0.00 | 0.00 | 0.00 | 44 | 1012.0 |
| 20260902232804 | 94 | 158 | 1.0 | 6.0 | 0.00 | 0.00 | 0.00 | 43 | 1012.1 |
| 20260902232704 | 95 | 179 | 2.0 | 6.0 | 0.00 | 0.00 | 0.00 | 43 | 1012.0 |
| 20260902232604 | 95 | 181 | 2.0 | 8.0 | 0.00 | 0.00 | 0.00 | 43 | 1012.0 |
| 20260902232504 | 95 | 186 | 2.0 | 8.0 | 0.00 | 0.00 | 0.00 | 43 | 1011.9 |
| 20260902232404 | 95 | 198 | 2.0 | 8.0 | 0.00 | 0.00 | 0.00 | 43 | 1011.9 |
| 20260902232306 | 95 | 201 | 2.0 | 8.0 | 0.00 | 0.00 | 0.00 | 43 | 1011.8 |
| 20260902232204 | 95 | 209 | 2.0 | 8.0 | 0.00 | 0.00 | 0.00 | 43 | 1011.7 |
| 20260902232104 | 95 | 215 | 3.0 | 8.0 | 0.00 | 0.00 | 0.00 | 43 | 1011.7 |
| 20260902232004 | 95 | 223 | 3.0 | 8.0 | 0.00 | 0.00 | 0.00 | 43 | 1011.7 |
| 20260902231904 | 95 | 227 | 3.0 | 8.0 | 0.00 | 0.00 | 0.00 | 43 | 1011.6 |
| 20260902231804 | 95 | 233 | 3.0 | 8.0 | 0.00 | 0.00 | 0.00 | 42 | 1011.6 |
| 20260902231704 | 96 | 238 | 3.0 | 8.0 | 0.00 | 0.00 | 0.00 | 42 | 1011.5 |
| 20260902231604 | 96 | 246 | 3.0 | 8.0 | 0.00 | 0.00 | 0.00 | 42 | 1011.6 |
| 20260902231525 | 96 | 250 | 3.0 | 8.0 | 0.00 | 0.00 | 0.00 | 42 | 1011.5 |
| 20260902231404 | 96 | 257 | 3.0 | 8.0 | 0.00 | 0.00 | 0.00 | 42 | 1011.4 |
| 20260902231304 | 96 | 261 | 3.0 | 8.0 | 0.00 | 0.00 | 0.00 | 41 | 1011.4 |
| 20260902231204 | 97 | 264 | 3.0 | 8.0 | 0.00 | 0.00 | 0.00 | 41 | 1011.3 |
| 20260902231125 | 97 | 264 | 2.0 | 8.0 | 0.00 | 0.00 | 0.00 | 41 | 1011.3 |
| 20260902231025 | 97 | 265 | 2.0 | 8.0 | 0.00 | 0.00 | 0.00 | 40 | 1011.3 |
| 20260902230904 | 98 | 293 | 2.0 | 8.0 | 0.00 | 0.00 | 0.00 | 39 | 1011.3 |
| 20260902230804 | 98 | 352 | 2.0 | 8.0 | 0.00 | 0.00 | 0.00 | 39 | 1011.3 |
| 20260902230704 | 99 | 34 | 1.0 | 8.0 | 0.00 | 0.00 | 0.00 | 38 | 1011.2 |
| 20260902230625 | 99 | 50 | 1.0 | 3.0 | 0.00 | 0.00 | 0.00 | 38 | 1011.2 |
| 20260902230504 | 99 | 50 | 1.0 | 4.0 | 0.00 | 0.00 | 0.00 | 38 | 1011.2 |
| 20260902230404 | 99 | 50 | 1.0 | 4.0 | 0.00 | 0.00 | 0.00 | 38 | 1011.1 |
| 20260902230306 | 99 | 51 | 1.0 | 4.0 | 0.00 | 0.00 | 0.00 | 38 | 1011.1 |
| 20260902230204 | 99 | 52 | 2.0 | 4.0 | 0.00 | 0.00 | 0.00 | 38 | 1011.1 |
| 20260902230104 | 99 | 53 | 2.0 | 5.0 | 0.00 | 0.00 | 0.00 | 38 | 1011.1 |
| 20260902230004 | 99 | 54 | 2.0 | 5.0 | 0.00 | 0.00 | 0.00 | 38 | 1011.0 |
| 20260902225904 | 99 | 54 | 3.0 | 6.0 | 0.00 | 0.00 | 0.00 | 38 | 1011.0 |
| 20260902225804 | 99 | 53 | 3.0 | 7.0 | 0.00 | 0.00 | 0.00 | 38 | 1011.1 |
| 20260902225704 | 99 | 53 | 3.0 | 7.0 | 0.00 | 0.00 | 0.00 | 38 | 1011.1 |
| 20260902225604 | 99 | 54 | 3.0 | 7.0 | 0.00 | 0.00 | 0.00 | 38 | 1011.0 |
| 20260902225504 | 99 | 54 | 3.0 | 7.0 | 0.00 | 0.00 | 0.00 | 38 | 1011.1 |
| 20260902225404 | 99 | 55 | 3.0 | 7.0 | 0.00 | 0.00 | 0.00 | 38 | 1011.0 |
| 20260902225306 | 99 | 55 | 3.0 | 7.0 | 0.00 | 0.00 | 0.00 | 38 | 1011.1 |
| 20260902225204 | 99 | 54 | 4.0 | 7.0 | 0.00 | 0.00 | 0.00 | 38 | 1011.1 |
| 20260902225104 | 99 | 55 | 3.0 | 7.0 | 0.00 | 0.00 | 0.00 | 38 | 1011.0 |
| 20260902225004 | 99 | 55 | 3.0 | 7.0 | 0.00 | 0.00 | 0.00 | 38 | 1011.0 |
| 20260902224904 | 99 | 56 | 3.0 | 7.0 | 0.00 | 0.00 | 0.00 | 37 | 1011.0 |
| 20260902224804 | 99 | 59 | 3.0 | 6.0 | 0.00 | 0.00 | 0.00 | 38 | 1011.0 |
| 20260902224704 | 99 | 60 | 3.0 | 6.0 | 0.00 | 0.00 | 0.00 | 37 | 1011.1 |
| 20260902224604 | 99 | 60 | 3.0 | 6.0 | 0.00 | 0.00 | 0.00 | 37 | 1011.0 |
| 20260902224504 | 99 | 61 | 3.0 | 6.0 | 0.00 | 0.00 | 0.00 | 37 | 1011.1 |
| 20260902224404 | 99 | 61 | 3.0 | 6.0 | 0.00 | 0.00 | 0.00 | 37 | 1011.0 |
| 20260902224304 | 100 | 64 | 3.0 | 6.0 | 0.00 | 0.00 | 0.00 | 37 | 1011.1 |
| 20260902224204 | 100 | 67 | 3.0 | 6.0 | 0.00 | 0.00 | 0.00 | 37 | 1011.0 |
| 20260902224125 | 100 | 68 | 3.0 | 6.0 | 0.00 | 0.00 | 0.00 | 37 | 1011.0 |
| 20260902224004 | 100 | 69 | 3.0 | 6.0 | 0.00 | 0.00 | 0.00 | 37 | 1011.0 |
| 20260902223904 | 100 | 69 | 2.0 | 6.0 | 0.00 | 0.00 | 0.00 | 36 | 1011.0 |
| 20260902223825 | 100 | 70 | 2.0 | 6.0 | 0.00 | 0.00 | 0.00 | 37 | 1011.0 |
| 20260902223704 | 100 | 74 | 2.0 | 6.0 | 0.00 | 0.00 | 0.00 | 36 | 1011.0 |
| 20260902223604 | 100 | 76 | 2.0 | 6.0 | 0.00 | 0.00 | 0.00 | 36 | 1011.0 |
| 20260902223504 | 101 | 80 | 2.0 | 6.0 | 0.00 | 0.00 | 0.00 | 36 | 1011.0 |
| 20260902223404 | 101 | 87 | 1.0 | 6.0 | 0.00 | 0.00 | 0.00 | 36 | 1011.0 |
| 20260902223325 | 101 | 91 | 1.0 | 4.0 | 0.00 | 0.00 | 0.00 | 36 | 1011.0 |
| 20260902223204 | 101 | 94 | 1.0 | 3.0 | 0.00 | 0.00 | 0.00 | 36 | 1011.0 |
| 20260902223104 | 101 | 97 | 1.0 | 3.0 | 0.00 | 0.00 | 0.00 | 36 | 1010.9 |
| 20260902223004 | 101 | 99 | 1.0 | 3.0 | 0.00 | 0.00 | 0.00 | 36 | 1011.0 |
| 20260902222904 | 101 | 101 | 1.0 | 3.0 | 0.00 | 0.00 | 0.00 | 35 | 1010.9 |
| 20260902222804 | 101 | 109 | 1.0 | 3.0 | 0.00 | 0.00 | 0.00 | 35 | 1010.9 |
| 20260902222725 | 101 | 114 | 1.0 | 3.0 | 0.00 | 0.00 | 0.00 | 35 | 1010.9 |
| 20260902222606 | 101 | 124 | 1.0 | 3.0 | 0.00 | 0.00 | 0.00 | 36 | 1011.0 |
| 20260902222504 | 101 | 133 | 1.0 | 3.0 | 0.00 | 0.00 | 0.00 | 36 | 1011.0 |
| 20260902222404 | 101 | 138 | 1.0 | 3.0 | 0.00 | 0.00 | 0.00 | 36 | 1011.0 |
| 20260902222306 | 100 | 146 | 1.0 | 4.0 | 0.00 | 0.00 | 0.00 | 36 | 1011.0 |
| 20260902222204 | 100 | 147 | 2.0 | 4.0 | 0.00 | 0.00 | 0.00 | 37 | 1011.0 |
| 20260902222104 | 100 | 149 | 2.0 | 7.0 | 0.00 | 0.00 | 0.00 | 37 | 1011.0 |
| 20260902222004 | 100 | 146 | 2.0 | 7.0 | 0.00 | 0.00 | 0.00 | 37 | 1011.1 |
| 20260902221904 | 99 | 142 | 2.0 | 7.0 | 0.00 | 0.00 | 0.00 | 37 | 1011.1 |
| 20260902221804 | 99 | 138 | 2.0 | 7.0 | 0.00 | 0.00 | 0.00 | 37 | 1011.1 |
| 20260902221704 | 99 | 131 | 2.0 | 7.0 | 0.00 | 0.00 | 0.00 | 37 | 1011.0 |
| 20260902221604 | 99 | 124 | 2.0 | 7.0 | 0.00 | 0.00 | 0.00 | 37 | 1011.0 |
| 20260902221504 | 99 | 115 | 3.0 | 7.0 | 0.00 | 0.00 | 0.00 | 37 | 1011.0 |
| 20260902221404 | 99 | 110 | 2.0 | 7.0 | 0.00 | 0.00 | 0.00 | 37 | 1011.0 |
| 20260902221304 | 99 | 104 | 2.0 | 7.0 | 0.00 | 0.00 | 0.00 | 37 | 1011.1 |
| 20260902221204 | 99 | 101 | 2.0 | 7.0 | 0.00 | 0.00 | 0.00 | 37 | 1011.1 |
| 20260902221104 | 100 | 86 | 2.0 | 6.0 | 0.00 | 0.00 | 0.00 | 37 | 1011.1 |
| 20260902221004 | 99 | 80 | 2.0 | 5.0 | 0.00 | 0.00 | 0.00 | 37 | 1011.1 |
| 20260902220904 | 99 | 76 | 2.0 | 5.0 | 0.00 | 0.00 | 0.00 | 37 | 1011.1 |
| 20260902220804 | 100 | 70 | 2.0 | 6.0 | 0.00 | 0.00 | 0.00 | 37 | 1011.1 |
| 20260902220704 | 100 | 64 | 2.0 | 6.0 | 0.00 | 0.00 | 0.00 | 37 | 1011.1 |
| 20260902220604 | 100 | 61 | 2.0 | 6.0 | 0.00 | 0.00 | 0.00 | 37 | 1011.0 |
| 20260902220504 | 100 | 61 | 2.0 | 6.0 | 0.00 | 0.00 | 0.00 | 37 | 1011.1 |
| 20260902220404 | 100 | 61 | 2.0 | 6.0 | 0.00 | 0.00 | 0.00 | 37 | 1011.1 |
| 20260902220325 | 100 | 61 | 2.0 | 6.0 | 0.00 | 0.00 | 0.00 | 37 | 1011.0 |
| 20260902220204 | 100 | 61 | 2.0 | 6.0 | 0.00 | 0.00 | 0.00 | 37 | 1011.1 |
| 20260902220104 | 100 | 60 | 2.0 | 6.0 | 0.00 | 0.00 | 0.00 | 37 | 1011.1 |
| 20260902220004 | 100 | 60 | 2.0 | 6.0 | 0.00 | 0.00 | 0.00 | 36 | 1011.1 |
| 20260902215904 | 100 | 60 | 1.0 | 6.0 | 0.00 | 0.00 | 0.00 | 37 | 1011.1 |
| 20260902215804 | 100 | 59 | 1.0 | 5.0 | 0.00 | 0.00 | 0.00 | 36 | 1011.1 |
| 20260902215704 | 100 | 58 | 1.0 | 5.0 | 0.00 | 0.00 | 0.00 | 36 | 1011.2 |
| 20260902215604 | 100 | 58 | 0.0 | 5.0 | 0.00 | 0.00 | 0.00 | 35 | 1011.2 |
| 20260902215504 | 100 | 57 | 0.0 | 2.0 | 0.00 | 0.00 | 0.00 | 36 | 1011.1 |
| 20260902215404 | 100 | 57 | 0.0 | 2.0 | 0.00 | 0.00 | 0.00 | 36 | 1011.2 |
| 20260902215306 | 100 | 57 | 0.0 | 2.0 | 0.00 | 0.00 | 0.00 | 36 | 1011.1 |
| 20260902215204 | 100 | 57 | 0.0 | 2.0 | 0.00 | 0.00 | 0.00 | 36 | 1011.2 |
| 20260902215104 | 100 | 57 | 1.0 | 2.0 | 0.00 | 0.00 | 0.00 | 36 | 1011.1 |
| 20260902215004 | 100 | 57 | 1.0 | 3.0 | 0.00 | 0.00 | 0.00 | 36 | 1011.2 |
| 20260902214904 | 100 | 57 | 1.0 | 3.0 | 0.00 | 0.00 | 0.00 | 36 | 1011.2 |
| 20260902214804 | 100 | 57 | 1.0 | 3.0 | 0.00 | 0.00 | 0.00 | 36 | 1011.2 |
| 20260902214704 | 100 | 57 | 1.0 | 3.0 | 0.00 | 0.00 | 0.00 | 36 | 1011.2 |
| 20260902214625 | 100 | 59 | 1.0 | 3.0 | 0.00 | 0.00 | 0.00 | 36 | 1011.2 |
| 20260902214504 | 100 | 64 | 2.0 | 5.0 | 0.00 | 0.00 | 0.00 | 36 | 1011.2 |
| 20260902214404 | 100 | 65 | 2.0 | 6.0 | 0.00 | 0.00 | 0.00 | 37 | 1011.3 |
| 20260902214304 | 100 | 67 | 2.0 | 6.0 | 0.00 | 0.00 | 0.00 | 36 | 1011.3 |
| 20260902214204 | 99 | 69 | 2.0 | 6.0 | 0.00 | 0.00 | 0.00 | 37 | 1011.3 |
| 20260902214104 | 99 | 71 | 2.0 | 6.0 | 0.00 | 0.00 | 0.00 | 37 | 1011.3 |
| 20260902214004 | 99 | 79 | 2.0 | 6.0 | 0.00 | 0.00 | 0.00 | 37 | 1011.3 |
| 20260902213904 | 99 | 80 | 2.0 | 6.0 | 0.00 | 0.00 | 0.00 | 37 | 1011.3 |
| 20260902213825 | 99 | 80 | 2.0 | 6.0 | 0.00 | 0.00 | 0.00 | 37 | 1011.3 |
| 20260902213704 | 99 | 80 | 3.0 | 6.0 | 0.00 | 0.00 | 0.00 | 37 | 1011.3 |
| 20260902213604 | 99 | 77 | 3.0 | 8.0 | 0.00 | 0.00 | 0.00 | 37 | 1011.3 |
| 20260902213504 | 99 | 74 | 3.0 | 8.0 | 0.00 | 0.00 | 0.00 | 37 | 1011.3 |
| 20260902213404 | 99 | 72 | 3.0 | 8.0 | 0.00 | 0.00 | 0.00 | 37 | 1011.3 |
| 20260902213304 | 99 | 71 | 3.0 | 8.0 | 0.00 | 0.00 | 0.00 | 37 | 1011.3 |
| 20260902213225 | 99 | 69 | 3.0 | 8.0 | 0.00 | 0.00 | 0.00 | 37 | 1011.3 |
| 20260902213104 | 99 | 68 | 3.0 | 8.0 | 0.00 | 0.00 | 0.00 | 37 | 1011.3 |
| 20260902213025 | 99 | 66 | 3.0 | 8.0 | 0.00 | 0.00 | 0.00 | 37 | 1011.3 |
| 20260902212925 | 100 | 62 | 3.0 | 8.0 | 0.00 | 0.00 | 0.00 | 37 | 1011.3 |
| 20260902212825 | 100 | 62 | 3.0 | 8.0 | 0.00 | 0.00 | 0.00 | 37 | 1011.4 |
| 20260902212704 | 100 | 61 | 2.0 | 8.0 | 0.00 | 0.00 | 0.00 | 36 | 1011.4 |
| 20260902212604 | 100 | 61 | 2.0 | 6.0 | 0.00 | 0.00 | 0.00 | 36 | 1011.4 |
| 20260902212504 | 100 | 64 | 2.0 | 6.0 | 0.00 | 0.00 | 0.00 | 37 | 1011.4 |
| 20260902212425 | 100 | 65 | 2.0 | 6.0 | 0.00 | 0.00 | 0.00 | 37 | 1011.4 |
| 20260902212306 | 100 | 66 | 1.0 | 4.0 | 0.00 | 0.00 | 0.00 | 36 | 1011.4 |
| 20260902212225 | 100 | 66 | 1.0 | 4.0 | 0.00 | 0.00 | 0.00 | 36 | 1011.4 |
| 20260902212104 | 100 | 67 | 1.0 | 4.0 | 0.00 | 0.00 | 0.00 | 37 | 1011.3 |
| 20260902212004 | 100 | 67 | 1.0 | 4.0 | 0.00 | 0.00 | 0.00 | 37 | 1011.4 |
| 20260902211904 | 100 | 67 | 1.0 | 4.0 | 0.00 | 0.00 | 0.00 | 36 | 1011.4 |
| 20260902211825 | 100 | 67 | 1.0 | 4.0 | 0.00 | 0.00 | 0.00 | 36 | 1011.3 |
| 20260902211704 | 100 | 67 | 1.0 | 4.0 | 0.00 | 0.00 | 0.00 | 36 | 1011.4 |
| 20260902211604 | 100 | 67 | 1.0 | 3.0 | 0.00 | 0.00 | 0.00 | 36 | 1011.4 |
| 20260902211504 | 100 | 67 | 1.0 | 2.0 | 0.00 | 0.00 | 0.00 | 37 | 1011.4 |
| 20260902211404 | 99 | 67 | 0.0 | 2.0 | 0.00 | 0.00 | 0.00 | 37 | 1011.4 |
| 20260902211304 | 99 | 68 | 0.0 | 2.0 | 0.00 | 0.00 | 0.00 | 37 | 1011.4 |
| 20260902211204 | 99 | 68 | 0.0 | 1.0 | 0.00 | 0.00 | 0.00 | 36 | 1011.4 |
| 20260902211104 | 99 | 68 | 0.0 | 3.0 | 0.00 | 0.00 | 0.00 | 37 | 1011.5 |
| 20260902211025 | 99 | 68 | 1.0 | 3.0 | 0.00 | 0.00 | 0.00 | 37 | 1011.4 |
| 20260902210925 | 99 | 67 | 1.0 | 3.0 | 0.00 | 0.00 | 0.00 | 37 | 1011.4 |
| 20260902210804 | 99 | 67 | 1.0 | 3.0 | 0.00 | 0.00 | 0.00 | 37 | 1011.4 |
| 20260902210704 | 99 | 67 | 1.0 | 3.0 | 0.00 | 0.00 | 0.00 | 37 | 1011.4 |
| 20260902210604 | 100 | 67 | 1.0 | 3.0 | 0.00 | 0.00 | 0.00 | 37 | 1011.4 |
| 20260902210504 | 100 | 67 | 1.0 | 3.0 | 0.00 | 0.00 | 0.00 | 37 | 1011.4 |
| 20260902210404 | 100 | 67 | 1.0 | 3.0 | 0.00 | 0.00 | 0.00 | 36 | 1011.4 |
| 20260902210304 | 100 | 67 | 1.0 | 3.0 | 0.00 | 0.00 | 0.00 | 36 | 1011.4 |
| 20260902210204 | 100 | 67 | 1.0 | 3.0 | 0.00 | 0.00 | 0.00 | 36 | 1011.5 |
| 20260902210104 | 100 | 66 | 1.0 | 2.0 | 0.00 | 0.00 | 0.00 | 36 | 1011.5 |
| 20260902210004 | 100 | 66 | 1.0 | 2.0 | 0.00 | 0.00 | 0.00 | 36 | 1011.6 |
| 20260902205904 | 100 | 66 | 1.0 | 3.0 | 0.00 | 0.00 | 0.00 | 36 | 1011.6 |
| 20260902205804 | 100 | 66 | 1.0 | 3.0 | 0.00 | 0.00 | 0.00 | 36 | 1011.6 |
| 20260902205704 | 100 | 66 | 1.0 | 3.0 | 0.00 | 0.00 | 0.00 | 36 | 1011.6 |
| 20260902205625 | 100 | 66 | 1.0 | 3.0 | 0.00 | 0.00 | 0.00 | 36 | 1011.7 |
| 20260902205504 | 100 | 66 | 1.0 | 3.0 | 0.00 | 0.00 | 0.00 | 36 | 1011.6 |
| 20260902205404 | 100 | 66 | 1.0 | 3.0 | 0.00 | 0.00 | 0.00 | 37 | 1011.7 |
| 20260902205306 | 100 | 66 | 1.0 | 3.0 | 0.00 | 0.00 | 0.00 | 36 | 1011.6 |
| 20260902205204 | 100 | 66 | 1.0 | 3.0 | 0.00 | 0.00 | 0.00 | 36 | 1011.7 |
| 20260902205104 | 100 | 66 | 1.0 | 3.0 | 0.00 | 0.00 | 0.00 | 36 | 1011.7 |
| 20260902205004 | 100 | 66 | 1.0 | 3.0 | 0.00 | 0.00 | 0.00 | 36 | 1011.8 |
| 20260902204904 | 100 | 66 | 1.0 | 3.0 | 0.00 | 0.00 | 0.00 | 36 | 1011.8 |
| 20260902204804 | 100 | 66 | 1.0 | 3.0 | 0.00 | 0.00 | 0.00 | 36 | 1011.8 |
| 20260902204704 | 100 | 66 | 1.0 | 3.0 | 0.00 | 0.00 | 0.00 | 36 | 1011.8 |
| 20260902204604 | 100 | 66 | 1.0 | 3.0 | 0.00 | 0.00 | 0.00 | 36 | 1011.8 |
| 20260902204504 | 100 | 66 | 1.0 | 3.0 | 0.00 | 0.00 | 0.00 | 35 | 1011.9 |
| 20260902204404 | 100 | 66 | 1.0 | 6.0 | 0.00 | 0.00 | 0.00 | 35 | 1011.8 |
| 20260902204304 | 101 | 59 | 2.0 | 7.0 | 0.00 | 0.00 | 0.00 | 35 | 1011.8 |
| 20260902204204 | 101 | 55 | 2.0 | 7.0 | 0.00 | 0.00 | 0.00 | 36 | 1011.8 |
| 20260902204104 | 101 | 50 | 2.0 | 7.0 | 0.00 | 0.00 | 0.00 | 35 | 1011.8 |
| 20260902204004 | 101 | 52 | 2.0 | 7.0 | 0.00 | 0.00 | 0.00 | 35 | 1011.9 |
| 20260902203904 | 101 | 53 | 2.0 | 7.0 | 0.00 | 0.00 | 0.00 | 35 | 1011.9 |
| 20260902203804 | 101 | 56 | 2.0 | 7.0 | 0.00 | 0.00 | 0.00 | 35 | 1011.9 |
| 20260902203725 | 101 | 59 | 3.0 | 7.0 | 0.00 | 0.00 | 0.00 | 35 | 1011.9 |
| 20260902203604 | 101 | 62 | 3.0 | 7.0 | 0.00 | 0.00 | 0.00 | 35 | 1012.0 |
| 20260902203504 | 101 | 66 | 3.0 | 7.0 | 0.00 | 0.00 | 0.00 | 35 | 1012.0 |
| 20260902203425 | 102 | 68 | 3.0 | 7.0 | 0.00 | 0.00 | 0.00 | 34 | 1012.0 |
| 20260902203304 | 102 | 77 | 2.0 | 7.0 | 0.00 | 0.00 | 0.00 | 35 | 1012.0 |
| 20260902203204 | 102 | 87 | 2.0 | 6.0 | 0.00 | 0.00 | 0.00 | 35 | 1011.9 |
| 20260902203104 | 102 | 100 | 2.0 | 5.0 | 0.00 | 0.00 | 0.00 | 35 | 1012.0 |
| 20260902203004 | 102 | 109 | 1.0 | 4.0 | 0.00 | 0.00 | 0.00 | 35 | 1012.0 |
| 20260902202904 | 102 | 112 | 1.0 | 4.0 | 0.00 | 0.00 | 0.00 | 34 | 1012.0 |
| 20260902202804 | 102 | 116 | 1.0 | 4.0 | 0.00 | 0.00 | 0.00 | 34 | 1012.0 |
| 20260902202704 | 102 | 121 | 1.0 | 4.0 | 0.00 | 0.00 | 0.00 | 34 | 1012.0 |
| 20260902202604 | 102 | 123 | 1.0 | 4.0 | 0.00 | 0.00 | 0.00 | 34 | 1012.1 |
| 20260902202504 | 102 | 131 | 1.0 | 3.0 | 0.00 | 0.00 | 0.00 | 35 | 1012.1 |
| 20260902202404 | 102 | 137 | 1.0 | 3.0 | 0.00 | 0.00 | 0.00 | 35 | 1012.1 |
| 20260902202325 | 102 | 140 | 1.0 | 3.0 | 0.00 | 0.00 | 0.00 | 35 | 1012.1 |
| 20260902202204 | 102 | 146 | 1.0 | 4.0 | 0.00 | 0.00 | 0.00 | 35 | 1012.1 |
| 20260902202104 | 102 | 149 | 1.0 | 4.0 | 0.00 | 0.00 | 0.00 | 35 | 1012.2 |
| 20260902202004 | 101 | 151 | 1.0 | 4.0 | 0.00 | 0.00 | 0.00 | 35 | 1012.2 |
| 20260902201925 | 101 | 152 | 1.0 | 4.0 | 0.00 | 0.00 | 0.00 | 35 | 1012.2 |
| 20260902201804 | 101 | 152 | 2.0 | 4.0 | 0.00 | 0.00 | 0.00 | 36 | 1012.2 |
| 20260902201704 | 101 | 145 | 2.0 | 4.0 | 0.00 | 0.00 | 0.00 | 36 | 1012.2 |
| 20260902201604 | 100 | 138 | 2.0 | 4.0 | 0.00 | 0.00 | 0.00 | 36 | 1012.2 |
| 20260902201504 | 100 | 133 | 2.0 | 4.0 | 0.00 | 0.00 | 0.00 | 37 | 1012.2 |
| 20260902201404 | 100 | 121 | 2.0 | 5.0 | 0.00 | 0.00 | 0.00 | 37 | 1012.2 |
| 20260902201304 | 100 | 110 | 2.0 | 5.0 | 0.00 | 0.00 | 0.00 | 37 | 1012.3 |
| 20260902201225 | 100 | 101 | 3.0 | 5.0 | 0.00 | 0.00 | 0.00 | 37 | 1012.3 |
| 20260902201125 | 99 | 90 | 3.0 | 6.0 | 0.00 | 0.00 | 0.00 | 37 | 1012.3 |
| 20260902201004 | 99 | 70 | 3.0 | 6.0 | 0.00 | 0.00 | 0.00 | 37 | 1012.3 |
| 20260902200904 | 99 | 64 | 3.0 | 6.0 | 0.00 | 0.00 | 0.00 | 37 | 1012.4 |
| 20260902200804 | 99 | 57 | 3.0 | 6.0 | 0.00 | 0.00 | 0.00 | 37 | 1012.4 |
| 20260902200704 | 99 | 49 | 2.0 | 6.0 | 0.00 | 0.00 | 0.00 | 37 | 1012.4 |
| 20260902200625 | 99 | 47 | 2.0 | 6.0 | 0.00 | 0.00 | 0.00 | 37 | 1012.4 |
| 20260902200504 | 99 | 47 | 3.0 | 6.0 | 0.00 | 0.00 | 0.00 | 36 | 1012.5 |
| 20260902200425 | 100 | 46 | 3.0 | 6.0 | 0.00 | 0.00 | 0.00 | 36 | 1012.5 |
| 20260902200304 | 100 | 43 | 3.0 | 6.0 | 0.00 | 0.00 | 0.00 | 36 | 1012.5 |
| 20260902200204 | 100 | 42 | 2.0 | 6.0 | 0.00 | 0.00 | 0.00 | 36 | 1012.4 |
| 20260902200104 | 100 | 51 | 2.0 | 6.0 | 0.00 | 0.00 | 0.00 | 37 | 1012.5 |
| 20260902200004 | 100 | 58 | 2.0 | 5.0 | 0.00 | 0.00 | 0.00 | 37 | 1012.5 |
| 20260902195904 | 99 | 56 | 2.0 | 5.0 | 0.00 | 0.00 | 0.00 | 37 | 1012.5 |
| 20260902195804 | 99 | 55 | 3.0 | 6.0 | 0.00 | 0.00 | 0.00 | 37 | 1012.5 |
| 20260902195704 | 99 | 55 | 3.0 | 6.0 | 0.00 | 0.00 | 0.00 | 37 | 1012.6 |
| 20260902195604 | 99 | 56 | 3.0 | 6.0 | 0.00 | 0.00 | 0.00 | 37 | 1012.6 |
| 20260902195504 | 99 | 58 | 3.0 | 6.0 | 0.00 | 0.00 | 0.00 | 37 | 1012.6 |
| 20260902195404 | 99 | 60 | 3.0 | 6.0 | 0.00 | 0.00 | 0.00 | 37 | 1012.6 |
| 20260902195306 | 99 | 62 | 3.0 | 6.0 | 0.00 | 0.00 | 0.00 | 37 | 1012.6 |
| 20260902195204 | 100 | 63 | 3.0 | 9.0 | 0.00 | 0.00 | 0.00 | 37 | 1012.7 |
| 20260902195104 | 100 | 60 | 3.0 | 9.0 | 0.00 | 0.00 | 0.00 | 36 | 1012.7 |
| 20260902195004 | 100 | 58 | 4.0 | 9.0 | 0.00 | 0.00 | 0.00 | 37 | 1012.7 |
| 20260902194904 | 100 | 55 | 4.0 | 9.0 | 0.00 | 0.00 | 0.00 | 36 | 1012.7 |
| 20260902194804 | 100 | 53 | 4.0 | 9.0 | 0.00 | 0.00 | 0.00 | 37 | 1012.7 |
| 20260902194704 | 100 | 49 | 4.0 | 9.0 | 0.00 | 0.00 | 0.00 | 37 | 1012.7 |
| 20260902194604 | 100 | 41 | 4.0 | 9.0 | 0.00 | 0.00 | 0.00 | 37 | 1012.8 |
| 20260902194504 | 100 | 35 | 4.0 | 9.0 | 0.00 | 0.00 | 0.00 | 36 | 1012.8 |
| 20260902194404 | 100 | 29 | 4.0 | 9.0 | 0.00 | 0.00 | 0.00 | 37 | 1012.9 |
| 20260902194306 | 100 | 25 | 4.0 | 9.0 | 0.00 | 0.00 | 0.00 | 36 | 1012.9 |
| 20260902194225 | 101 | 16 | 4.0 | 9.0 | 0.00 | 0.00 | 0.00 | 36 | 1012.8 |
| 20260902194104 | 101 | 360 | 3.0 | 7.0 | 0.00 | 0.00 | 0.00 | 36 | 1012.9 |
| 20260902194004 | 101 | 1 | 3.0 | 7.0 | 0.00 | 0.00 | 0.00 | 36 | 1012.9 |
| 20260902193904 | 101 | 2 | 3.0 | 7.0 | 0.00 | 0.00 | 0.00 | 36 | 1012.9 |
| 20260902193825 | 100 | 6 | 3.0 | 7.0 | 0.00 | 0.00 | 0.00 | 36 | 1012.9 |
| 20260902193704 | 100 | 10 | 3.0 | 7.0 | 0.00 | 0.00 | 0.00 | 36 | 1013.0 |
| 20260902193604 | 100 | 32 | 3.0 | 7.0 | 0.00 | 0.00 | 0.00 | 37 | 1013.0 |
| 20260902193504 | 100 | 45 | 3.0 | 7.0 | 0.00 | 0.00 | 0.00 | 37 | 1013.0 |
| 20260902193425 | 100 | 52 | 3.0 | 6.0 | 0.00 | 0.00 | 0.00 | 36 | 1013.0 |
| 20260902193304 | 100 | 62 | 3.0 | 6.0 | 0.00 | 0.00 | 0.00 | 37 | 1013.0 |
| 20260902193204 | 100 | 65 | 3.0 | 6.0 | 0.00 | 0.00 | 0.00 | 36 | 1013.0 |
| 20260902193125 | 100 | 67 | 3.0 | 6.0 | 0.00 | 0.00 | 0.00 | 37 | 1013.1 |
| 20260902193004 | 100 | 69 | 3.0 | 6.0 | 0.00 | 0.00 | 0.00 | 36 | 1013.1 |
| 20260902192904 | 100 | 69 | 3.0 | 6.0 | 0.00 | 0.00 | 0.00 | 36 | 1013.1 |
| 20260902192825 | 100 | 69 | 3.0 | 6.0 | 0.00 | 0.00 | 0.00 | 36 | 1013.1 |
| 20260902192704 | 100 | 70 | 3.0 | 6.0 | 0.00 | 0.00 | 0.00 | 36 | 1013.2 |
| 20260902192604 | 101 | 70 | 3.0 | 6.0 | 0.00 | 0.00 | 0.00 | 36 | 1013.2 |
| 20260902192504 | 101 | 73 | 2.0 | 6.0 | 0.00 | 0.00 | 0.00 | 35 | 1013.2 |
| 20260902192404 | 101 | 74 | 2.0 | 6.0 | 0.00 | 0.00 | 0.00 | 36 | 1013.2 |
| 20260902192306 | 102 | 70 | 2.0 | 6.0 | 0.00 | 0.00 | 0.00 | 35 | 1013.2 |
| 20260902192204 | 102 | 70 | 2.0 | 6.0 | 0.00 | 0.00 | 0.00 | 35 | 1013.3 |
| 20260902192104 | 101 | 70 | 2.0 | 6.0 | 0.00 | 0.00 | 0.00 | 35 | 1013.2 |
| 20260902192004 | 101 | 71 | 2.0 | 7.0 | 0.00 | 0.00 | 0.00 | 35 | 1013.3 |
| 20260902191904 | 101 | 71 | 2.0 | 7.0 | 0.00 | 0.00 | 0.00 | 36 | 1013.2 |
| 20260902191825 | 101 | 70 | 2.0 | 7.0 | 0.00 | 0.00 | 0.00 | 36 | 1013.3 |
| 20260902191704 | 100 | 67 | 2.0 | 7.0 | 0.00 | 0.00 | 0.00 | 36 | 1013.3 |
| 20260902191604 | 100 | 63 | 2.0 | 7.0 | 0.00 | 0.00 | 0.00 | 37 | 1013.2 |
| 20260902191504 | 99 | 32 | 2.0 | 7.0 | 0.00 | 0.00 | 0.00 | 36 | 1013.3 |
| 20260902191425 | 99 | 298 | 3.0 | 7.0 | 0.00 | 0.00 | 0.00 | 36 | 1013.3 |
| 20260902191304 | 99 | 270 | 3.0 | 7.0 | 0.00 | 0.00 | 0.00 | 38 | 1013.4 |
| 20260902191204 | 99 | 263 | 3.0 | 8.0 | 0.00 | 0.00 | 0.00 | 37 | 1013.4 |
| 20260902191104 | 99 | 272 | 3.0 | 10.0 | 0.00 | 0.00 | 0.00 | 37 | 1013.4 |
| 20260902191004 | 98 | 295 | 4.0 | 10.0 | 0.00 | 0.00 | 0.00 | 37 | 1013.4 |
| 20260902190904 | 98 | 311 | 4.0 | 10.0 | 0.00 | 0.00 | 0.00 | 37 | 1013.4 |
| 20260902190804 | 98 | 343 | 5.0 | 10.0 | 0.00 | 0.00 | 0.00 | 37 | 1013.4 |
| 20260902190704 | 98 | 7 | 5.0 | 10.0 | 0.00 | 0.00 | 0.00 | 37 | 1013.4 |
| 20260902190604 | 98 | 16 | 5.0 | 10.0 | 0.00 | 0.00 | 0.00 | 37 | 1013.4 |
| 20260902190504 | 98 | 27 | 5.0 | 10.0 | 0.00 | 0.00 | 0.00 | 37 | 1013.5 |
| 20260902190404 | 98 | 38 | 5.0 | 10.0 | 0.00 | 0.00 | 0.00 | 37 | 1013.5 |
| 20260902190304 | 98 | 43 | 5.0 | 10.0 | 0.00 | 0.00 | 0.00 | 37 | 1013.5 |
| 20260902190204 | 99 | 49 | 4.0 | 10.0 | 0.00 | 0.00 | 0.00 | 37 | 1013.6 |
| 20260902190104 | 99 | 52 | 4.0 | 9.0 | 0.00 | 0.00 | 0.00 | 37 | 1013.6 |
| 20260902190004 | 99 | 58 | 3.0 | 8.0 | 0.00 | 0.00 | 0.00 | 37 | 1013.6 |
| 20260902185904 | 99 | 57 | 3.0 | 8.0 | 0.00 | 0.00 | 0.00 | 37 | 1013.6 |
| 20260902185804 | 99 | 64 | 3.0 | 8.0 | 0.00 | 0.00 | 0.00 | 36 | 1013.6 |
| 20260902185704 | 99 | 79 | 2.0 | 8.0 | 0.00 | 0.00 | 0.00 | 36 | 1013.6 |
| 20260902185604 | 99 | 128 | 2.0 | 8.0 | 0.00 | 0.00 | 0.00 | 36 | 1013.7 |
| 20260902185506 | 99 | 170 | 2.0 | 6.0 | 0.00 | 0.00 | 0.00 | 36 | 1013.6 |
| 20260902185404 | 99 | 192 | 2.0 | 6.0 | 0.00 | 0.00 | 0.00 | 37 | 1013.6 |
| 20260902185306 | 99 | 199 | 2.0 | 6.0 | 0.00 | 0.00 | 0.00 | 37 | 1013.6 |
| 20260902185205 | 98 | 202 | 2.0 | 6.0 | 0.00 | 0.00 | 0.00 | 37 | 1013.6 |
| 20260902185104 | 98 | 205 | 3.0 | 6.0 | 0.00 | 0.00 | 0.00 | 38 | 1013.6 |
| 20260902185004 | 98 | 209 | 3.0 | 6.0 | 0.00 | 0.00 | 0.00 | 38 | 1013.6 |
| 20260902184904 | 98 | 210 | 3.0 | 6.0 | 0.00 | 0.00 | 0.00 | 37 | 1013.6 |
| 20260902184804 | 97 | 212 | 3.0 | 6.0 | 0.00 | 0.00 | 0.00 | 37 | 1013.7 |
| 20260902184704 | 98 | 214 | 3.0 | 6.0 | 0.00 | 0.00 | 0.00 | 38 | 1013.7 |
| 20260902184625 | 98 | 214 | 3.0 | 6.0 | 0.00 | 0.00 | 0.00 | 38 | 1013.7 |
| 20260902184504 | 97 | 216 | 3.0 | 5.0 | 0.00 | 0.00 | 0.00 | 38 | 1013.7 |
| 20260902184404 | 97 | 211 | 3.0 | 5.0 | 0.00 | 0.00 | 0.00 | 38 | 1013.8 |
| 20260902184304 | 97 | 204 | 3.0 | 5.0 | 0.00 | 0.00 | 0.00 | 37 | 1013.8 |
| 20260902184204 | 97 | 185 | 3.0 | 5.0 | 0.00 | 0.00 | 0.00 | 37 | 1013.8 |
| 20260902184125 | 98 | 139 | 3.0 | 5.0 | 0.00 | 0.00 | 0.00 | 37 | 1013.8 |
| 20260902184004 | 98 | 80 | 3.0 | 10.0 | 0.00 | 0.00 | 0.00 | 37 | 1013.9 |
| 20260902183904 | 98 | 71 | 4.0 | 13.0 | 0.00 | 0.00 | 0.00 | 37 | 1013.9 |
| 20260902183804 | 98 | 72 | 4.0 | 13.0 | 0.00 | 0.00 | 0.00 | 37 | 1013.9 |
| 20260902183704 | 98 | 71 | 4.0 | 13.0 | 0.00 | 0.00 | 0.00 | 37 | 1013.9 |
| 20260902183604 | 98 | 71 | 4.0 | 13.0 | 0.00 | 0.00 | 0.00 | 38 | 1013.9 |
| 20260902183504 | 98 | 68 | 5.0 | 13.0 | 0.00 | 0.00 | 0.00 | 37 | 1014.0 |
| 20260902183425 | 98 | 66 | 5.0 | 13.0 | 0.00 | 0.00 | 0.00 | 37 | 1014.0 |
| 20260902183304 | 97 | 65 | 5.0 | 13.0 | 0.00 | 0.00 | 0.00 | 38 | 1014.0 |
| 20260902183225 | 97 | 64 | 5.0 | 13.0 | 0.00 | 0.00 | 0.00 | 38 | 1014.0 |
| 20260902183104 | 98 | 63 | 4.0 | 13.0 | 0.00 | 0.00 | 0.00 | 37 | 1014.0 |
| 20260902183004 | 98 | 60 | 4.0 | 13.0 | 0.00 | 0.00 | 0.00 | 37 | 1014.0 |
| 20260902182904 | 98 | 54 | 4.0 | 10.0 | 0.00 | 0.00 | 0.00 | 38 | 1014.0 |
| 20260902182825 | 98 | 51 | 4.0 | 9.0 | 0.00 | 0.00 | 0.00 | 38 | 1014.0 |
| 20260902182704 | 98 | 51 | 3.0 | 9.0 | 0.00 | 0.00 | 0.00 | 37 | 1014.0 |
| 20260902182625 | 98 | 50 | 3.0 | 9.0 | 0.00 | 0.00 | 0.00 | 38 | 1014.1 |
| 20260902182504 | 98 | 52 | 3.0 | 9.0 | 0.00 | 0.00 | 0.00 | 37 | 1014.1 |
| 20260902182404 | 97 | 61 | 3.0 | 8.0 | 0.00 | 0.00 | 0.00 | 37 | 1014.1 |
| 20260902182306 | 97 | 69 | 2.0 | 8.0 | 0.00 | 0.00 | 0.00 | 37 | 1014.2 |
| 20260902182204 | 97 | 76 | 3.0 | 8.0 | 0.00 | 0.00 | 0.00 | 37 | 1014.2 |
| 20260902182106 | 98 | 81 | 3.0 | 8.0 | 0.00 | 0.00 | 0.00 | 37 | 1014.2 |
| 20260902182025 | 98 | 89 | 3.0 | 8.0 | 0.00 | 0.00 | 0.00 | 37 | 1014.3 |
| 20260902181904 | 98 | 104 | 3.0 | 8.0 | 0.00 | 0.00 | 0.00 | 37 | 1014.2 |
| 20260902181804 | 98 | 105 | 3.0 | 8.0 | 0.00 | 0.00 | 0.00 | 36 | 1014.2 |
| 20260902181704 | 98 | 102 | 3.0 | 8.0 | 0.00 | 0.00 | 0.00 | 37 | 1014.2 |
| 20260902181625 | 98 | 100 | 3.0 | 8.0 | 0.00 | 0.00 | 0.00 | 38 | 1014.2 |
| 20260902181504 | 98 | 91 | 3.0 | 8.0 | 0.00 | 0.00 | 0.00 | 38 | 1014.2 |
| 20260902181404 | 98 | 84 | 3.0 | 8.0 | 0.00 | 0.00 | 0.00 | 37 | 1014.3 |
| 20260902181304 | 98 | 77 | 3.0 | 8.0 | 0.00 | 0.00 | 0.00 | 37 | 1014.3 |
| 20260902181204 | 98 | 72 | 3.0 | 8.0 | 0.00 | 0.00 | 0.00 | 37 | 1014.3 |
| 20260902181104 | 98 | 66 | 3.0 | 8.0 | 0.00 | 0.00 | 0.00 | 37 | 1014.3 |
| 20260902181004 | 98 | 57 | 2.0 | 7.0 | 0.00 | 0.00 | 0.00 | 36 | 1014.4 |
| 20260902180925 | 98 | 52 | 2.0 | 7.0 | 0.00 | 0.00 | 0.00 | 36 | 1014.4 |
| 20260902180804 | 99 | 39 | 2.0 | 6.0 | 0.00 | 0.00 | 0.00 | 36 | 1014.4 |
| 20260902180704 | 99 | 33 | 2.0 | 6.0 | 0.00 | 0.00 | 0.00 | 36 | 1014.4 |
| 20260902180604 | 98 | 20 | 2.0 | 6.0 | 0.00 | 0.00 | 0.00 | 37 | 1014.4 |
| 20260902180504 | 98 | 8 | 2.0 | 6.0 | 0.00 | 0.00 | 0.00 | 36 | 1014.5 |
| 20260902180404 | 98 | 356 | 2.0 | 6.0 | 0.00 | 0.00 | 0.00 | 36 | 1014.5 |
| 20260902180304 | 98 | 339 | 3.0 | 8.0 | 0.00 | 0.00 | 0.00 | 36 | 1014.5 |
| 20260902180204 | 98 | 326 | 3.0 | 8.0 | 0.00 | 0.00 | 0.00 | 36 | 1014.5 |
| 20260902180104 | 98 | 324 | 3.0 | 8.0 | 0.00 | 0.00 | 0.00 | 36 | 1014.6 |
| 20260902180006 | 98 | 338 | 3.0 | 8.0 | 0.00 | 0.00 | 0.00 | 36 | 1014.6 |
| 20260902175904 | 98 | 341 | 4.0 | 8.0 | 0.00 | 0.00 | 0.00 | 37 | 1014.7 |
| 20260902175804 | 98 | 343 | 4.0 | 8.0 | 0.00 | 0.00 | 0.00 | 37 | 1014.6 |
| 20260902175704 | 98 | 352 | 4.0 | 9.0 | 0.00 | 0.00 | 0.00 | 37 | 1014.7 |
| 20260902175625 | 98 | 7 | 4.0 | 9.0 | 0.00 | 0.00 | 0.00 | 37 | 1014.7 |
| 20260902175504 | 97 | 23 | 4.0 | 11.0 | 0.00 | 0.00 | 0.00 | 37 | 1014.7 |
| 20260902175404 | 97 | 26 | 4.0 | 11.0 | 0.00 | 0.00 | 0.00 | 37 | 1014.8 |
| 20260902175325 | 97 | 33 | 4.0 | 11.0 | 0.00 | 0.00 | 0.00 | 37 | 1014.8 |
| 20260902175204 | 97 | 43 | 4.0 | 11.0 | 0.00 | 0.00 | 0.00 | 37 | 1014.8 |
| 20260902175104 | 97 | 41 | 4.0 | 11.0 | 0.00 | 0.00 | 0.00 | 37 | 1014.8 |
| 20260902175004 | 97 | 42 | 4.0 | 11.0 | 0.00 | 0.00 | 0.00 | 37 | 1014.9 |
| 20260902174904 | 97 | 42 | 4.0 | 11.0 | 0.00 | 0.00 | 0.00 | 37 | 1014.9 |
| 20260902174804 | 97 | 42 | 4.0 | 11.0 | 0.00 | 0.00 | 0.00 | 36 | 1014.9 |
| 20260902174704 | 97 | 43 | 4.0 | 11.0 | 0.00 | 0.00 | 0.00 | 36 | 1015.0 |
| 20260902174604 | 97 | 39 | 3.0 | 11.0 | 0.00 | 0.00 | 0.00 | 36 | 1014.9 |
| 20260902174504 | 97 | 36 | 3.0 | 8.0 | 0.00 | 0.00 | 0.00 | 37 | 1015.0 |
| 20260902174404 | 97 | 31 | 3.0 | 8.0 | 0.00 | 0.00 | 0.00 | 36 | 1015.0 |
| 20260902174304 | 97 | 21 | 3.0 | 8.0 | 0.00 | 0.00 | 0.00 | 37 | 1015.0 |
| 20260902174225 | 97 | 19 | 3.0 | 8.0 | 0.00 | 0.00 | 0.00 | 36 | 1015.0 |
| 20260902174104 | 97 | 25 | 3.0 | 7.0 | 0.00 | 0.00 | 0.00 | 37 | 1015.0 |
| 20260902174004 | 97 | 25 | 3.0 | 8.0 | 0.00 | 0.00 | 0.00 | 37 | 1015.0 |
| 20260902173904 | 97 | 22 | 3.0 | 8.0 | 0.00 | 0.00 | 0.00 | 36 | 1015.0 |
| 20260902173825 | 97 | 22 | 3.0 | 8.0 | 0.00 | 0.00 | 0.00 | 37 | 1015.0 |
| 20260902173704 | 97 | 11 | 3.0 | 8.0 | 0.00 | 0.00 | 0.00 | 36 | 1015.1 |
| 20260902173604 | 97 | 20 | 4.0 | 8.0 | 0.00 | 0.00 | 0.00 | 36 | 1015.1 |
| 20260902173504 | 97 | 27 | 4.0 | 9.0 | 0.00 | 0.00 | 0.00 | 36 | 1015.1 |
| 20260902173404 | 97 | 37 | 4.0 | 9.0 | 0.00 | 0.00 | 0.00 | 36 | 1015.2 |
| 20260902173304 | 97 | 43 | 5.0 | 9.0 | 0.00 | 0.00 | 0.00 | 36 | 1015.1 |
| 20260902173204 | 97 | 43 | 5.0 | 9.0 | 0.00 | 0.00 | 0.00 | 36 | 1015.2 |
| 20260902173104 | 97 | 44 | 5.0 | 9.0 | 0.00 | 0.00 | 0.00 | 36 | 1015.2 |
| 20260902173004 | 97 | 48 | 5.0 | 9.0 | 0.00 | 0.00 | 0.00 | 36 | 1015.2 |
| 20260902172904 | 97 | 51 | 5.0 | 9.0 | 0.00 | 0.00 | 0.00 | 36 | 1015.2 |
| 20260902172804 | 96 | 54 | 5.0 | 9.0 | 0.00 | 0.00 | 0.00 | 36 | 1015.2 |
| 20260902172704 | 96 | 53 | 5.0 | 9.0 | 0.00 | 0.00 | 0.00 | 37 | 1015.2 |
| 20260902172604 | 96 | 49 | 5.0 | 9.0 | 0.00 | 0.00 | 0.00 | 37 | 1015.2 |
| 20260902172504 | 96 | 44 | 5.0 | 9.0 | 0.00 | 0.00 | 0.00 | 37 | 1015.2 |
| 20260902172425 | 96 | 39 | 5.0 | 9.0 | 0.00 | 0.00 | 0.00 | 37 | 1015.2 |
| 20260902172308 | 96 | 34 | 4.0 | 9.0 | 0.00 | 0.00 | 0.00 | 36 | 1015.3 |
| 20260902172204 | 96 | 29 | 4.0 | 8.0 | 0.00 | 0.00 | 0.00 | 36 | 1015.3 |
| 20260902172104 | 96 | 17 | 4.0 | 8.0 | 0.00 | 0.00 | 0.00 | 36 | 1015.2 |
| 20260902172004 | 97 | 359 | 3.0 | 7.0 | 0.00 | 0.00 | 0.00 | 36 | 1015.2 |
| 20260902171904 | 96 | 349 | 3.0 | 7.0 | 0.00 | 0.00 | 0.00 | 36 | 1015.3 |
| 20260902171804 | 96 | 355 | 4.0 | 8.0 | 0.00 | 0.00 | 0.00 | 36 | 1015.3 |
| 20260902171704 | 96 | 2 | 4.0 | 8.0 | 0.00 | 0.00 | 0.00 | 35 | 1015.3 |
| 20260902171625 | 96 | 8 | 4.0 | 8.0 | 0.00 | 0.00 | 0.00 | 35 | 1015.4 |
| 20260902171504 | 96 | 11 | 4.0 | 10.0 | 0.00 | 0.00 | 0.00 | 35 | 1015.4 |
| 20260902171404 | 96 | 14 | 4.0 | 10.0 | 0.00 | 0.00 | 0.00 | 36 | 1015.4 |
| 20260902171325 | 96 | 20 | 4.0 | 10.0 | 0.00 | 0.00 | 0.00 | 36 | 1015.4 |
| 20260902171204 | 96 | 31 | 4.0 | 10.0 | 0.00 | 0.00 | 0.00 | 36 | 1015.4 |
| 20260902171104 | 96 | 38 | 4.0 | 10.0 | 0.00 | 0.00 | 0.00 | 36 | 1015.4 |
| 20260902171004 | 96 | 45 | 4.0 | 10.0 | 0.00 | 0.00 | 0.00 | 36 | 1015.4 |
| 20260902170904 | 95 | 52 | 4.0 | 10.0 | 0.00 | 0.00 | 0.00 | 36 | 1015.5 |
| 20260902170804 | 95 | 57 | 4.0 | 10.0 | 0.00 | 0.00 | 0.00 | 36 | 1015.5 |
| 20260902170704 | 95 | 57 | 4.0 | 10.0 | 0.00 | 0.00 | 0.00 | 36 | 1015.5 |
| 20260902170604 | 95 | 58 | 3.0 | 9.0 | 0.00 | 0.00 | 0.00 | 36 | 1015.5 |
| 20260902170525 | 95 | 60 | 3.0 | 9.0 | 0.00 | 0.00 | 0.00 | 36 | 1015.5 |
| 20260902170425 | 95 | 62 | 4.0 | 9.0 | 0.00 | 0.00 | 0.00 | 36 | 1015.6 |
| 20260902170304 | 95 | 65 | 3.0 | 9.0 | 0.00 | 0.00 | 0.00 | 36 | 1015.6 |
| 20260902170225 | 95 | 67 | 3.0 | 7.0 | 0.00 | 0.00 | 0.00 | 36 | 1015.6 |
| 20260902170104 | 95 | 64 | 3.0 | 7.0 | 0.00 | 0.00 | 0.00 | 36 | 1015.6 |
| 20260902170004 | 95 | 63 | 3.0 | 7.0 | 0.00 | 0.00 | 0.00 | 35 | 1015.6 |
| 20260902165904 | 95 | 62 | 3.0 | 7.0 | 0.00 | 0.00 | 0.00 | 35 | 1015.5 |
| 20260902165804 | 95 | 60 | 3.0 | 8.0 | 0.00 | 0.00 | 0.00 | 36 | 1015.6 |
| 20260902165704 | 95 | 60 | 4.0 | 8.0 | 0.00 | 0.00 | 0.00 | 36 | 1015.6 |
| 20260902165604 | 95 | 61 | 3.0 | 8.0 | 0.00 | 0.00 | 0.00 | 35 | 1015.6 |
| 20260902165525 | 95 | 62 | 3.0 | 8.0 | 0.00 | 0.00 | 0.00 | 35 | 1015.6 |
| 20260902165404 | 95 | 62 | 3.0 | 8.0 | 0.00 | 0.00 | 0.00 | 36 | 1015.6 |
| 20260902165308 | 95 | 62 | 3.0 | 8.0 | 0.00 | 0.00 | 0.00 | 35 | 1015.7 |
| 20260902165204 | 95 | 64 | 2.0 | 8.0 | 0.00 | 0.00 | 0.00 | 35 | 1015.7 |
| 20260902165105 | 95 | 68 | 3.0 | 8.0 | 0.00 | 0.00 | 0.00 | 35 | 1015.7 |
| 20260902165004 | 94 | 69 | 3.0 | 8.0 | 0.00 | 0.00 | 0.00 | 35 | 1015.7 |
| 20260902164925 | 95 | 70 | 3.0 | 8.0 | 0.00 | 0.00 | 0.00 | 35 | 1015.8 |
| 20260902164804 | 95 | 72 | 3.0 | 7.0 | 0.00 | 0.00 | 0.00 | 35 | 1015.8 |
| 20260902164704 | 94 | 69 | 3.0 | 7.0 | 0.00 | 0.00 | 0.00 | 35 | 1015.8 |
| 20260902164604 | 94 | 67 | 3.0 | 8.0 | 0.00 | 0.00 | 0.00 | 35 | 1015.8 |
| 20260902164504 | 94 | 66 | 3.0 | 8.0 | 0.00 | 0.00 | 0.00 | 35 | 1015.8 |
| 20260902164404 | 94 | 66 | 4.0 | 8.0 | 0.00 | 0.00 | 0.00 | 35 | 1015.8 |
| 20260902164304 | 94 | 67 | 4.0 | 8.0 | 0.00 | 0.00 | 0.00 | 35 | 1015.9 |
| 20260902164204 | 94 | 66 | 4.0 | 8.0 | 0.00 | 0.00 | 0.00 | 35 | 1015.9 |
| 20260902164104 | 94 | 64 | 4.0 | 8.0 | 0.00 | 0.00 | 0.00 | 35 | 1015.9 |
| 20260902164004 | 94 | 63 | 4.0 | 8.0 | 0.00 | 0.00 | 0.00 | 35 | 1015.9 |
| 20260902163925 | 94 | 61 | 4.0 | 8.0 | 0.00 | 0.00 | 0.00 | 35 | 1015.8 |
| 20260902163804 | 94 | 59 | 4.0 | 8.0 | 0.00 | 0.00 | 0.00 | 35 | 1015.9 |
| 20260902163704 | 94 | 59 | 4.0 | 8.0 | 0.00 | 0.00 | 0.00 | 35 | 1015.9 |
| 20260902163604 | 94 | 59 | 4.0 | 10.0 | 0.00 | 0.00 | 0.00 | 35 | 1015.9 |
| 20260902163504 | 94 | 55 | 4.0 | 10.0 | 0.00 | 0.00 | 0.00 | 35 | 1015.9 |
| 20260902163404 | 94 | 53 | 4.0 | 10.0 | 0.00 | 0.00 | 0.00 | 35 | 1015.9 |
| 20260902163304 | 94 | 53 | 4.0 | 10.0 | 0.00 | 0.00 | 0.00 | 35 | 1015.9 |
| 20260902163204 | 94 | 52 | 4.0 | 11.0 | 0.00 | 0.00 | 0.00 | 35 | 1015.9 |
| 20260902163104 | 94 | 51 | 5.0 | 11.0 | 0.00 | 0.00 | 0.00 | 35 | 1015.9 |
| 20260902163004 | 94 | 50 | 5.0 | 11.0 | 0.00 | 0.00 | 0.00 | 35 | 1015.9 |
| 20260902162904 | 94 | 51 | 5.0 | 11.0 | 0.00 | 0.00 | 0.00 | 35 | 1015.9 |
| 20260902162804 | 93 | 51 | 4.0 | 11.0 | 0.00 | 0.00 | 0.00 | 35 | 1016.0 |
| 20260902162725 | 94 | 52 | 4.0 | 11.0 | 0.00 | 0.00 | 0.00 | 34 | 1015.9 |
| 20260902162604 | 94 | 53 | 4.0 | 11.0 | 0.00 | 0.00 | 0.00 | 34 | 1016.0 |
| 20260902162504 | 93 | 55 | 4.0 | 11.0 | 0.00 | 0.00 | 0.00 | 34 | 1015.9 |
| 20260902162404 | 94 | 57 | 4.0 | 11.0 | 0.00 | 0.00 | 0.00 | 34 | 1015.9 |
| 20260902162307 | 94 | 56 | 3.0 | 11.0 | 0.00 | 0.00 | 0.00 | 34 | 1016.0 |
| 20260902162225 | 94 | 56 | 3.0 | 10.0 | 0.00 | 0.00 | 0.00 | 34 | 1015.9 |
| 20260902162104 | 94 | 58 | 2.0 | 7.0 | 0.00 | 0.00 | 0.00 | 34 | 1015.9 |
| 20260902162004 | 94 | 63 | 2.0 | 6.0 | 0.00 | 0.00 | 0.00 | 34 | 1015.9 |
| 20260902161904 | 94 | 64 | 2.0 | 6.0 | 0.00 | 0.00 | 0.00 | 34 | 1015.9 |
| 20260902161804 | 94 | 63 | 3.0 | 6.0 | 0.00 | 0.00 | 0.00 | 33 | 1015.9 |
| 20260902161704 | 94 | 60 | 3.0 | 6.0 | 0.00 | 0.00 | 0.00 | 33 | 1015.9 |
| 20260902161604 | 94 | 61 | 3.0 | 7.0 | 0.00 | 0.00 | 0.00 | 33 | 1015.9 |
| 20260902161504 | 94 | 61 | 2.0 | 7.0 | 0.00 | 0.00 | 0.00 | 33 | 1015.9 |
| 20260902161404 | 93 | 60 | 2.0 | 7.0 | 0.00 | 0.00 | 0.00 | 33 | 1015.9 |
| 20260902161325 | 93 | 61 | 2.0 | 7.0 | 0.00 | 0.00 | 0.00 | 33 | 1015.9 |
| 20260902161204 | 93 | 61 | 2.0 | 7.0 | 0.00 | 0.00 | 0.00 | 33 | 1015.9 |
| 20260902161104 | 93 | 62 | 2.0 | 7.0 | 0.00 | 0.00 | 0.00 | 33 | 1015.9 |
| 20260902161004 | 93 | 63 | 2.0 | 7.0 | 0.00 | 0.00 | 0.00 | 33 | 1015.9 |
| 20260902160925 | 93 | 62 | 2.0 | 7.0 | 0.00 | 0.00 | 0.00 | 33 | 1015.9 |
| 20260902160804 | 93 | 60 | 2.0 | 7.0 | 0.00 | 0.00 | 0.00 | 32 | 1015.9 |
| 20260902160704 | 93 | 62 | 2.0 | 7.0 | 0.00 | 0.00 | 0.00 | 32 | 1015.9 |
| 20260902160625 | 93 | 59 | 2.0 | 5.0 | 0.00 | 0.00 | 0.00 | 32 | 1015.9 |
| 20260902160504 | 93 | 54 | 2.0 | 6.0 | 0.00 | 0.00 | 0.00 | 32 | 1015.9 |
| 20260902160425 | 93 | 55 | 3.0 | 6.0 | 0.00 | 0.00 | 0.00 | 32 | 1015.9 |
| 20260902160304 | 93 | 54 | 3.0 | 6.0 | 0.00 | 0.00 | 0.00 | 32 | 1015.9 |
| 20260902160225 | 93 | 55 | 3.0 | 6.0 | 0.00 | 0.00 | 0.00 | 32 | 1015.9 |
| 20260902160105 | 93 | 55 | 3.0 | 6.0 | 0.00 | 0.00 | 0.00 | 32 | 1015.9 |
| 20260902160006 | 93 | 55 | 3.0 | 6.0 | 0.00 | 0.00 | 0.00 | 31 | 1015.9 |
| 20260902155906 | 93 | 55 | 3.0 | 8.0 | 0.00 | 0.00 | 0.00 | 31 | 1015.9 |
| 20260902155804 | 92 | 60 | 3.0 | 8.0 | 0.00 | 0.00 | 0.00 | 31 | 1015.9 |
| 20260902155725 | 92 | 63 | 3.0 | 8.0 | 0.00 | 0.00 | 0.00 | 31 | 1015.9 |
| 20260902155603 | 92 | 66 | 3.0 | 8.0 | 0.00 | 0.00 | 0.00 | 31 | 1015.9 |
| 20260902155503 | 92 | 75 | 3.0 | 8.0 | 0.00 | 0.00 | 0.00 | 31 | 1015.9 |
| 20260902155404 | 92 | 77 | 3.0 | 8.0 | 0.00 | 0.00 | 0.00 | 30 | 1015.9 |
| 20260902155306 | 92 | 79 | 3.0 | 8.0 | 0.00 | 0.00 | 0.00 | 31 | 1015.8 |
| 20260902155204 | 92 | 79 | 3.0 | 8.0 | 0.00 | 0.00 | 0.00 | 31 | 1015.9 |
| 20260902155127 | 92 | 80 | 3.0 | 8.0 | 0.00 | 0.00 | 0.00 | 31 | 1015.9 |
| 20260902155004 | 92 | 82 | 3.0 | 8.0 | 0.00 | 0.00 | 0.00 | 30 | 1015.9 |
| 20260902154904 | 92 | 86 | 3.0 | 8.0 | 0.00 | 0.00 | 0.00 | 30 | 1015.9 |
| 20260902154804 | 92 | 86 | 3.0 | 8.0 | 0.00 | 0.00 | 0.00 | 30 | 1015.9 |
| 20260902154704 | 92 | 85 | 3.0 | 8.0 | 0.00 | 0.00 | 0.00 | 30 | 1015.9 |
| 20260902154604 | 92 | 85 | 3.0 | 8.0 | 0.00 | 0.00 | 0.00 | 30 | 1015.9 |
| 20260902154504 | 92 | 86 | 3.0 | 6.0 | 0.00 | 0.00 | 0.00 | 29 | 1015.9 |
| 20260902154404 | 92 | 86 | 3.0 | 6.0 | 0.00 | 0.00 | 0.00 | 29 | 1015.9 |
| 20260902154304 | 92 | 85 | 3.0 | 6.0 | 0.00 | 0.00 | 0.00 | 29 | 1015.9 |
| 20260902154204 | 91 | 83 | 3.0 | 6.0 | 0.00 | 0.00 | 0.00 | 29 | 1015.9 |
| 20260902154104 | 91 | 81 | 3.0 | 6.0 | 0.00 | 0.00 | 0.00 | 29 | 1015.9 |
| 20260902154004 | 91 | 79 | 3.0 | 6.0 | 0.00 | 0.00 | 0.00 | 28 | 1015.8 |
| 20260902153904 | 91 | 77 | 3.0 | 6.0 | 0.00 | 0.00 | 0.00 | 28 | 1015.9 |
| 20260902153825 | 91 | 76 | 2.0 | 6.0 | 0.00 | 0.00 | 0.00 | 28 | 1016.0 |
| 20260902153725 | 91 | 75 | 2.0 | 6.0 | 0.00 | 0.00 | 0.00 | 28 | 1015.9 |
| 20260902153625 | 91 | 73 | 2.0 | 6.0 | 0.00 | 0.00 | 0.00 | 28 | 1015.9 |
| 20260902153504 | 91 | 68 | 2.0 | 6.0 | 0.00 | 0.00 | 0.00 | 27 | 1015.9 |
| 20260902153403 | 91 | 61 | 2.0 | 6.0 | 0.00 | 0.00 | 0.00 | 27 | 1015.9 |
| 20260902153304 | 91 | 57 | 2.0 | 6.0 | 0.00 | 0.00 | 0.00 | 26 | 1015.9 |
| 20260902153225 | 91 | 55 | 2.0 | 7.0 | 0.00 | 0.00 | 0.00 | 26 | 1015.9 |
| 20260902153103 | 91 | 56 | 2.0 | 7.0 | 0.00 | 0.00 | 0.00 | 25 | 1015.9 |
| 20260902153004 | 91 | 57 | 2.0 | 7.0 | 0.00 | 0.00 | 0.00 | 25 | 1015.9 |
| 20260902152904 | 90 | 59 | 2.0 | 7.0 | 0.00 | 0.00 | 0.00 | 25 | 1015.9 |
| 20260902152804 | 90 | 59 | 2.0 | 7.0 | 0.00 | 0.00 | 0.00 | 25 | 1015.9 |
| 20260902152704 | 90 | 59 | 3.0 | 7.0 | 0.00 | 0.00 | 0.00 | 25 | 1015.9 |
| 20260902152604 | 90 | 60 | 3.0 | 7.0 | 0.00 | 0.00 | 0.00 | 25 | 1016.0 |
| 20260902152503 | 90 | 61 | 3.0 | 7.0 | 0.00 | 0.00 | 0.00 | 25 | 1016.0 |
| 20260902152404 | 90 | 62 | 3.0 | 7.0 | 0.00 | 0.00 | 0.00 | 25 | 1016.0 |
| 20260902152307 | 90 | 66 | 3.0 | 7.0 | 0.00 | 0.00 | 0.00 | 25 | 1016.0 |
| 20260902152204 | 90 | 69 | 3.0 | 7.0 | 0.00 | 0.00 | 0.00 | 24 | 1016.0 |
| 20260902152104 | 89 | 70 | 3.0 | 7.0 | 0.00 | 0.00 | 0.00 | 25 | 1016.0 |
| 20260902152004 | 89 | 71 | 3.0 | 7.0 | 0.00 | 0.00 | 0.00 | 25 | 1016.0 |
| 20260902151904 | 89 | 72 | 3.0 | 7.0 | 0.00 | 0.00 | 0.00 | 24 | 1016.0 |
| 20260902151804 | 89 | 73 | 3.0 | 7.0 | 0.00 | 0.00 | 0.00 | 25 | 1016.0 |
| 20260902151725 | 89 | 73 | 3.0 | 7.0 | 0.00 | 0.00 | 0.00 | 25 | 1016.0 |
| 20260902151604 | 89 | 72 | 3.0 | 7.0 | 0.00 | 0.00 | 0.00 | 24 | 1016.0 |
| 20260902151503 | 89 | 70 | 3.0 | 7.0 | 0.00 | 0.00 | 0.00 | 24 | 1016.0 |
| 20260902151425 | 89 | 72 | 3.0 | 7.0 | 0.00 | 0.00 | 0.00 | 23 | 1016.0 |
| 20260902151304 | 89 | 70 | 3.0 | 6.0 | 0.00 | 0.00 | 0.00 | 22 | 1016.1 |
| 20260902151204 | 89 | 68 | 3.0 | 6.0 | 0.00 | 0.00 | 0.00 | 22 | 1016.0 |
| 20260902151104 | 89 | 66 | 3.0 | 6.0 | 0.00 | 0.00 | 0.00 | 22 | 1016.0 |
| 20260902151006 | 89 | 65 | 3.0 | 8.0 | 0.00 | 0.00 | 0.00 | 22 | 1016.1 |
| 20260902150904 | 89 | 62 | 3.0 | 8.0 | 0.00 | 0.00 | 0.00 | 21 | 1016.1 |
| 20260902150804 | 89 | 63 | 3.0 | 8.0 | 0.00 | 0.00 | 0.00 | 22 | 1016.1 |
| 20260902150704 | 89 | 67 | 3.0 | 8.0 | 0.00 | 0.00 | 0.00 | 22 | 1016.1 |
| 20260902150604 | 89 | 71 | 3.0 | 8.0 | 0.00 | 0.00 | 0.00 | 22 | 1016.1 |
| 20260902150504 | 89 | 73 | 3.0 | 8.0 | 0.00 | 0.00 | 0.00 | 21 | 1016.1 |
| 20260902150404 | 88 | 71 | 3.0 | 8.0 | 0.00 | 0.00 | 0.00 | 21 | 1016.1 |
| 20260902150304 | 88 | 70 | 3.0 | 8.0 | 0.00 | 0.00 | 0.00 | 21 | 1016.1 |
| 20260902150204 | 88 | 69 | 3.0 | 8.0 | 0.00 | 0.00 | 0.00 | 21 | 1016.0 |
| 20260902150104 | 88 | 66 | 3.0 | 8.0 | 0.00 | 0.00 | 0.00 | 20 | 1016.1 |
| 20260902150004 | 88 | 67 | 3.0 | 8.0 | 0.00 | 0.00 | 0.00 | 19 | 1016.1 |
| 20260902145904 | 88 | 70 | 3.0 | 8.0 | 0.00 | 0.00 | 0.00 | 19 | 1016.0 |
| 20260902145803 | 88 | 69 | 3.0 | 8.0 | 0.00 | 0.00 | 0.00 | 19 | 1016.0 |
| 20260902145704 | 88 | 65 | 3.0 | 8.0 | 0.00 | 0.00 | 0.00 | 19 | 1016.0 |
| 20260902145604 | 88 | 63 | 3.0 | 7.0 | 0.00 | 0.00 | 0.00 | 18 | 1015.9 |
| 20260902145504 | 88 | 63 | 4.0 | 8.0 | 0.00 | 0.00 | 0.00 | 17 | 1016.0 |
| 20260902145404 | 88 | 63 | 4.0 | 8.0 | 0.00 | 0.00 | 0.00 | 17 | 1016.0 |
| 20260902145325 | 88 | 64 | 4.0 | 8.0 | 0.00 | 0.00 | 0.00 | 17 | 1016.0 |
| 20260902145204 | 88 | 64 | 4.0 | 8.0 | 0.00 | 0.00 | 0.00 | 17 | 1016.0 |
| 20260902145103 | 88 | 67 | 4.0 | 8.0 | 0.00 | 0.00 | 0.00 | 15 | 1015.9 |
| 20260902145004 | 88 | 66 | 4.0 | 10.0 | 0.00 | 0.00 | 0.00 | 15 | 1016.0 |
| 20260902144904 | 87 | 64 | 5.0 | 10.0 | 0.00 | 0.00 | 0.00 | 15 | 1016.0 |
| 20260902144804 | 87 | 63 | 5.0 | 11.0 | 0.00 | 0.00 | 0.00 | 15 | 1015.9 |
| 20260902144725 | 87 | 62 | 5.0 | 11.0 | 0.00 | 0.00 | 0.00 | 15 | 1015.9 |
| 20260902144604 | 87 | 58 | 6.0 | 11.0 | 0.00 | 0.00 | 0.00 | 15 | 1015.9 |
| 20260902144503 | 87 | 56 | 5.0 | 11.0 | 0.00 | 0.00 | 0.00 | 15 | 1016.0 |
| 20260902144404 | 87 | 56 | 5.0 | 11.0 | 0.00 | 0.00 | 0.00 | 15 | 1015.9 |
| 20260902144304 | 87 | 55 | 5.0 | 11.0 | 0.00 | 0.00 | 0.00 | 15 | 1016.0 |
| 20260902144204 | 87 | 55 | 5.0 | 11.0 | 0.00 | 0.00 | 0.00 | 14 | 1016.0 |
| 20260902144104 | 87 | 53 | 5.0 | 11.0 | 0.00 | 0.00 | 0.00 | 14 | 1016.0 |
| 20260902144004 | 87 | 51 | 5.0 | 11.0 | 0.00 | 0.00 | 0.00 | 14 | 1016.0 |
| 20260902143904 | 87 | 50 | 5.0 | 11.0 | 0.00 | 0.00 | 0.00 | 14 | 1016.0 |
| 20260902143804 | 87 | 48 | 4.0 | 9.0 | 0.00 | 0.00 | 0.00 | 13 | 1016.0 |
| 20260902143704 | 87 | 49 | 4.0 | 9.0 | 0.00 | 0.00 | 0.00 | 13 | 1016.0 |
| 20260902143604 | 87 | 53 | 4.0 | 8.0 | 0.00 | 0.00 | 0.00 | 12 | 1016.0 |
| 20260902143504 | 87 | 54 | 4.0 | 8.0 | 0.00 | 0.00 | 0.00 | 11 | 1016.0 |
| 20260902143425 | 87 | 55 | 4.0 | 8.0 | 0.00 | 0.00 | 0.00 | 11 | 1016.0 |
| 20260902143304 | 87 | 56 | 4.0 | 9.0 | 0.00 | 0.00 | 0.00 | 9 | 1016.1 |
| 20260902143204 | 86 | 58 | 5.0 | 9.0 | 0.00 | 0.00 | 0.00 | 9 | 1016.1 |
| 20260902143104 | 86 | 57 | 5.0 | 11.0 | 0.00 | 0.00 | 0.00 | 10 | 1016.0 |
| 20260902143004 | 86 | 58 | 5.0 | 11.0 | 0.00 | 0.00 | 0.00 | 9 | 1016.1 |
| 20260902142904 | 86 | 60 | 5.0 | 11.0 | 0.00 | 0.00 | 0.00 | 8 | 1016.0 |
| 20260902142803 | 86 | 62 | 5.0 | 11.0 | 0.00 | 0.00 | 0.00 | 7 | 1016.0 |
| 20260902142725 | 86 | 63 | 5.0 | 11.0 | 0.00 | 0.00 | 0.00 | 7 | 1016.1 |
| 20260902142605 | 86 | 62 | 5.0 | 11.0 | 0.00 | 0.00 | 0.00 | 6 | 1016.1 |
| 20260902142504 | 86 | 64 | 5.0 | 11.0 | 0.00 | 0.00 | 0.00 | 5 | 1016.1 |
| 20260902142404 | 86 | 67 | 4.0 | 11.0 | 0.00 | 0.00 | 0.00 | 5 | 1016.0 |
| 20260902142306 | 86 | 70 | 4.0 | 11.0 | 0.00 | 0.00 | 0.00 | 5 | 1016.1 |
| 20260902142203 | 86 | 72 | 4.0 | 11.0 | 0.00 | 0.00 | 0.00 | 4 | 1016.1 |
| 20260902142104 | 86 | 74 | 4.0 | 8.0 | 0.00 | 0.00 | 0.00 | 4 | 1016.1 |
| 20260902142004 | 86 | 73 | 4.0 | 8.0 | 0.00 | 0.00 | 0.00 | 4 | 1016.1 |
| 20260902141904 | 86 | 70 | 4.0 | 8.0 | 0.00 | 0.00 | 0.00 | 3 | 1016.1 |
| 20260902141803 | 86 | 69 | 5.0 | 8.0 | 0.00 | 0.00 | 0.00 | 3 | 1016.1 |
| 20260902141703 | 86 | 68 | 4.0 | 8.0 | 0.00 | 0.00 | 0.00 | 1 | 1016.1 |
| 20260902141625 | 85 | 69 | 4.0 | 8.0 | 0.00 | 0.00 | 0.00 | 1 | 1016.1 |
| 20260902141504 | 85 | 66 | 4.0 | 8.0 | 0.00 | 0.00 | 0.00 | 1 | 1016.1 |
| 20260902141403 | 85 | 64 | 4.0 | 8.0 | 0.00 | 0.00 | 0.00 | 1 | 1016.1 |
| 20260902141304 | 85 | 62 | 4.0 | 8.0 | 0.00 | 0.00 | 0.00 | 1 | 1016.1 |
| 20260902141204 | 85 | 62 | 4.0 | 8.0 | 0.00 | 0.00 | 0.00 | 2 | 1016.1 |
| 20260902141104 | 85 | 63 | 4.0 | 8.0 | 0.00 | 0.00 | 0.00 | 1 | 1016.1 |
| 20260902141004 | 85 | 64 | 4.0 | 8.0 | 0.00 | 0.00 | 0.00 | 1 | 1016.1 |
| 20260902140904 | 85 | 68 | 4.0 | 8.0 | 0.00 | 0.00 | 0.00 | 1 | 1016.1 |
| 20260902140804 | 85 | 69 | 4.0 | 8.0 | 0.00 | 0.00 | 0.00 | 1 | 1016.1 |
| 20260902140704 | 85 | 71 | 4.0 | 8.0 | 0.00 | 0.00 | 0.00 | 1 | 1016.0 |
| 20260902140604 | 85 | 72 | 4.0 | 8.0 | 0.00 | 0.00 | 0.00 | 1 | 1016.1 |
| 20260902140506 | 85 | 73 | 4.0 | 8.0 | 0.00 | 0.00 | 0.00 | 1 | 1016.1 |
| 20260902140404 | 85 | 73 | 4.0 | 8.0 | 0.00 | 0.00 | 0.00 | 1 | 1016.1 |
| 20260902140304 | 84 | 73 | 4.0 | 8.0 | 0.00 | 0.00 | 0.00 | 1 | 1016.1 |
| 20260902140204 | 84 | 71 | 4.0 | 7.0 | 0.00 | 0.00 | 0.00 | 1 | 1016.1 |
| 20260902140104 | 84 | 68 | 3.0 | 7.0 | 0.00 | 0.00 | 0.00 | 1 | 1016.0 |
| 20260902140025 | 84 | 68 | 3.0 | 6.0 | 0.00 | 0.00 | 0.00 | 1 | 1016.0 |
| 20260902135903 | 84 | 66 | 3.0 | 6.0 | 0.00 | 0.00 | 0.00 | 1 | 1016.0 |
| 20260902135804 | 84 | 64 | 3.0 | 6.0 | 0.00 | 0.00 | 0.00 | 1 | 1016.0 |
| 20260902135704 | 84 | 61 | 3.0 | 7.0 | 0.00 | 0.00 | 0.00 | 1 | 1016.0 |
| 20260902135603 | 84 | 59 | 3.0 | 7.0 | 0.00 | 0.00 | 0.00 | 1 | 1016.0 |
| 20260902135525 | 84 | 58 | 3.0 | 7.0 | 0.00 | 0.00 | 0.00 | 1 | 1015.9 |
| 20260902135404 | 84 | 58 | 4.0 | 7.0 | 0.00 | 0.00 | 0.00 | 1 | 1016.0 |
| 20260902135306 | 84 | 59 | 4.0 | 8.0 | 0.00 | 0.00 | 0.00 | 1 | 1015.9 |
| 20260902135225 | 84 | 57 | 4.0 | 8.0 | 0.00 | 0.00 | 0.00 | 1 | 1015.9 |
| 20260902135125 | 84 | 57 | 3.0 | 8.0 | 0.00 | 0.00 | 0.00 | 1 | 1015.8 |
| 20260902135004 | 83 | 57 | 3.0 | 8.0 | 0.00 | 0.00 | 0.00 | 1 | 1015.8 |
| 20260902134903 | 83 | 57 | 3.0 | 8.0 | 0.00 | 0.00 | 0.00 | 1 | 1015.8 |
| 20260902134804 | 83 | 58 | 3.0 | 8.0 | 0.00 | 0.00 | 0.00 | 1 | 1015.8 |
| 20260902134704 | 83 | 58 | 3.0 | 8.0 | 0.00 | 0.00 | 0.00 | 1 | 1015.8 |
| 20260902134604 | 83 | 58 | 3.0 | 8.0 | 0.00 | 0.00 | 0.00 | 1 | 1015.8 |
| 20260902134504 | 83 | 61 | 3.0 | 8.0 | 0.00 | 0.00 | 0.00 | 1 | 1015.8 |
| 20260902134404 | 83 | 62 | 3.0 | 8.0 | 0.00 | 0.00 | 0.00 | 1 | 1015.8 |
| 20260902134304 | 83 | 61 | 3.0 | 6.0 | 0.00 | 0.00 | 0.00 | 1 | 1015.8 |
| 20260902134204 | 83 | 63 | 3.0 | 6.0 | 0.00 | 0.00 | 0.00 | 1 | 1015.8 |
| 20260902134104 | 83 | 64 | 3.0 | 6.0 | 0.00 | 0.00 | 0.00 | 1 | 1015.8 |
| 20260902134004 | 83 | 65 | 3.0 | 6.0 | 0.00 | 0.00 | 0.00 | 1 | 1015.8 |
| 20260902133904 | 83 | 67 | 4.0 | 6.0 | 0.00 | 0.00 | 0.00 | 1 | 1015.8 |
| 20260902133803 | 82 | 68 | 4.0 | 6.0 | 0.00 | 0.00 | 0.00 | 1 | 1015.8 |
| 20260902133725 | 82 | 70 | 4.0 | 6.0 | 0.00 | 0.00 | 0.00 | 1 | 1015.8 |
| 20260902133606 | 82 | 71 | 4.0 | 7.0 | 0.00 | 0.00 | 0.00 | 1 | 1015.8 |
| 20260902133504 | 82 | 71 | 4.0 | 7.0 | 0.00 | 0.00 | 0.00 | 1 | 1015.8 |
| 20260902133425 | 82 | 70 | 4.0 | 7.0 | 0.00 | 0.00 | 0.00 | 1 | 1015.8 |
| 20260902133327 | 82 | 68 | 4.0 | 7.0 | 0.00 | 0.00 | 0.00 | 1 | 1015.8 |
| 20260902133204 | 82 | 69 | 4.0 | 7.0 | 0.00 | 0.00 | 0.00 | 1 | 1015.8 |
| 20260902133105 | 82 | 69 | 3.0 | 7.0 | 0.00 | 0.00 | 0.00 | 1 | 1015.8 |
| 20260902133025 | 82 | 69 | 3.0 | 7.0 | 0.00 | 0.00 | 0.00 | 1 | 1015.8 |
| 20260902132904 | 82 | 67 | 3.0 | 7.0 | 0.00 | 0.00 | 0.00 | 1 | 1015.8 |
| 20260902132825 | 82 | 66 | 3.0 | 7.0 | 0.00 | 0.00 | 0.00 | 1 | 1015.8 |
| 20260902132704 | 82 | 65 | 3.0 | 7.0 | 0.00 | 0.00 | 0.00 | 1 | 1015.7 |
| 20260902132604 | 81 | 66 | 2.0 | 6.0 | 0.00 | 0.00 | 0.00 | 1 | 1015.8 |
| 20260902132504 | 81 | 66 | 2.0 | 6.0 | 0.00 | 0.00 | 0.00 | 1 | 1015.7 |
| 20260902132404 | 81 | 67 | 2.0 | 5.0 | 0.00 | 0.00 | 0.00 | 1 | 1015.7 |
| 20260902132325 | 81 | 67 | 2.0 | 4.0 | 0.00 | 0.00 | 0.00 | 1 | 1015.7 |
| 20260902132225 | 81 | 66 | 2.0 | 4.0 | 0.00 | 0.00 | 0.00 | 1 | 1015.7 |
| 20260902132104 | 81 | 66 | 2.0 | 4.0 | 0.00 | 0.00 | 0.00 | 1 | 1015.7 |
| 20260902132004 | 80 | 66 | 2.0 | 4.0 | 0.00 | 0.00 | 0.00 | 1 | 1015.7 |
| 20260902131904 | 80 | 66 | 2.0 | 4.0 | 0.00 | 0.00 | 0.00 | 1 | 1015.7 |
| 20260902131804 | 80 | 66 | 2.0 | 4.0 | 0.00 | 0.00 | 0.00 | 1 | 1015.7 |
| 20260902131704 | 80 | 66 | 2.0 | 4.0 | 0.00 | 0.00 | 0.00 | 1 | 1015.6 |
| 20260902131604 | 80 | 66 | 2.0 | 4.0 | 0.00 | 0.00 | 0.00 | 1 | 1015.7 |
| 20260902131503 | 80 | 65 | 2.0 | 4.0 | 0.00 | 0.00 | 0.00 | 1 | 1015.7 |
| 20260902131404 | 80 | 65 | 2.0 | 4.0 | 0.00 | 0.00 | 0.00 | 1 | 1015.7 |
| 20260902131304 | 80 | 65 | 2.0 | 4.0 | 0.00 | 0.00 | 0.00 | 1 | 1015.7 |
| 20260902131204 | 80 | 65 | 2.0 | 4.0 | 0.00 | 0.00 | 0.00 | 1 | 1015.7 |
| 20260902131104 | 79 | 65 | 2.0 | 4.0 | 0.00 | 0.00 | 0.00 | 1 | 1015.7 |
| 20260902131004 | 79 | 65 | 2.0 | 4.0 | 0.00 | 0.00 | 0.00 | 1 | 1015.7 |
| 20260902130904 | 79 | 65 | 2.0 | 4.0 | 0.00 | 0.00 | 0.00 | 1 | 1015.7 |
| 20260902130804 | 79 | 65 | 2.0 | 4.0 | 0.00 | 0.00 | 0.00 | 1 | 1015.7 |
| 20260902130704 | 79 | 65 | 2.0 | 5.0 | 0.00 | 0.00 | 0.00 | 1 | 1015.7 |
| 20260902130604 | 79 | 65 | 2.0 | 5.0 | 0.00 | 0.00 | 0.00 | 1 | 1015.6 |
| 20260902130503 | 79 | 65 | 2.0 | 5.0 | 0.00 | 0.00 | 0.00 | 1 | 1015.6 |
| 20260902130404 | 78 | 65 | 2.0 | 5.0 | 0.00 | 0.00 | 0.00 | 1 | 1015.6 |
| 20260902130304 | 78 | 65 | 2.0 | 5.0 | 0.00 | 0.00 | 0.00 | 1 | 1015.5 |
| 20260902130204 | 78 | 65 | 2.0 | 5.0 | 0.00 | 0.00 | 0.00 | 1 | 1015.5 |
| 20260902130104 | 78 | 65 | 3.0 | 5.0 | 0.00 | 0.00 | 0.00 | 1 | 1015.5 |
| 20260902130025 | 78 | 65 | 3.0 | 5.0 | 0.00 | 0.00 | 0.00 | 1 | 1015.6 |
| 20260902125904 | 78 | 65 | 3.0 | 5.0 | 0.00 | 0.00 | 0.00 | 1 | 1015.5 |
| 20260902125804 | 78 | 65 | 3.0 | 5.0 | 0.00 | 0.00 | 0.00 | 1 | 1015.5 |
| 20260902125703 | 78 | 65 | 3.0 | 4.0 | 0.00 | 0.00 | 0.00 | 1 | 1015.5 |
| 20260902125604 | 78 | 65 | 3.0 | 4.0 | 0.00 | 0.00 | 0.00 | 1 | 1015.5 |
| 20260902125504 | 78 | 66 | 3.0 | 4.0 | 0.00 | 0.00 | 0.00 | 1 | 1015.5 |
| 20260902125404 | 78 | 66 | 2.0 | 4.0 | 0.00 | 0.00 | 0.00 | 1 | 1015.5 |
| 20260902125305 | 78 | 66 | 2.0 | 4.0 | 0.00 | 0.00 | 0.00 | 1 | 1015.5 |
| 20260902125204 | 78 | 66 | 2.0 | 5.0 | 0.00 | 0.00 | 0.00 | 1 | 1015.4 |
| 20260902125104 | 78 | 66 | 2.0 | 5.0 | 0.00 | 0.00 | 0.00 | 1 | 1015.4 |
| 20260902125004 | 78 | 66 | 2.0 | 5.0 | 0.00 | 0.00 | 0.00 | 1 | 1015.4 |
| 20260902124904 | 78 | 66 | 2.0 | 5.0 | 0.00 | 0.00 | 0.00 | 1 | 1015.4 |
| 20260902124803 | 78 | 66 | 2.0 | 5.0 | 0.00 | 0.00 | 0.00 | 1 | 1015.4 |
| 20260902124725 | 78 | 66 | 2.0 | 5.0 | 0.00 | 0.00 | 0.00 | 1 | 1015.4 |
| 20260902124604 | 78 | 67 | 2.0 | 5.0 | 0.00 | 0.00 | 0.00 | 1 | 1015.4 |
| 20260902124524 | 78 | 67 | 2.0 | 5.0 | 0.00 | 0.00 | 0.00 | 1 | 1015.4 |
| 20260902124403 | 78 | 67 | 2.0 | 5.0 | 0.00 | 0.00 | 0.00 | 1 | 1015.4 |
| 20260902124304 | 78 | 67 | 3.0 | 5.0 | 0.00 | 0.00 | 0.00 | 1 | 1015.4 |
| 20260902124203 | 78 | 67 | 2.0 | 5.0 | 0.00 | 0.00 | 0.00 | 1 | 1015.4 |
| 20260902124104 | 77 | 67 | 2.0 | 5.0 | 0.00 | 0.00 | 0.00 | 1 | 1015.4 |
| 20260902124024 | 77 | 67 | 2.0 | 5.0 | 0.00 | 0.00 | 0.00 | 1 | 1015.4 |
| 20260902123925 | 77 | 67 | 2.0 | 5.0 | 0.00 | 0.00 | 0.00 | 1 | 1015.3 |
| 20260902123804 | 77 | 68 | 2.0 | 5.0 | 0.00 | 0.00 | 0.00 | 1 | 1015.3 |
| 20260902123725 | 77 | 68 | 2.0 | 4.0 | 0.00 | 0.00 | 0.00 | 1 | 1015.3 |
| 20260902123603 | 77 | 68 | 2.0 | 4.0 | 0.00 | 0.00 | 0.00 | 1 | 1015.3 |
| 20260902123504 | 77 | 68 | 2.0 | 4.0 | 0.00 | 0.00 | 0.00 | 1 | 1015.3 |
| 20260902123404 | 77 | 68 | 2.0 | 4.0 | 0.00 | 0.00 | 0.00 | 1 | 1015.3 |
| 20260902123325 | 77 | 68 | 1.0 | 4.0 | 0.00 | 0.00 | 0.00 | 1 | 1015.3 |
| 20260902123204 | 77 | 68 | 1.0 | 3.0 | 0.00 | 0.00 | 0.00 | 1 | 1015.3 |
| 20260902123104 | 77 | 68 | 1.0 | 3.0 | 0.00 | 0.00 | 0.00 | 1 | 1015.3 |
| 20260902123024 | 77 | 68 | 1.0 | 3.0 | 0.00 | 0.00 | 0.00 | 1 | 1015.3 |
| 20260902122904 | 77 | 68 | 1.0 | 3.0 | 0.00 | 0.00 | 0.00 | 1 | 1015.3 |
| 20260902122804 | 77 | 68 | 1.0 | 3.0 | 0.00 | 0.00 | 0.00 | 1 | 1015.3 |
| 20260902122725 | 77 | 68 | 1.0 | 3.0 | 0.00 | 0.00 | 0.00 | 1 | 1015.3 |
| 20260902122625 | 77 | 68 | 1.0 | 3.0 | 0.00 | 0.00 | 0.00 | 1 | 1015.3 |
| 20260902122504 | 77 | 68 | 1.0 | 2.0 | 0.00 | 0.00 | 0.00 | 1 | 1015.3 |
| 20260902122404 | 77 | 68 | 0.0 | 2.0 | 0.00 | 0.00 | 0.00 | 1 | 1015.2 |
| 20260902122325 | 77 | 68 | 0.0 | 2.0 | 0.00 | 0.00 | 0.00 | 1 | 1015.2 |
| 20260902122225 | 77 | 68 | 0.0 | 2.0 | 0.00 | 0.00 | 0.00 | 1 | 1015.2 |
| 20260902122124 | 77 | 68 | 0.0 | 2.0 | 0.00 | 0.00 | 0.00 | 1 | 1015.3 |
| 20260902122003 | 77 | 68 | 1.0 | 2.0 | 0.00 | 0.00 | 0.00 | 1 | 1015.3 |
| 20260902121924 | 77 | 68 | 1.0 | 2.0 | 0.00 | 0.00 | 0.00 | 1 | 1015.3 |
| 20260902121824 | 77 | 68 | 1.0 | 2.0 | 0.00 | 0.00 | 0.00 | 1 | 1015.3 |
| 20260902121704 | 77 | 68 | 1.0 | 2.0 | 0.00 | 0.00 | 0.00 | 1 | 1015.3 |
| 20260902121625 | 77 | 68 | 0.0 | 2.0 | 0.00 | 0.00 | 0.00 | 1 | 1015.2 |
| 20260902121525 | 77 | 68 | 0.0 | 2.0 | 0.00 | 0.00 | 0.00 | 1 | 1015.2 |
| 20260902121404 | 77 | 68 | 1.0 | 2.0 | 0.00 | 0.00 | 0.00 | 1 | 1015.2 |
| 20260902121304 | 77 | 68 | 1.0 | 2.0 | 0.00 | 0.00 | 0.00 | 1 | 1015.2 |
| 20260902121225 | 77 | 68 | 1.0 | 2.0 | 0.00 | 0.00 | 0.00 | 1 | 1015.2 |
| 20260902121104 | 77 | 68 | 1.0 | 2.0 | 0.00 | 0.00 | 0.00 | 1 | 1015.2 |
| 20260902121004 | 77 | 68 | 1.0 | 2.0 | 0.00 | 0.00 | 0.00 | 1 | 1015.2 |
| 20260902120904 | 77 | 68 | 1.0 | 2.0 | 0.00 | 0.00 | 0.00 | 1 | 1015.2 |
| 20260902120804 | 77 | 68 | 1.0 | 1.0 | 0.00 | 0.00 | 0.00 | 1 | 1015.2 |
| 20260902120725 | 77 | 68 | 1.0 | 2.0 | 0.00 | 0.00 | 0.00 | 1 | 1015.2 |
| 20260902120604 | 77 | 68 | 1.0 | 2.0 | 0.00 | 0.00 | 0.00 | 1 | 1015.2 |
| 20260902120503 | 77 | 68 | 1.0 | 2.0 | 0.00 | 0.00 | 0.00 | 1 | 1015.2 |
| 20260902120404 | 78 | 68 | 1.0 | 4.0 | 0.00 | 0.00 | 0.00 | 1 | 1015.2 |
| 20260902120304 | 77 | 68 | 1.0 | 4.0 | 0.00 | 0.00 | 0.00 | 1 | 1015.2 |
| 20260902120204 | 78 | 68 | 1.0 | 4.0 | 0.00 | 0.00 | 0.00 | 1 | 1015.2 |
| 20260902120104 | 78 | 68 | 1.0 | 4.0 | 0.00 | 0.00 | 0.00 | 1 | 1015.2 |
| 20260902120004 | 78 | 68 | 1.0 | 4.0 | 0.00 | 0.00 | 0.00 | 1 | 1015.2 |
| 20260902115903 | 78 | 68 | 1.0 | 4.0 | 0.00 | 0.00 | 0.00 | 1 | 1015.2 |
| 20260902115825 | 78 | 68 | 1.0 | 4.0 | 0.00 | 0.00 | 0.00 | 1 | 1015.2 |
| 20260902115703 | 78 | 68 | 1.0 | 4.0 | 0.00 | 0.00 | 0.00 | 1 | 1015.2 |
| 20260902115604 | 78 | 68 | 1.0 | 4.0 | 0.00 | 0.00 | 0.00 | 1 | 1015.2 |
| 20260902115503 | 78 | 68 | 1.0 | 4.0 | 0.00 | 0.00 | 0.00 | 1 | 1015.2 |
| 20260902115404 | 78 | 68 | 1.0 | 4.0 | 0.00 | 0.00 | 0.00 | 1 | 1015.1 |
| 20260902115324 | 78 | 68 | 1.0 | 2.0 | 0.00 | 0.00 | 0.00 | 1 | 1015.1 |
| 20260902115204 | 78 | 68 | 1.0 | 2.0 | 0.00 | 0.00 | 0.00 | 1 | 1015.1 |
| 20260902115104 | 78 | 68 | 1.0 | 2.0 | 0.00 | 0.00 | 0.00 | 1 | 1015.1 |
| 20260902115004 | 78 | 68 | 1.0 | 2.0 | 0.00 | 0.00 | 0.00 | 1 | 1015.1 |
| 20260902114925 | 78 | 68 | 1.0 | 2.0 | 0.00 | 0.00 | 0.00 | 1 | 1015.1 |
| 20260902114804 | 78 | 68 | 1.0 | 2.0 | 0.00 | 0.00 | 0.00 | 1 | 1015.1 |
| 20260902114703 | 78 | 68 | 1.0 | 2.0 | 0.00 | 0.00 | 0.00 | 1 | 1015.1 |
| 20260902114625 | 78 | 68 | 1.0 | 2.0 | 0.00 | 0.00 | 0.00 | 1 | 1015.1 |
| 20260902114504 | 78 | 68 | 1.0 | 2.0 | 0.00 | 0.00 | 0.00 | 1 | 1015.1 |
| 20260902114403 | 78 | 68 | 1.0 | 2.0 | 0.00 | 0.00 | 0.00 | 1 | 1015.1 |
| 20260902114303 | 79 | 68 | 1.0 | 2.0 | 0.00 | 0.00 | 0.00 | 1 | 1015.0 |
| 20260902114204 | 79 | 68 | 1.0 | 2.0 | 0.00 | 0.00 | 0.00 | 1 | 1015.1 |
| 20260902114104 | 79 | 68 | 1.0 | 2.0 | 0.00 | 0.00 | 0.00 | 1 | 1015.1 |
| 20260902114025 | 79 | 68 | 1.0 | 2.0 | 0.00 | 0.00 | 0.00 | 1 | 1015.1 |
| 20260902113925 | 79 | 68 | 1.0 | 2.0 | 0.00 | 0.00 | 0.00 | 1 | 1015.1 |
| 20260902113804 | 79 | 68 | 1.0 | 2.0 | 0.00 | 0.00 | 0.00 | 1 | 1015.0 |
| 20260902113703 | 79 | 68 | 1.0 | 2.0 | 0.00 | 0.00 | 0.00 | 1 | 1015.1 |
| 20260902113604 | 79 | 68 | 1.0 | 2.0 | 0.00 | 0.00 | 0.00 | 1 | 1015.1 |
| 20260902113504 | 79 | 68 | 0.0 | 2.0 | 0.00 | 0.00 | 0.00 | 1 | 1015.1 |
| 20260902113403 | 79 | 68 | 0.0 | 1.0 | 0.00 | 0.00 | 0.00 | 1 | 1015.1 |
| 20260902113304 | 79 | 68 | 0.0 | 1.0 | 0.00 | 0.00 | 0.00 | 1 | 1015.1 |
| 20260902113204 | 79 | 68 | 0.0 | 1.0 | 0.00 | 0.00 | 0.00 | 1 | 1015.1 |
| 20260902113103 | 79 | 68 | 0.0 | 1.0 | 0.00 | 0.00 | 0.00 | 1 | 1015.0 |
| 20260902113004 | 79 | 68 | 0.0 | 1.0 | 0.00 | 0.00 | 0.00 | 1 | 1015.0 |
| 20260902112904 | 79 | 68 | 0.0 | 1.0 | 0.00 | 0.00 | 0.00 | 1 | 1015.0 |
| 20260902112803 | 79 | 68 | 0.0 | 1.0 | 0.00 | 0.00 | 0.00 | 1 | 1015.0 |
| 20260902112725 | 79 | 68 | 0.0 | 1.0 | 0.00 | 0.00 | 0.00 | 1 | 1015.0 |
| 20260902112604 | 79 | 68 | 0.0 | 1.0 | 0.00 | 0.00 | 0.00 | 1 | 1015.0 |
| 20260902112503 | 79 | 68 | 0.0 | 2.0 | 0.00 | 0.00 | 0.00 | 1 | 1015.0 |
| 20260902112404 | 79 | 68 | 0.0 | 2.0 | 0.00 | 0.00 | 0.00 | 1 | 1015.0 |
| 20260902112305 | 79 | 68 | 1.0 | 2.0 | 0.00 | 0.00 | 0.00 | 1 | 1014.9 |
| 20260902112203 | 79 | 68 | 1.0 | 2.0 | 0.00 | 0.00 | 0.00 | 1 | 1014.9 |
| 20260902112103 | 79 | 68 | 1.0 | 3.0 | 0.00 | 0.00 | 0.00 | 1 | 1014.9 |
| 20260902112003 | 79 | 68 | 1.0 | 3.0 | 0.00 | 0.00 | 0.00 | 1 | 1014.9 |
| 20260902111924 | 79 | 68 | 1.0 | 3.0 | 0.00 | 0.00 | 0.00 | 1 | 1014.9 |
| 20260902111803 | 79 | 68 | 1.0 | 3.0 | 0.00 | 0.00 | 0.00 | 1 | 1014.9 |
| 20260902111704 | 79 | 68 | 1.0 | 3.0 | 0.00 | 0.00 | 0.00 | 1 | 1014.9 |
| 20260902111625 | 79 | 68 | 1.0 | 3.0 | 0.00 | 0.00 | 0.00 | 1 | 1014.9 |
| 20260902111503 | 79 | 68 | 1.0 | 3.0 | 0.00 | 0.00 | 0.00 | 1 | 1014.8 |